GFSMW_sfc_dewp_000.txt.gz
Dewpoint
30 32 35 37 36 35 39 43 46 51 53 56 57 59 59 59 60 60 59 58 57 56 56 56 56 57 55 54 54 55 54 54 54 53 52 52 52 50 49 50 50 49 48
32 34 37 41 41 42 42 41 43 47 51 54 57 58 59 59 59 60 60 59 59 58 57 57 57 57 57 57 54 55 55 55 55 53 51 50 50 51 51 51 50 50 50
35 37 38 41 45 46 45 45 44 45 49 52 55 56 57 58 58 58 59 59 59 59 59 58 58 58 58 58 58 56 55 55 56 55 53 49 48 48 49 50 50 51 50
36 38 40 41 44 46 48 46 44 44 45 49 53 54 55 56 57 57 58 59 59 59 60 60 59 59 60 59 59 59 57 56 55 56 55 53 50 48 47 48 47 46 45
36 38 41 43 45 46 46 45 45 44 45 44 45 49 54 56 57 57 56 56 57 59 60 60 60 60 60 60 60 60 59 58 57 56 55 55 54 53 51 49 49 49 48
36 38 41 43 44 46 45 44 42 41 42 46 49 49 48 49 51 53 54 54 55 56 59 60 60 60 60 61 61 61 60 59 58 57 57 56 54 53 52 51 51 50 50
36 38 41 42 43 43 44 42 43 42 42 42 42 42 46 51 54 54 54 55 55 55 56 58 59 60 60 61 61 61 61 61 59 58 57 56 56 55 53 52 51 50 50
36 39 41 42 42 43 44 44 44 43 43 43 42 42 42 44 46 48 48 51 53 55 56 57 58 58 59 60 61 61 61 61 61 60 59 58 57 57 55 53 51 50 50
35 38 41 41 41 42 43 43 42 43 43 43 43 42 42 42 42 42 43 45 45 45 45 50 54 56 58 58 58 59 59 60 60 60 60 60 59 58 56 56 54 52 50
36 38 39 41 41 41 42 42 41 42 43 43 42 42 43 43 43 42 42 42 42 42 43 44 45 47 50 54 56 57 58 57 58 58 59 59 59 58 57 56 55 54 53
37 39 39 40 40 40 41 40 41 41 42 42 43 43 44 44 44 43 44 44 43 43 42 42 42 43 44 46 48 50 53 56 56 57 58 58 58 58 57 56 55 55 54
39 39 39 39 39 40 40 39 40 40 42 43 44 44 44 45 44 44 44 45 45 45 44 44 44 43 43 44 46 47 48 50 52 54 56 56 57 58 58 56 55 55 55
38 38 38 38 37 38 41 41 42 43 44 45 45 45 45 45 45 45 45 45 45 44 44 45 45 45 45 45 44 45 46 48 50 52 53 54 55 55 56 57 56 55 55
37 36 36 35 36 37 41 42 44 44 44 44 44 43 44 43 42 42 42 42 42 42 42 43 43 44 44 45 45 45 46 49 49 51 52 53 54 54 55 55 56 56 56
36 35 35 35 36 41 43 43 43 41 38 39 40 41 42 40 40 39 39 39 40 40 40 40 40 41 42 41 45 45 45 46 47 48 49 51 51 50 53 55 55 56 56
34 34 34 35 40 43 42 40 39 37 37 36 37 38 38 38 38 37 37 38 38 38 38 38 39 39 39 45 46 46 46 45 46 47 47 49 50 51 52 53 52 54 55
33 34 39 42 41 39 39 36 34 33 33 34 34 33 31 31 33 34 33 34 33 32 35 37 37 38 38 44 46 48 45 45 45 46 47 48 50 50 52 52 53 53 53
37 40 40 39 39 38 35 31 29 28 28 28 28 27 28 27 27 28 27 28 28 29 29 32 35 36 37 43 47 46 41 41 42 44 44 47 48 50 51 52 52 53 54
39 39 38 36 34 31 28 27 26 26 25 24 21 23 24 23 23 24 23 22 24 26 25 27 29 34 34 41 44 39 36 39 40 42 42 43 45 46 49 50 50 50 52
39 36 33 32 29 26 25 24 22 18 17 15 16 17 19 19 19 19 18 18 21 20 22 21 25 32 31 37 41 38 35 35 38 39 39 42 43 45 46 47 48 48 50
34 32 30 27 23 21 19 16 12 9 10 12 12 13 14 14 14 15 16 16 15 19 19 19 20 24 27 25 37 37 33 35 34 30 34 38 42 44 44 44 45 45 49
31 26 25 22 17 12 9 8 8 10 11 12 12 12 12 11 10 12 13 13 13 14 18 17 19 22 20 31 32 36 38 37 32 32 32 36 39 41 43 44 45 46 47
25 20 18 14 9 9 9 8 8 10 11 11 11 12 12 11 11 12 12 12 13 12 14 15 19 17 18 24 32 35 37 37 34 32 35 39 41 42 42 43 44 46 40
19 16 16 11 9 8 8 9 9 11 12 11 12 13 13 14 13 15 14 13 12 14 15 17 17 20 22 24 25 29 32 34 32 34 35 39 42 44 44 43 43 37 36
16 14 12 11 9 9 10 10 11 13 13 13 13 13 15 14 14 15 14 14 15 21 22 22 23 22 23 24 32 34 32 31 32 36 36 37 37 39 39 37 34 34 35
14 13 12 11 11 11 11 12 14 15 14 13 14 16 16 15 16 16 15 22 26 29 30 31 30 25 30 32 34 34 34 35 37 33 34 35 35 35 36 34 32 32 31

GFSMW_sfc_dewp_003.txt.gz
Dewpoint
35 39 42 45 45 45 44 43 44 52 53 57 59 59 59 60 60 59 58 58 57 56 56 56 56 57 55 54 53 54 54 54 54 52 52 52 52 50 50 50 49 48 47
38 39 42 44 46 47 46 45 44 45 52 54 57 59 60 60 60 61 60 60 59 58 57 56 56 57 57 56 54 54 54 54 54 52 50 50 51 52 52 52 49 48 48
38 40 41 43 45 45 46 46 44 44 47 53 56 57 58 58 58 59 59 60 60 60 59 58 57 57 58 57 57 56 55 54 55 55 53 51 49 47 49 51 52 51 51
38 41 42 43 45 45 44 43 44 45 47 47 49 53 54 55 56 57 58 58 60 60 60 60 60 59 59 58 58 59 57 55 55 56 55 54 50 48 47 49 48 50 50
38 41 42 44 45 45 43 42 42 43 43 44 48 49 49 52 54 55 55 56 56 58 60 60 60 60 60 60 60 60 60 59 57 56 56 55 55 53 52 50 50 49 47
38 41 43 43 43 44 43 43 43 43 43 43 42 42 43 48 51 53 53 54 55 56 57 60 60 60 60 60 61 61 60 61 60 59 58 56 54 54 53 52 52 51 51
38 40 42 42 43 43 43 44 43 43 43 43 42 41 41 42 43 45 48 47 51 54 53 55 57 60 61 61 61 61 61 61 61 60 59 58 57 56 55 53 52 51 51
39 40 41 41 42 42 42 42 42 42 43 42 42 42 42 43 43 43 43 44 45 46 46 45 47 49 55 59 61 62 62 62 61 61 61 60 59 58 57 56 54 52 50
38 40 40 41 41 41 42 42 41 42 43 43 43 43 43 44 44 43 43 44 44 44 44 43 43 43 44 46 52 54 58 59 59 59 59 59 59 59 59 58 57 54 51
38 39 40 40 40 41 41 40 41 41 42 43 44 44 44 45 45 45 45 45 45 45 45 45 44 44 43 44 44 46 47 49 52 55 57 57 57 58 59 59 58 57 55
38 39 39 40 40 40 40 41 42 43 44 45 45 45 45 46 46 45 45 45 45 45 45 45 45 45 45 45 44 44 45 45 47 49 52 53 55 56 56 57 57 57 56
39 39 39 39 39 41 42 43 44 44 45 45 45 45 46 45 44 43 43 42 43 43 43 43 44 44 44 44 44 44 45 45 46 47 50 51 52 53 55 55 55 56 56
39 38 36 36 39 42 43 43 43 41 39 40 42 42 43 42 41 41 39 38 38 39 40 41 41 40 41 41 41 42 44 45 46 48 49 50 51 51 52 53 54 54 54
37 35 35 36 42 43 41 41 39 37 36 37 38 37 40 38 37 37 37 37 37 38 39 39 38 38 40 40 39 42 39 41 44 47 48 48 49 50 50 51 52 53 53
34 34 36 41 42 40 38 37 35 35 35 35 35 35 34 31 31 32 34 34 35 35 36 34 33 39 38 38 40 39 40 44 46 46 46 47 47 48 49 50 51 52 52
33 38 43 41 38 37 35 33 31 30 30 29 28 29 28 28 29 29 29 30 30 31 31 31 36 33 37 41 43 43 44 45 40 38 40 43 45 47 49 51 51 52 51
39 41 39 38 37 35 31 28 26 26 25 24 25 22 23 24 24 24 25 26 25 25 24 30 28 30 33 39 43 43 39 33 35 39 38 42 41 42 44 46 48 49 50
39 38 36 34 33 28 26 25 24 23 20 23 16 16 18 18 19 19 20 20 21 20 20 23 22 26 23 36 41 44 30 31 34 36 37 40 35 38 43 44 45 45 46
38 36 33 31 27 24 23 20 19 17 14 14 11 12 13 13 14 15 15 16 16 18 16 16 21 17 21 33 40 34 29 27 29 33 37 30 31 38 41 41 42 42 42
35 32 30 28 23 20 17 13 12 8 8 11 12 12 12 13 12 12 12 13 14 14 15 12 14 24 22 33 33 29 26 27 28 34 31 34 34 38 39 37 39 39 39
31 29 27 23 19 15 10 7 8 8 9 13 13 13 13 12 12 12 11 12 13 13 13 12 13 18 22 18 29 32 28 27 31 32 33 32 35 38 39 41 40 41 43
28 24 22 19 14 9 8 7 7 9 11 13 13 13 13 13 13 12 13 13 14 13 12 12 16 16 15 24 26 29 32 32 31 32 32 31 36 36 40 41 43 44 43
23 18 16 14 10 10 9 8 9 11 12 13 13 13 14 14 13 14 14 14 14 14 13 16 17 19 21 21 28 30 31 33 32 31 33 36 35 38 38 38 40 40 38
19 16 15 11 10 10 10 10 11 12 14 13 14 14 14 15 15 16 16 15 15 16 17 19 22 22 23 24 24 26 28 31 30 31 31 34 33 36 36 35 36 35 35
16 14 12 12 11 11 11 12 12 14 14 14 14 14 15 15 15 16 16 16 17 21 21 23 23 23 24 24 29 29 27 28 29 31 31 28 28 32 32 34 33 35 34
15 14 13 13 12 12 12 13 15 16 16 14 15 16 16 16 17 16 15 22 25 27 27 27 26 24 27 29 29 29 31 31 29 30 27 26 27 29 31 31 32 33 34

GFSMW_sfc_dewp_006.txt.gz
Dewpoint
38 41 43 44 46 46 45 44 44 46 55 59 58 58 59 59 59 58 57 56 56 55 55 55 55 56 55 55 54 53 53 53 53 52 52 53 53 52 52 52 51 50 48
39 41 42 43 43 43 45 44 44 45 50 56 58 59 59 59 60 60 60 59 58 57 56 56 56 56 56 56 55 54 53 54 54 53 53 51 52 53 53 53 52 51 51
39 41 42 43 44 43 42 42 44 46 47 53 57 57 58 58 58 59 59 60 60 60 59 58 57 57 57 56 56 56 54 54 55 54 54 52 50 48 50 51 52 52 52
40 41 43 43 43 43 42 42 43 43 43 48 49 50 52 52 55 56 57 57 58 59 60 60 59 59 58 57 57 57 57 57 55 57 55 55 55 52 51 51 49 50 51
40 42 42 43 43 43 43 43 43 43 43 42 43 45 44 50 51 51 49 50 52 54 55 58 59 60 60 60 59 59 59 59 58 57 57 56 55 55 54 52 52 52 51
40 41 42 43 43 43 43 43 43 43 43 43 42 42 41 42 43 43 45 46 48 51 49 48 53 58 60 60 61 61 61 61 60 60 59 57 56 55 54 54 53 53 53
40 41 41 42 42 42 42 42 43 43 43 43 43 43 43 43 43 43 43 44 44 45 44 44 44 44 46 50 56 59 60 61 60 60 59 59 59 58 57 56 55 55 55
39 40 40 41 41 41 42 41 42 43 43 43 43 44 45 45 45 44 44 44 44 45 44 44 44 44 44 44 45 48 52 55 57 57 58 58 57 57 58 57 56 53 54
39 40 40 41 41 41 40 41 42 43 44 44 45 45 45 45 45 45 45 45 44 43 43 44 44 44 44 44 44 45 46 47 49 50 52 54 55 56 57 57 57 55 52
39 40 40 40 40 40 41 42 44 44 44 45 45 44 45 45 45 44 43 42 42 42 42 42 42 43 44 44 44 44 44 44 45 46 47 48 50 52 55 56 56 55 54
38 39 39 40 41 42 43 44 44 42 41 43 43 43 44 44 43 41 41 39 39 38 39 39 40 41 42 40 40 41 41 41 43 46 46 48 49 50 52 53 53 53 53
39 39 39 41 42 43 43 42 40 38 38 40 40 40 42 39 37 35 35 35 34 35 35 37 37 37 35 37 39 39 39 41 38 39 43 46 47 49 50 50 50 50 51
39 36 38 41 43 42 41 39 37 36 36 37 37 36 37 33 30 30 30 31 31 32 31 33 32 31 33 37 35 37 39 36 38 40 43 46 47 45 46 48 48 48 49
36 35 39 42 41 39 38 35 34 33 34 34 33 35 30 28 28 28 27 27 28 28 27 27 26 29 34 30 33 37 33 38 39 44 46 44 40 40 44 45 46 47 48
34 36 41 41 39 36 34 31 29 28 30 28 30 28 28 25 25 25 24 24 24 23 25 22 22 24 30 23 34 30 31 35 41 41 35 37 39 43 45 40 38 43 44
35 42 41 37 36 34 30 27 26 26 26 25 25 22 19 18 19 19 19 19 19 19 20 19 20 26 18 32 36 34 30 37 32 29 29 35 37 41 38 38 41 43 43
41 40 37 36 34 29 26 25 24 23 19 22 16 14 14 14 15 15 16 16 15 17 16 16 18 15 17 32 34 37 28 26 27 25 26 28 34 35 29 34 39 37 41
39 37 35 32 30 26 24 22 20 16 13 15 11 12 13 13 13 13 13 13 13 13 12 14 14 15 12 30 33 35 20 17 18 25 25 30 34 32 33 34 34 34 37
37 35 32 30 26 21 19 14 11 9 9 10 11 12 13 12 13 12 12 12 12 12 13 13 13 13 13 28 34 28 19 23 25 25 26 32 33 35 36 33 34 35 36
34 32 30 26 21 16 10 7 8 8 8 10 12 13 14 13 12 13 13 13 13 13 14 13 14 18 13 25 27 26 22 23 25 26 28 35 33 34 34 32 34 35 37
32 28 25 21 16 9 7 8 9 8 9 12 13 14 14 14 13 13 14 14 14 14 15 14 14 14 18 20 28 29 25 25 26 28 30 29 33 33 34 35 36 37 37
27 24 21 16 10 9 9 8 8 9 11 13 14 14 14 14 13 14 14 15 15 15 15 15 17 19 21 27 28 30 30 30 28 29 28 28 32 35 37 35 37 37 37
22 18 16 14 11 11 10 9 10 12 12 13 14 14 14 14 14 15 15 15 16 16 16 17 20 22 23 23 29 30 31 32 28 27 30 30 33 32 31 32 34 35 33
18 17 14 11 10 11 10 11 12 13 14 14 14 15 14 16 16 16 16 15 16 17 18 21 22 23 23 25 25 26 27 28 30 30 25 30 28 28 28 29 30 31 32
17 15 13 12 11 11 11 12 13 14 14 15 15 14 16 16 16 16 16 16 17 21 22 22 23 23 25 24 28 26 24 32 26 24 26 25 24 25 26 26 28 30 31
15 13 13 12 12 12 13 14 15 16 16 15 15 16 17 16 17 16 15 22 24 26 26 26 24 22 26 28 26 27 33 29 25 22 23 23 23 24 25 26 28 29 31

GFSMW_sfc_dewp_009.txt.gz
Dewpoint
40 41 42 43 42 43 44 44 45 47 55 58 57 57 58 58 58 58 56 55 55 54 54 55 55 55 55 55 55 54 53 53 53 53 53 53 53 53 53 53 53 52 51
40 41 43 43 42 41 41 42 44 47 51 57 58 58 58 58 59 60 59 59 58 57 56 55 55 55 55 55 55 55 54 54 54 53 54 52 53 53 53 53 53 53 53
40 41 42 42 42 42 42 42 42 42 46 51 56 56 56 56 55 56 57 57 58 59 59 59 58 58 57 56 57 56 55 55 56 54 54 52 51 51 51 51 53 53 53
41 41 42 42 42 42 42 43 43 42 42 43 45 47 49 49 51 53 51 50 51 52 53 55 57 58 59 58 58 58 58 57 56 57 56 55 55 53 53 53 52 51 52
41 41 42 42 43 43 43 43 43 43 43 43 43 43 43 44 46 45 44 45 46 48 47 46 48 49 52 55 58 59 59 59 58 58 58 57 56 56 54 52 53 54 53
41 41 42 42 42 42 42 43 43 43 43 44 44 43 43 43 44 44 44 45 45 46 45 44 44 45 45 47 48 50 52 56 58 58 57 56 55 55 54 54 54 54 55
40 40 41 41 41 41 41 42 43 43 44 44 44 45 45 45 44 44 44 43 43 43 43 44 43 43 44 45 45 47 48 49 50 51 52 54 55 54 54 53 52 52 53
40 40 41 41 41 41 41 43 44 44 44 44 45 45 45 45 44 44 44 43 43 43 41 42 42 42 43 44 44 46 47 47 47 47 48 49 50 51 53 52 51 49 49
39 40 40 40 40 41 42 43 44 44 44 44 44 44 44 43 43 42 42 41 40 38 38 40 39 40 41 42 43 41 42 43 44 46 47 48 47 49 50 51 52 50 47
39 40 40 40 41 42 43 43 42 41 41 41 42 42 43 41 41 39 38 37 36 36 36 36 37 38 38 36 36 39 40 40 40 42 41 41 43 47 49 50 51 50 49
39 40 40 40 42 43 42 41 39 38 38 39 39 39 39 37 35 32 32 32 32 31 31 31 31 30 30 31 35 34 35 38 37 36 38 40 43 46 47 46 47 46 47
38 39 40 42 42 42 39 37 36 35 36 36 35 36 32 28 27 27 27 26 25 26 27 25 25 23 25 28 30 28 34 31 31 35 38 40 44 44 43 42 42 45 45
39 38 41 42 41 40 37 34 33 32 33 32 33 30 26 25 25 25 24 22 22 22 21 22 21 21 22 28 24 23 31 25 27 32 36 43 39 40 36 38 43 42 38
37 38 42 41 39 37 33 31 29 28 29 28 28 23 22 22 22 22 21 20 20 18 18 19 18 19 20 21 19 25 25 26 30 34 41 34 33 35 35 39 34 31 36
35 39 41 40 37 34 30 28 26 26 25 25 22 20 20 19 19 19 18 17 17 16 16 16 15 16 16 12 21 23 25 30 23 21 25 25 30 34 37 37 34 33 35
35 41 40 37 35 32 28 25 24 23 19 20 15 16 16 16 16 15 15 15 15 14 14 14 14 15 13 25 28 28 28 24 18 16 18 25 29 28 37 37 37 36 34
39 41 37 36 33 27 25 23 20 14 11 15 13 14 15 15 15 15 14 14 14 13 13 13 13 13 14 25 28 30 25 20 20 22 24 25 25 31 34 35 36 36 35
40 37 35 32 27 24 22 17 13 9 10 12 12 14 15 14 14 14 13 13 13 13 13 13 14 14 14 25 27 28 21 22 22 23 25 25 27 31 32 31 29 31 31
37 35 32 29 23 19 15 9 8 8 10 11 12 13 14 14 14 13 13 13 13 14 14 14 15 15 15 25 27 27 23 24 24 25 26 29 28 31 32 29 29 29 30
34 32 29 24 20 13 8 7 8 8 8 11 12 13 14 14 14 13 13 14 14 15 15 15 15 19 16 24 28 27 25 25 26 31 30 31 29 31 32 28 29 32 35
32 28 26 21 14 8 8 9 9 8 10 12 14 15 15 14 14 14 14 15 15 15 16 15 16 17 20 23 28 29 25 25 30 30 26 26 31 32 30 31 30 33 33
28 25 21 15 9 10 10 9 8 10 12 14 14 15 15 15 14 14 15 15 16 16 15 16 18 20 22 26 27 29 29 30 25 25 27 28 28 28 29 27 28 29 31
22 19 17 14 11 12 11 9 10 12 13 14 14 15 15 15 15 15 15 16 16 15 16 17 20 21 22 23 28 30 31 28 25 29 29 27 27 27 25 27 29 30 28
20 17 14 11 10 11 11 11 12 13 14 14 14 15 15 16 16 17 17 16 15 16 18 20 21 22 23 23 23 28 24 26 28 32 22 23 25 26 25 25 26 27 27
19 15 13 11 11 11 11 12 13 14 14 14 15 15 16 16 16 17 16 15 16 20 21 22 22 22 22 22 25 26 22 24 33 23 20 19 21 21 21 22 24 25 25
16 14 12 11 11 12 13 13 15 15 15 15 15 16 17 17 17 16 15 21 23 25 25 25 23 21 25 26 26 26 27 30 26 20 19 20 21 21 21 22 22 24 25

GFSMW_sfc_dewp_012.txt.gz
Dewpoint
40 42 42 41 41 41 42 43 46 50 56 57 56 56 56 57 57 58 58 56 55 55 54 54 55 55 55 55 55 55 54 54 54 53 53 54 54 53 53 53 53 53 52
40 41 41 41 41 41 41 41 42 44 51 56 57 57 57 58 58 57 55 55 58 58 57 57 56 56 56 56 55 55 55 56 55 54 54 52 53 54 54 54 54 53 53
40 40 41 41 42 42 42 42 42 42 43 46 51 51 52 51 50 50 48 49 49 47 47 49 51 53 56 56 57 57 57 56 56 56 55 52 52 54 54 52 53 53 53
41 41 41 42 42 42 42 43 43 43 43 43 44 44 45 45 46 47 45 45 46 46 44 45 45 46 49 48 50 50 55 56 55 56 57 57 56 53 51 54 54 52 52
41 41 42 42 42 42 42 43 43 44 44 44 44 44 44 44 44 44 43 44 43 45 44 43 44 43 44 45 46 46 47 48 50 50 52 53 53 53 52 48 49 52 54
41 41 42 41 41 42 43 43 44 44 45 45 45 44 44 43 42 42 42 42 42 43 42 41 42 43 43 44 45 46 46 46 47 48 47 47 48 48 49 48 47 48 49
40 41 40 41 41 41 43 44 44 44 45 44 44 44 44 43 42 42 41 39 38 38 38 38 39 40 41 42 44 45 45 45 46 45 45 47 46 48 48 47 45 46 47
40 40 40 40 40 42 43 43 43 43 43 43 43 42 41 41 40 39 39 38 38 38 35 36 37 38 39 39 38 40 43 43 44 43 44 46 45 45 45 46 46 43 43
39 40 40 40 41 43 43 42 41 41 41 40 41 40 38 37 36 36 35 33 33 31 32 34 33 33 32 30 32 36 36 36 40 42 42 39 40 42 44 47 48 45 40
39 40 40 40 42 43 41 39 39 38 38 38 38 36 34 32 31 30 29 29 28 28 28 27 26 25 23 25 26 34 27 30 37 29 33 35 39 40 44 47 45 43 42
39 40 39 42 43 41 39 37 36 36 35 35 34 30 27 26 25 25 25 24 25 24 23 21 23 21 20 21 23 28 22 29 29 26 28 32 36 41 41 43 38 37 40
39 39 40 42 41 38 36 33 32 32 32 32 29 25 24 22 22 22 22 21 20 20 19 18 19 18 18 19 22 20 19 27 23 26 30 33 37 33 36 37 32 36 41
39 39 41 41 40 37 33 30 29 28 28 28 23 19 19 18 18 18 18 18 18 17 16 17 17 16 17 17 15 17 21 22 25 28 26 20 27 26 27 27 29 36 35
38 40 41 40 37 34 30 27 26 25 25 21 17 17 17 16 16 17 17 17 17 16 15 15 15 15 15 15 15 20 22 24 28 23 20 18 19 22 27 25 28 35 34
36 41 41 38 35 31 28 25 23 20 20 15 15 16 17 16 16 17 17 16 16 15 15 14 14 14 15 12 20 22 23 24 23 21 20 23 27 30 29 29 30 33 33
36 41 40 37 33 29 26 23 20 14 14 14 13 15 16 16 17 16 15 15 15 14 15 14 14 14 14 24 27 27 23 23 22 22 23 23 27 28 33 33 33 31 29
36 40 38 35 31 26 24 20 13 9 10 12 13 14 15 16 16 15 15 14 14 15 14 14 14 14 15 25 28 29 23 23 23 24 24 24 25 30 29 31 32 31 32
39 39 36 31 26 24 19 14 10 9 11 11 12 14 15 15 15 15 14 14 14 14 14 14 15 15 15 25 27 29 24 24 24 25 26 26 30 29 27 27 30 32 27
38 36 33 29 23 18 12 8 8 8 9 11 12 13 14 15 15 14 14 14 14 14 14 15 15 16 16 25 27 27 23 24 24 25 27 31 27 29 31 29 28 25 30
35 32 28 24 18 10 7 7 8 8 9 11 13 13 15 15 14 14 14 15 15 15 16 15 16 19 17 24 28 26 23 24 24 28 30 28 26 30 30 23 25 27 24
31 28 24 19 12 8 8 8 9 8 11 13 14 15 15 15 14 14 15 15 15 16 16 15 16 17 20 22 28 28 23 23 28 27 22 23 31 31 27 27 24 24 25
28 24 19 13 9 10 9 9 8 10 12 14 14 15 15 14 14 15 15 16 16 16 15 15 17 19 21 25 26 28 27 28 25 22 22 27 32 26 25 26 27 27 27
24 20 18 13 10 11 11 9 10 12 13 13 14 14 14 15 15 15 16 16 16 15 15 16 19 21 21 22 27 28 29 29 23 22 31 28 25 24 23 25 26 25 22
21 18 15 10 10 11 10 11 12 13 14 13 14 14 15 16 16 17 17 17 16 16 16 19 20 21 21 22 23 24 26 26 25 31 29 23 22 23 23 21 21 21 22
20 17 13 11 10 11 11 12 13 14 14 14 14 15 15 16 17 17 17 16 16 20 20 20 21 21 21 22 25 26 21 23 25 24 19 18 18 18 18 19 19 20 21
17 14 12 10 10 12 12 13 14 15 15 14 14 15 16 17 17 16 16 21 23 24 24 24 23 21 24 26 26 25 26 28 23 16 16 20 19 18 18 19 19 20 21

GFSMW_sfc_dewp_015.txt.gz
Dewpoint
41 41 41 42 42 43 43 45 50 54 57 58 58 58 58 56 53 52 52 52 54 55 55 54 53 55 55 55 56 56 56 56 57 55 54 55 56 56 56 56 55 55 55
40 41 41 42 42 42 43 43 44 46 53 58 59 58 54 50 49 48 47 46 43 44 42 44 45 45 47 47 48 50 50 52 53 54 54 52 51 53 56 56 55 55 55
39 40 41 42 43 43 43 44 44 45 45 47 48 47 48 48 46 45 44 44 43 42 41 42 42 43 44 44 45 46 46 45 45 47 51 48 47 50 49 52 53 54 55
41 41 41 42 43 43 45 45 46 45 45 46 46 46 45 44 44 44 43 42 42 41 39 40 41 41 42 42 43 42 44 43 43 44 42 47 48 44 43 40 46 47 49
41 41 42 43 43 45 45 46 46 46 46 45 45 44 43 43 42 41 40 40 39 40 37 38 39 39 39 41 42 41 42 42 43 43 44 44 45 46 45 44 41 45 44
41 42 42 43 43 45 46 46 45 45 44 44 43 43 42 39 38 38 35 35 34 35 33 33 34 35 35 37 36 38 40 41 42 43 43 43 44 44 44 43 42 42 42
41 41 41 42 43 44 45 45 44 43 42 41 40 40 38 37 34 33 30 28 27 30 29 30 28 29 30 29 30 34 40 40 40 41 42 42 40 38 39 41 41 42 42
41 41 41 42 43 44 44 42 41 41 40 39 36 34 33 31 28 28 26 25 25 26 26 26 24 24 23 21 25 29 38 34 36 40 36 35 32 35 38 40 42 40 39
40 41 41 41 43 43 42 40 39 39 39 36 31 27 25 24 24 23 22 23 22 18 21 22 21 22 20 20 23 24 27 25 28 33 30 31 32 37 39 42 43 40 37
40 40 40 42 43 41 39 38 37 35 35 30 25 22 21 19 19 19 19 20 18 19 19 18 18 19 17 17 18 21 22 20 23 24 25 30 32 35 39 39 37 38 34
40 40 40 43 41 38 36 35 33 33 31 25 21 18 17 17 16 16 17 17 17 17 16 15 15 14 14 14 16 16 16 19 23 24 27 29 29 26 28 33 33 31 30
40 40 42 41 38 35 32 31 29 29 27 21 17 15 15 15 13 14 15 15 15 15 14 13 13 12 13 14 13 14 18 20 22 24 29 24 19 22 23 25 26 29 30
40 40 42 40 36 32 29 27 26 26 21 16 13 13 13 13 13 13 14 14 14 14 13 14 13 12 14 14 14 16 20 21 23 24 24 22 21 21 24 27 28 30 29
39 40 41 39 35 31 27 25 22 22 17 14 13 13 13 14 14 15 14 14 14 14 14 13 13 14 13 15 15 20 22 22 23 23 23 22 22 23 26 26 29 29 31
38 41 40 37 32 28 26 23 17 15 13 12 13 14 15 15 15 16 15 15 15 14 14 14 13 14 15 11 21 23 23 23 23 23 23 24 27 30 30 28 29 30 30
38 41 40 36 31 28 25 22 15 10 12 12 12 15 15 15 16 16 15 15 15 14 15 14 13 14 13 24 27 27 24 24 23 23 24 24 28 28 32 32 31 30 30
37 41 39 35 30 27 24 18 8 9 10 11 11 13 14 15 16 15 15 14 14 14 14 13 13 14 15 25 28 29 24 24 23 23 24 25 25 30 29 31 31 33 31
38 40 37 32 27 24 19 11 9 9 10 10 11 13 14 14 15 14 13 14 14 14 13 13 14 15 15 25 27 28 23 23 22 23 24 25 28 28 26 26 34 26 24
39 38 33 27 23 18 12 8 7 8 9 11 11 13 14 14 14 13 13 14 14 14 14 14 15 14 16 24 27 27 23 22 22 23 24 29 24 26 29 34 25 23 24
35 32 27 22 15 9 7 7 7 7 8 11 13 13 14 14 13 13 14 15 15 15 16 15 15 19 16 24 27 26 22 23 22 25 28 27 24 28 34 24 22 23 24
30 26 23 19 12 8 8 8 7 8 10 13 14 14 14 13 14 14 15 15 15 15 15 15 15 16 19 21 27 27 22 22 26 28 23 21 27 36 28 26 21 23 24
29 23 17 12 10 10 9 8 7 10 12 14 14 13 13 13 13 15 16 16 16 16 15 15 16 18 20 24 25 27 27 27 24 23 22 24 35 26 24 23 25 26 25
26 22 18 13 10 11 9 8 9 12 13 13 13 13 13 13 15 16 16 16 16 16 15 16 18 20 20 21 26 27 29 28 23 23 28 28 23 23 22 23 24 24 22
22 19 16 12 10 11 10 10 12 13 13 12 12 13 13 16 15 16 17 16 16 16 17 18 19 21 21 22 22 24 26 26 27 31 20 20 21 23 22 20 20 21 21
21 19 14 11 10 10 11 12 13 14 13 13 12 13 14 15 16 17 16 16 17 20 20 20 20 21 22 22 25 24 20 23 28 20 17 15 19 19 17 18 19 20 20
18 15 12 10 10 11 11 12 14 14 14 12 12 14 16 17 16 16 16 21 23 24 23 24 23 21 24 26 26 25 26 28 23 17 16 17 20 18 17 18 19 20 21

GFSMW_sfc_dewp_018.txt.gz
Dewpoint
40 41 42 43 44 46 48 53 56 57 56 57 57 56 52 51 48 47 44 43 43 43 44 44 42 43 43 43 42 43 43 43 44 42 43 45 47 50 48 52 54 52 52
38 40 41 42 42 43 44 46 51 56 58 58 56 50 48 46 46 45 44 42 40 40 39 41 40 41 40 41 41 42 42 41 41 40 41 38 39 40 43 42 40 43 44
37 39 41 43 44 45 45 45 46 48 48 48 47 47 47 47 45 43 42 41 39 38 38 39 39 39 40 39 40 39 41 38 39 39 39 38 37 40 38 38 38 38 42
38 39 41 43 45 46 47 47 46 46 47 47 46 46 44 43 42 41 40 39 38 35 32 33 34 34 34 34 35 32 35 35 35 36 34 39 38 36 36 35 38 38 39
39 40 42 44 45 47 47 47 46 45 44 44 43 42 42 41 40 37 36 35 34 32 28 28 29 29 28 29 30 29 30 31 32 32 34 36 37 36 36 36 32 33 32
39 41 43 44 46 47 47 46 44 43 43 42 41 41 39 36 34 33 29 28 26 26 25 23 23 24 25 25 24 26 29 33 32 31 33 36 36 34 32 29 30 31 30
40 41 42 43 44 46 46 44 42 40 39 38 37 35 34 32 29 26 23 21 19 21 21 21 19 19 21 21 22 27 31 34 30 31 33 33 27 26 25 26 29 31 32
40 41 42 44 44 45 43 42 40 39 36 34 31 29 28 26 22 20 19 16 16 17 19 18 16 17 17 17 19 22 26 28 26 24 27 28 24 26 29 32 35 35 34
41 41 42 43 43 42 41 40 39 37 34 30 26 22 20 19 18 16 15 15 15 12 14 15 15 15 15 15 18 18 17 19 20 21 24 23 24 28 29 30 34 33 30
40 41 41 43 42 40 40 38 36 33 30 25 21 18 15 12 13 13 13 14 12 13 13 12 12 12 12 12 13 14 15 15 18 19 21 23 24 26 25 25 24 25 26
40 40 41 43 40 39 37 34 34 31 26 21 18 16 13 10 10 10 11 11 11 11 10 10 10 9 10 10 11 11 13 16 18 20 21 22 25 22 20 22 21 22 23
40 40 42 41 38 37 34 31 31 28 23 18 14 13 12 11 10 10 11 10 9 10 10 10 9 9 10 11 10 11 14 16 18 19 21 21 19 21 21 20 21 24 25
40 40 42 40 37 34 31 29 28 25 19 15 12 11 11 11 10 10 11 10 10 10 10 11 10 10 12 12 12 11 15 18 19 20 20 21 21 20 21 22 24 25 25
40 40 41 40 37 33 29 26 25 21 15 12 12 12 12 12 12 12 12 11 11 11 12 11 11 12 11 12 10 16 19 19 20 21 22 21 21 21 22 23 24 27 27
39 40 41 39 36 32 28 25 21 17 12 10 12 13 13 13 13 13 13 12 13 12 13 13 11 11 12 7 18 21 21 21 21 21 20 21 24 28 27 25 28 29 27
38 40 41 40 35 31 27 25 18 13 11 10 10 12 12 13 15 14 13 13 13 13 13 12 11 10 9 21 25 26 23 22 21 20 19 19 23 24 29 31 30 28 28
38 40 41 39 34 30 28 23 14 10 9 9 9 10 11 13 13 13 12 13 13 13 13 11 11 10 12 21 26 28 23 22 20 19 19 18 17 25 26 27 28 30 35
38 41 40 37 32 28 24 15 11 9 8 9 8 10 12 11 11 10 10 12 12 12 11 10 11 13 11 22 25 28 22 20 19 19 19 19 22 26 24 24 28 32 24
39 40 39 33 28 24 18 14 9 7 7 8 8 10 10 10 10 10 11 11 12 12 11 12 12 12 12 22 25 25 21 19 19 19 19 23 24 25 27 28 32 26 23
39 37 32 28 25 18 13 12 8 5 6 8 10 10 10 10 9 11 12 12 12 12 12 11 11 16 13 22 25 25 21 20 19 21 23 26 23 26 30 29 21 25 21
34 30 27 25 20 14 10 8 7 6 8 10 11 11 10 10 10 11 12 12 12 12 11 10 11 13 17 19 25 26 21 21 24 26 23 21 26 29 26 25 20 22 22
30 27 25 21 15 12 10 8 5 9 10 11 11 11 10 10 10 12 12 11 11 11 10 10 14 16 16 22 24 26 26 26 25 23 22 24 29 24 23 22 25 24 24
28 26 24 18 13 11 8 6 8 11 11 11 10 10 10 10 12 11 11 10 10 10 11 13 15 16 17 17 24 25 27 28 23 21 26 28 23 22 21 23 23 23 21
28 25 21 17 13 11 10 9 11 11 11 9 9 10 10 12 11 12 11 10 10 12 14 16 17 18 18 18 20 23 25 25 24 29 26 21 20 20 21 19 19 20 21
26 24 23 19 12 9 9 10 11 12 10 9 9 10 11 11 11 10 10 12 14 19 19 20 20 20 20 20 24 25 21 23 26 24 18 15 15 17 17 18 19 20 20
25 23 19 12 9 9 9 11 12 12 12 10 10 11 13 11 10 10 11 18 21 23 23 24 23 20 23 25 25 24 25 28 25 18 15 16 19 18 17 17 18 20 22

GFSMW_sfc_dewp_021.txt.gz
Dewpoint
39 41 43 44 45 49 53 55 55 56 56 57 57 54 51 49 47 45 43 42 41 41 42 42 40 41 41 41 40 42 43 43 42 41 42 42 41 42 42 42 40 41 41
38 40 40 41 41 44 48 53 55 56 57 53 52 50 47 46 45 45 42 40 38 38 38 39 39 39 39 39 39 39 39 39 39 37 38 36 36 40 38 36 37 38 39
37 39 40 43 44 44 45 47 48 48 49 49 49 48 47 47 43 42 41 39 36 33 33 34 34 34 35 36 36 35 37 34 35 35 35 33 31 35 35 35 35 35 34
37 38 41 43 45 46 46 46 46 46 46 47 46 45 43 41 40 40 39 37 35 31 27 28 28 29 30 29 31 27 30 31 32 34 28 36 35 33 32 32 32 31 28
37 39 42 44 45 47 47 46 44 43 43 42 42 41 40 39 38 36 34 32 31 28 25 23 25 24 25 26 27 27 28 28 32 32 31 32 33 34 30 26 27 27 26
38 41 43 45 47 47 46 45 43 41 41 41 40 39 38 36 35 33 30 28 25 25 24 21 21 21 23 24 23 26 28 30 34 32 30 30 33 30 26 25 26 27 29
39 41 42 44 45 45 45 42 40 38 38 37 35 35 34 33 30 27 24 22 21 21 21 19 17 18 22 21 23 27 32 32 33 30 27 26 28 28 25 26 27 28 30
40 41 42 44 45 45 42 41 39 36 34 33 31 30 30 27 24 21 20 18 17 17 17 16 15 15 16 16 19 24 28 29 27 27 25 25 25 25 26 27 28 28 26
40 40 42 43 44 43 42 41 38 35 32 30 27 24 22 21 20 18 17 17 15 11 13 14 13 13 13 13 18 20 18 19 21 22 24 23 24 26 26 29 28 26 22
39 40 42 43 42 41 40 39 36 33 30 27 25 21 18 15 15 15 14 13 11 11 12 11 11 11 11 12 14 15 16 15 18 19 21 22 23 23 27 28 25 24 23
39 40 41 42 41 40 39 36 33 30 27 25 22 20 16 14 14 13 11 10 9 9 9 9 9 9 10 10 12 12 14 13 17 20 21 22 22 23 22 24 24 24 24
40 40 41 42 40 39 36 34 33 29 27 22 19 18 17 16 14 11 10 9 8 9 9 9 10 10 10 11 11 12 12 13 16 19 20 21 18 22 23 23 23 24 24
40 40 41 40 39 37 34 32 31 27 23 19 18 17 16 15 12 10 10 9 10 10 10 11 12 11 12 12 11 11 11 15 18 19 20 21 22 21 22 22 23 24 24
40 40 41 40 38 36 33 30 29 25 20 18 17 16 15 13 13 12 12 11 11 12 13 13 13 13 11 12 12 12 17 19 19 21 22 22 21 20 21 22 24 26 28
39 40 41 40 38 35 32 29 27 21 17 15 15 15 15 13 12 13 13 12 13 13 14 14 13 13 14 9 16 19 20 21 21 21 20 20 25 27 25 21 25 27 29
39 39 41 40 38 34 31 27 23 19 16 13 12 13 12 12 14 13 13 13 14 14 15 14 13 13 11 21 24 23 22 22 21 21 20 19 25 23 26 28 29 28 25
38 40 41 41 38 34 30 26 21 16 14 12 10 9 10 11 12 12 12 13 14 14 14 13 13 12 13 22 24 26 22 22 21 19 19 18 17 23 24 28 29 28 29
38 40 41 40 36 32 29 22 17 14 12 11 9 9 10 9 10 10 10 13 12 13 12 12 13 14 11 21 23 25 22 21 21 19 19 19 21 24 25 23 28 30 29
40 41 41 37 33 29 23 19 15 12 10 9 8 8 8 9 9 10 11 12 12 13 12 13 13 12 11 21 23 24 21 21 20 20 20 22 22 26 28 27 30 23 20
40 40 37 32 29 24 20 18 13 9 8 8 8 8 9 9 9 10 11 13 13 13 13 12 11 15 11 21 24 24 21 21 21 22 24 27 23 27 30 26 20 21 19
36 33 31 29 24 19 18 15 10 9 7 9 9 9 9 9 10 12 12 13 12 13 11 10 9 11 15 17 24 25 21 21 22 26 23 22 26 29 29 25 19 20 25
32 30 28 23 20 17 17 12 8 8 9 10 10 10 10 10 10 12 12 11 11 11 9 9 12 15 15 22 23 25 25 25 23 23 22 22 32 26 23 22 23 24 23
30 28 26 21 18 15 11 10 9 9 9 9 9 9 11 11 11 11 11 11 10 9 8 11 15 17 18 18 24 25 26 27 22 21 24 32 24 22 20 22 23 22 19
29 28 25 21 17 14 10 9 9 10 9 8 8 11 11 12 11 13 11 9 9 11 13 16 18 20 20 20 20 20 23 25 24 28 30 21 20 21 20 19 19 18 19
30 28 26 22 18 12 9 8 10 10 10 9 10 11 12 11 12 11 9 9 11 17 18 20 20 20 19 19 23 23 20 23 26 24 19 16 15 16 17 17 17 18 19
29 28 27 21 13 9 8 9 10 11 11 11 12 12 13 11 11 9 9 17 20 21 21 22 21 19 23 25 25 24 25 27 25 18 15 16 17 17 16 16 17 19 21

GFSMW_sfc_dewp_024.txt.gz
Dewpoint
40 41 44 46 50 54 54 55 56 56 57 57 56 51 49 46 45 44 41 40 40 41 40 42 41 41 40 40 37 39 38 38 39 38 35 37 36 36 35 30 30 35 34
39 41 42 43 46 51 54 55 56 54 52 52 50 49 46 46 45 44 40 37 35 35 33 35 36 34 36 35 34 33 35 35 35 34 33 33 32 34 30 34 35 32 35
38 39 41 44 44 46 48 48 49 49 49 48 47 46 47 46 43 42 40 37 32 30 30 30 30 31 32 32 31 31 30 31 33 32 32 32 31 30 32 31 33 28 26
38 40 42 45 45 46 47 47 47 47 48 48 47 45 43 41 41 40 39 37 31 28 26 27 27 27 29 27 28 26 28 29 31 34 30 31 32 29 29 33 28 27 24
38 41 44 45 46 47 46 44 43 43 43 43 42 42 40 40 38 36 33 30 30 27 24 24 25 24 27 25 25 25 27 29 31 34 32 30 31 30 31 27 24 24 25
39 42 45 46 47 47 45 43 41 41 41 40 39 38 36 35 34 30 29 28 27 28 24 22 21 21 23 24 24 24 25 29 31 33 30 30 27 24 26 26 23 22 23
40 43 44 46 45 45 43 41 40 38 37 36 34 34 32 29 26 25 24 22 22 23 20 19 18 19 20 21 21 25 26 29 28 30 26 29 26 25 26 23 23 23 24
41 42 44 45 45 44 41 39 37 34 33 31 29 28 28 27 24 21 21 19 19 18 17 17 16 15 16 17 17 23 26 23 24 20 24 24 24 26 24 24 24 22 25
41 41 43 44 44 42 41 38 35 33 30 28 25 21 20 19 19 17 17 18 16 12 13 14 13 14 14 14 16 20 18 17 18 20 21 22 23 25 25 25 25 26 21
40 41 43 44 43 42 40 37 34 31 29 26 23 19 16 15 15 15 13 13 11 12 12 12 12 12 13 13 13 16 17 15 17 17 18 19 22 22 23 26 24 24 22
39 41 42 42 41 40 39 34 31 29 27 24 21 18 16 16 15 13 12 10 11 10 11 11 11 12 13 12 13 13 13 13 15 16 17 20 20 21 22 23 24 23 23
40 41 42 41 40 39 36 33 30 28 25 21 19 19 18 16 13 11 11 11 10 11 11 12 13 13 14 14 13 12 13 13 15 17 19 19 19 21 22 23 21 22 23
40 40 42 40 39 37 35 33 29 26 22 20 19 18 16 14 12 12 12 12 12 12 13 14 15 15 16 15 13 13 13 17 18 20 21 21 21 21 22 21 21 21 21
39 40 41 39 38 36 33 31 27 23 20 19 18 17 15 14 13 13 14 14 13 13 15 15 16 17 16 15 14 15 17 19 20 22 22 22 21 21 20 20 20 22 25
39 40 41 39 37 35 32 29 25 21 18 18 19 17 16 14 14 16 16 15 15 15 16 17 16 16 15 11 15 18 19 20 21 22 22 22 24 28 25 20 22 24 23
39 40 41 39 36 33 30 27 23 19 18 16 16 16 14 13 16 15 15 14 15 15 16 16 15 15 12 22 25 22 19 20 21 22 21 20 23 23 27 28 28 26 27
39 40 41 39 36 33 27 24 20 17 15 14 12 12 12 13 14 13 13 14 14 14 14 14 13 13 14 23 24 25 19 21 21 21 20 19 18 23 22 27 30 34 33
39 41 41 39 34 31 28 20 18 16 15 13 11 12 12 11 12 11 11 12 13 13 13 13 13 13 12 22 23 24 20 21 21 21 21 21 21 23 24 24 29 29 28
40 41 39 35 31 26 19 18 15 13 13 12 9 9 10 10 11 11 11 12 13 13 13 13 13 12 10 21 23 22 19 20 20 21 22 23 24 27 28 26 30 26 22
40 37 34 30 27 21 19 15 14 11 10 10 10 9 10 10 10 10 12 13 13 13 13 11 11 16 10 21 24 23 20 20 20 22 24 28 25 27 30 26 21 21 18
34 32 30 28 22 21 19 14 10 10 9 10 10 11 11 10 10 12 13 13 12 13 12 10 9 11 14 17 25 26 20 20 21 26 24 24 26 31 29 26 18 19 22
32 30 23 21 19 19 16 13 9 9 10 11 11 12 11 11 11 12 13 12 12 11 10 9 12 15 17 24 24 26 26 25 23 23 21 21 30 25 24 21 24 24 23
30 26 22 20 17 16 13 11 10 10 10 10 9 10 11 12 12 12 12 11 11 10 10 12 15 18 20 20 25 26 27 27 23 21 25 30 25 22 19 22 23 22 18
29 25 21 18 15 12 10 10 11 11 10 9 9 11 12 14 12 14 13 11 9 11 12 15 17 18 18 19 19 20 23 24 23 28 28 22 20 21 20 18 18 17 18
30 27 24 19 16 12 10 11 11 11 11 10 11 12 14 13 13 13 10 9 11 16 16 17 17 17 18 18 23 22 19 21 25 22 18 14 15 16 15 16 16 18 20
29 28 26 17 13 10 9 11 12 12 12 12 14 14 15 14 14 11 10 18 20 22 22 22 20 17 22 24 24 23 24 26 24 17 14 16 16 16 16 17 19 20 22

GFSMW_sfc_dewp_027.txt.gz
Dewpoint
41 43 46 49 53 54 55 56 57 57 57 51 48 45 44 42 41 38 36 35 36 35 35 37 35 35 36 33 31 34 33 34 34 35 30 34 34 31 29 22 34 31 33
41 43 44 47 51 53 53 54 53 52 52 51 49 47 44 43 42 40 34 31 30 31 29 31 32 30 32 29 28 29 31 33 32 33 32 30 32 32 24 31 29 31 28
40 41 42 45 47 48 49 49 49 48 47 46 45 44 45 43 41 39 36 30 27 27 28 27 27 28 30 28 26 27 28 29 32 33 31 28 29 26 31 25 31 28 26
40 41 43 44 45 46 47 47 48 47 47 46 46 44 41 40 40 39 36 31 26 24 25 25 25 25 28 24 26 25 27 29 29 33 32 30 30 29 26 31 23 27 26
40 42 44 45 46 45 43 42 42 43 43 42 42 41 39 39 37 33 30 28 25 23 23 22 23 23 25 23 23 24 24 26 29 30 32 28 29 29 26 20 22 25 24
42 44 46 46 45 43 42 41 40 39 39 39 38 37 35 31 28 26 26 26 25 25 21 20 19 19 21 21 21 23 22 25 28 27 30 28 25 25 22 20 21 22 20
43 45 45 44 44 42 40 39 37 36 34 33 32 30 26 24 23 23 21 20 20 20 18 17 16 17 18 19 19 22 23 25 24 24 23 24 27 25 22 23 21 19 21
44 45 45 44 43 41 39 36 34 32 30 28 27 26 24 24 22 20 19 18 17 17 15 14 14 14 15 15 17 21 23 20 21 17 18 23 22 23 24 22 22 21 19
43 44 45 44 43 40 37 35 32 30 28 25 22 19 19 18 17 16 16 16 14 12 12 12 12 13 14 14 16 19 16 17 17 18 20 20 19 23 25 25 24 23 21
42 44 44 44 42 39 36 33 30 28 26 22 18 16 15 15 14 13 11 11 11 11 11 12 12 13 14 14 14 16 17 16 17 17 18 18 20 21 22 24 26 24 22
41 43 44 42 41 38 35 31 28 26 24 20 17 16 16 14 13 11 11 10 11 11 11 12 13 13 14 14 14 14 14 14 16 18 18 20 20 22 22 23 23 24 24
41 43 43 41 39 37 32 29 28 25 22 20 18 18 16 13 11 11 11 12 11 12 12 14 14 15 16 16 15 14 14 15 17 19 21 20 21 22 22 22 22 22 21
41 42 40 39 38 35 32 29 26 22 21 20 18 17 15 13 12 12 13 13 13 13 14 15 16 16 18 18 16 14 14 17 19 21 21 22 22 22 22 22 21 22 21
41 41 40 39 37 35 32 27 24 21 20 19 18 16 14 13 13 14 15 15 14 14 15 16 17 18 17 17 16 15 18 19 20 22 23 22 22 22 22 21 21 22 23
40 41 39 38 36 34 30 25 21 20 19 19 19 17 15 14 15 16 15 15 15 15 17 17 17 17 16 12 17 18 19 19 20 22 22 22 25 27 25 21 21 22 23
40 41 39 38 35 31 27 22 20 19 19 17 17 16 14 14 15 14 14 14 15 15 15 15 15 15 13 23 25 23 18 19 20 21 21 22 24 24 28 28 28 27 25
40 40 39 37 34 29 25 20 18 17 15 15 13 14 14 13 14 13 13 13 13 14 14 14 14 13 14 23 24 25 18 20 21 21 21 21 20 25 23 28 29 29 32
40 41 39 36 32 27 22 18 16 15 15 14 13 13 13 11 12 11 11 12 13 13 13 13 14 14 12 23 23 25 19 20 21 21 21 21 23 26 25 23 25 30 30
41 41 37 32 28 22 18 16 15 15 14 12 10 10 10 10 11 10 10 12 13 13 13 13 13 12 12 22 24 23 20 20 20 21 22 25 24 27 27 25 30 26 24
36 32 29 24 19 18 15 13 13 12 11 10 11 9 10 10 10 10 11 13 13 13 14 12 12 16 12 22 25 24 21 21 20 24 26 27 23 26 31 26 22 20 17
31 29 25 21 19 16 15 13 11 10 10 11 11 11 11 10 10 12 12 13 13 13 12 11 10 12 16 20 26 26 21 21 26 25 22 21 26 34 26 25 17 18 22
28 25 21 20 19 16 13 12 9 10 11 12 11 11 10 11 12 12 13 13 12 12 10 10 13 15 18 24 24 26 26 27 22 22 21 22 31 24 23 21 24 24 23
23 22 19 18 16 14 11 9 9 11 10 10 9 10 12 12 13 12 13 13 12 10 10 12 15 17 18 19 24 26 26 25 21 23 26 27 23 22 19 22 23 23 18
23 20 17 15 12 12 11 11 11 11 10 9 10 12 13 16 13 14 13 11 10 12 14 16 17 17 17 18 19 19 20 23 27 27 22 20 20 21 20 18 18 18 21
23 20 18 15 12 10 11 11 11 11 10 11 12 13 15 14 14 14 11 13 13 18 17 18 17 17 17 17 22 22 19 22 24 21 16 14 15 16 16 16 17 18 20
26 23 20 16 12 10 11 12 13 13 12 12 14 15 16 15 14 12 13 19 20 22 22 22 20 17 22 24 24 24 26 25 23 17 14 15 17 16 15 16 18 19 20

GFSMW_sfc_dewp_030.txt.gz
Dewpoint
40 42 47 51 54 54 55 56 57 55 49 47 44 43 41 38 36 34 33 33 32 32 32 34 31 33 30 28 28 29 31 31 33 33 31 32 34 29 22 27 29 29 28
41 44 48 51 54 54 55 55 55 53 50 47 45 42 41 39 35 32 29 28 28 28 27 29 29 28 28 25 26 27 28 29 32 31 32 29 30 29 18 28 26 28 24
41 44 47 50 51 51 51 50 50 48 46 44 42 41 39 39 36 34 30 26 25 26 26 26 26 27 27 26 25 26 27 27 30 30 29 25 25 25 28 22 26 19 26
42 43 46 47 48 48 48 48 47 46 45 44 41 39 38 37 38 36 30 26 23 23 23 24 24 24 26 22 24 25 24 26 27 30 30 30 29 25 24 27 22 24 19
41 43 46 46 46 46 45 45 45 45 45 44 41 40 38 38 36 32 27 23 22 22 21 21 21 21 24 21 20 22 21 24 28 27 29 29 27 28 28 19 19 19 21
41 44 45 45 43 42 42 42 42 42 41 40 38 37 34 30 28 27 26 24 23 22 19 18 18 18 19 20 20 20 20 22 23 24 25 25 23 24 21 16 17 19 19
43 44 44 42 41 40 39 38 38 36 36 34 32 29 27 24 22 22 21 19 18 19 16 16 14 16 17 17 18 20 21 22 21 19 20 22 25 26 20 20 19 18 20
43 44 43 41 40 38 37 35 33 31 30 28 25 23 22 24 22 19 19 17 16 16 14 13 13 13 15 15 16 20 21 19 19 16 17 21 22 23 21 22 22 19 18
44 43 42 41 39 37 35 32 30 28 26 24 22 20 19 19 17 15 15 15 13 11 12 12 12 13 14 15 16 19 16 16 17 17 19 19 21 22 22 23 24 23 20
44 43 42 41 38 35 33 30 28 25 22 19 17 17 16 15 13 12 10 10 11 11 12 12 13 14 15 15 15 16 17 15 17 17 18 19 21 21 23 24 24 23 22
44 43 42 40 37 34 31 28 26 22 19 17 16 16 15 13 12 11 10 10 11 11 12 13 14 14 15 15 15 15 15 14 16 18 19 21 22 22 22 24 24 23 23
44 44 42 39 35 32 30 27 24 21 19 18 17 16 14 12 11 11 12 12 11 12 13 14 15 15 16 17 16 16 15 14 17 19 21 22 20 21 23 23 23 23 23
43 43 41 38 35 31 28 26 23 20 20 19 17 15 14 13 12 12 13 13 13 13 14 15 16 17 19 18 17 16 15 17 18 20 21 22 22 21 22 23 23 22 22
42 42 40 38 34 30 28 25 21 20 19 18 17 15 14 13 13 14 14 15 14 14 15 16 17 18 17 17 16 17 19 19 19 21 23 23 22 22 22 22 21 23 22
42 41 39 38 33 30 26 22 20 19 19 18 18 16 15 15 15 15 15 14 15 15 16 16 16 16 16 11 19 20 20 19 19 20 21 22 24 27 25 22 22 22 24
41 40 39 37 33 29 25 20 19 20 19 19 18 17 15 15 15 14 14 13 14 14 15 14 14 15 13 23 25 23 19 19 19 20 21 21 24 24 28 28 28 27 23
41 40 38 37 33 27 22 19 18 18 17 17 15 14 15 14 14 13 12 12 13 13 13 13 13 13 14 23 25 26 21 20 20 20 20 20 20 25 25 28 27 28 30
41 40 38 35 31 25 21 18 17 16 16 14 14 15 14 11 12 11 11 11 12 12 13 13 13 14 12 23 26 27 22 21 21 21 21 22 24 24 22 21 25 30 25
41 40 37 31 26 20 18 16 15 15 15 13 12 11 11 10 10 10 10 11 12 13 13 13 13 11 13 23 25 25 21 21 21 21 22 26 23 25 27 30 25 22 20
37 33 29 25 20 18 16 15 14 13 12 11 11 10 11 10 10 10 11 12 13 13 14 12 11 16 13 21 25 24 21 20 20 23 27 26 23 27 31 21 19 18 16
27 26 24 21 17 15 14 13 12 11 11 11 11 11 11 10 11 12 12 13 13 13 11 11 11 11 15 19 25 26 21 20 26 24 20 20 28 28 25 24 17 19 23
24 22 20 17 15 15 14 12 9 11 12 12 11 11 10 11 12 12 13 13 12 11 11 11 13 15 17 24 24 25 26 26 20 21 23 25 27 24 23 22 24 25 23
22 21 19 16 15 14 11 10 10 11 11 10 9 11 12 13 13 13 13 12 12 12 12 14 17 17 18 18 24 25 26 24 22 24 25 25 23 22 20 22 24 22 18
20 19 16 14 13 11 11 10 11 11 10 9 11 13 13 16 14 14 13 12 13 14 16 17 17 17 17 18 18 20 20 24 24 25 21 20 20 21 20 18 17 17 18
19 18 15 12 11 11 11 11 11 11 10 11 12 13 15 15 14 13 12 15 16 19 18 18 18 17 17 18 22 21 19 21 22 21 16 14 15 15 15 15 16 17 18
20 18 15 11 11 11 11 12 13 12 12 11 13 15 17 14 14 13 14 19 20 22 21 22 20 18 22 23 23 24 24 24 23 17 14 15 16 16 15 16 17 18 19

GFSMW_sfc_dewp_033.txt.gz
Dewpoint
37 40 42 47 50 52 52 51 54 49 49 47 44 42 40 37 35 33 31 30 30 31 30 31 30 29 26 25 25 27 27 29 31 29 29 31 32 29 22 27 24 25 23
39 41 45 51 53 53 54 55 52 49 49 46 43 41 38 34 31 30 27 27 26 27 26 28 27 25 25 24 24 25 26 27 30 30 31 26 25 28 20 26 27 21 24
38 41 47 51 52 53 54 54 51 48 45 42 39 36 33 32 29 27 26 25 24 25 25 25 25 25 25 24 24 24 24 24 27 29 24 19 21 27 26 21 26 19 25
38 41 48 50 51 52 51 50 48 45 42 41 38 36 34 32 35 30 25 23 22 22 23 23 22 23 24 21 22 22 22 25 25 27 26 28 29 22 20 25 20 22 15
40 43 48 50 50 49 48 47 46 44 43 41 39 38 37 35 32 26 22 20 21 20 20 20 20 20 22 20 20 19 19 23 25 25 26 27 26 26 25 17 18 15 15
40 44 47 47 45 45 45 45 45 43 42 40 39 37 34 30 27 26 24 22 21 21 19 17 17 17 19 18 19 19 18 20 21 22 21 22 21 23 21 17 15 14 14
42 45 46 45 43 43 43 43 43 40 38 36 35 32 29 27 24 23 22 19 17 18 15 14 14 16 16 17 18 19 20 20 19 18 18 22 22 24 22 18 17 15 17
43 45 45 44 42 41 41 40 38 35 32 30 27 25 24 24 22 20 19 17 16 16 13 13 13 14 15 15 16 19 20 19 18 15 16 20 21 22 22 21 20 19 17
43 45 43 41 40 38 37 36 33 30 27 24 22 21 21 19 17 15 15 15 14 12 12 13 13 14 15 15 16 19 16 16 16 17 18 19 21 23 23 23 23 22 19
43 43 41 39 37 35 32 31 29 26 23 20 19 17 15 14 13 12 11 11 11 12 12 13 14 15 15 16 16 17 18 16 17 17 18 19 21 23 24 25 24 24 22
43 41 40 38 35 32 30 26 23 21 19 18 16 15 14 12 11 11 11 11 12 12 13 14 14 15 16 16 16 16 16 15 16 17 19 20 22 23 22 23 24 24 23
42 41 38 35 33 30 27 24 20 18 17 17 16 15 13 12 11 11 12 12 12 13 14 15 15 16 17 17 16 16 16 16 16 18 19 20 20 22 22 23 23 23 23
42 40 37 34 31 29 25 22 19 18 18 17 15 14 13 12 12 13 13 13 13 14 15 16 16 16 18 17 16 15 16 17 18 19 20 20 21 22 22 22 22 23 23
42 40 37 34 31 27 25 21 19 18 18 17 16 15 14 13 14 14 14 14 14 14 15 16 16 16 16 16 15 18 19 20 19 21 21 21 22 22 22 22 22 24 23
41 40 37 34 30 27 23 20 19 19 18 17 18 17 15 15 15 15 15 14 15 14 15 15 15 15 15 11 20 21 21 20 19 20 20 21 24 26 25 22 21 22 24
41 40 37 33 29 26 22 20 19 19 19 18 18 17 16 16 16 15 13 13 13 14 14 14 14 14 13 23 25 25 23 21 20 20 21 21 24 24 28 28 28 26 22
41 40 37 33 30 25 21 19 19 19 18 17 16 16 16 16 15 13 12 12 12 13 13 13 13 13 13 22 26 27 23 21 21 21 21 21 20 25 25 27 27 30 32
41 40 37 34 28 23 20 19 18 18 17 16 15 16 15 13 12 11 10 11 12 12 13 13 13 13 11 24 25 27 22 22 22 21 21 21 22 26 23 24 31 24 22
40 39 36 31 25 21 18 17 17 16 15 14 13 13 12 11 10 10 11 11 12 13 12 13 12 11 12 23 25 25 21 21 21 21 22 25 25 25 28 27 23 19 18
39 34 30 25 21 18 17 16 15 14 13 12 12 11 11 10 10 11 12 12 13 13 13 11 11 16 13 22 25 24 21 20 20 25 26 25 23 27 30 21 19 18 17
31 28 26 23 18 16 16 14 13 12 12 12 12 12 11 11 12 12 13 13 12 12 12 12 12 13 16 20 25 25 21 20 21 19 21 22 27 29 25 25 18 19 24
26 23 19 17 16 16 15 13 12 12 12 13 12 11 12 12 12 13 13 12 12 12 12 13 15 17 17 23 23 25 25 25 19 21 22 23 27 24 24 22 25 26 23
22 20 17 15 15 15 13 11 11 12 11 10 11 12 13 13 13 13 12 12 13 14 14 15 17 17 18 18 24 25 26 24 23 22 23 25 24 22 20 22 24 23 17
19 18 16 15 12 12 11 11 12 11 10 10 12 13 14 15 14 14 13 13 15 16 17 17 17 18 17 18 19 20 20 24 22 24 21 21 20 21 20 18 17 16 17
19 18 16 13 11 11 11 11 11 10 10 11 12 14 16 14 14 13 13 17 17 19 18 19 18 17 17 18 23 22 20 21 22 21 16 14 14 15 15 15 16 16 17
17 15 13 11 11 11 11 12 12 12 11 12 13 16 16 14 14 14 14 19 20 22 22 22 20 18 22 23 24 24 25 24 24 17 14 15 15 15 15 15 16 17 18

GFSMW_sfc_dewp_036.txt.gz
Dewpoint
40 39 39 42 44 47 49 52 54 52 51 48 46 44 41 37 35 33 31 31 30 29 29 29 26 26 24 24 23 25 23 27 30 27 28 29 29 30 25 25 25 22 22
39 39 41 47 49 50 51 53 51 50 50 49 44 41 45 35 31 30 27 27 26 27 25 26 25 23 24 23 22 22 22 25 29 26 28 22 21 25 19 23 26 21 24
40 39 42 48 51 52 53 53 50 48 45 41 37 33 33 29 27 26 26 25 24 25 24 24 24 23 24 24 23 22 23 23 25 29 22 14 15 26 24 23 27 19 22
40 39 42 49 51 52 53 51 48 45 42 41 38 36 34 29 29 26 24 22 22 23 23 22 22 22 23 21 22 20 21 23 23 24 24 26 28 19 18 23 19 20 15
39 39 43 47 51 51 51 48 45 43 41 39 38 36 34 30 26 23 20 19 20 20 20 20 20 20 22 19 18 18 19 22 22 23 24 24 24 24 24 16 18 16 15
39 40 44 50 49 49 48 46 44 42 41 39 38 35 28 24 22 22 20 21 21 21 18 17 17 18 19 18 19 18 17 19 19 20 20 21 20 21 19 17 16 16 15
39 44 47 49 47 47 46 45 43 41 40 38 35 31 26 24 22 21 20 18 17 18 14 14 15 17 17 17 18 19 19 19 18 16 17 21 21 22 22 20 18 16 17
41 44 47 48 47 47 46 44 42 38 36 34 30 28 26 26 23 21 19 17 16 16 13 14 14 15 15 16 17 20 20 18 17 15 16 19 20 21 22 21 20 18 16
42 45 47 47 46 45 43 41 38 33 31 28 26 23 22 21 18 15 16 16 15 13 13 14 14 15 15 16 17 19 16 16 16 16 17 19 21 22 23 23 23 21 17
43 45 46 43 43 41 38 36 33 29 25 23 21 18 16 15 14 13 12 12 12 13 14 14 15 15 16 16 16 17 17 15 17 17 17 18 21 22 24 24 24 24 22
43 44 42 39 36 35 33 29 26 23 20 18 16 14 13 11 11 11 12 12 13 13 14 15 15 15 16 16 15 15 15 16 17 17 18 20 20 22 23 24 23 23 23
42 40 37 35 34 30 28 25 22 20 18 16 14 13 12 12 11 12 12 13 13 14 14 15 15 15 16 16 14 14 15 17 18 19 19 20 19 21 22 22 22 23 23
39 37 35 34 30 27 24 21 19 17 17 15 14 13 13 13 12 13 14 13 14 14 15 15 15 15 16 15 14 14 17 18 19 20 20 20 21 21 22 22 22 23 23
39 37 34 31 28 25 21 19 17 17 16 15 14 14 14 13 14 14 14 15 14 14 15 15 15 15 15 15 14 18 20 21 20 21 21 21 21 21 22 22 22 22 21
39 36 33 29 26 22 19 18 18 17 16 16 17 16 16 16 15 15 15 15 15 14 15 14 14 14 14 11 20 22 22 22 20 21 21 21 24 27 26 22 22 22 23
39 36 32 28 25 21 19 18 18 18 18 18 17 17 17 16 16 15 14 14 14 13 14 13 13 13 12 22 25 25 23 23 21 21 21 21 24 24 28 28 28 26 25
39 36 32 28 26 21 19 18 18 19 18 17 16 17 17 16 15 14 13 13 12 13 13 12 13 12 13 23 26 26 23 22 22 21 21 21 21 25 23 28 29 30 31
40 37 33 29 25 21 20 19 19 19 18 16 15 16 16 14 13 12 12 12 12 12 12 12 13 12 12 25 25 26 22 22 21 21 21 21 22 24 25 23 30 26 22
40 37 33 28 23 20 19 18 18 17 16 15 14 13 13 12 12 11 11 12 12 12 12 13 12 12 14 24 25 25 22 21 21 21 22 23 24 26 28 29 25 20 19
39 35 29 25 21 19 18 17 16 15 14 13 13 12 12 12 11 12 12 13 12 12 12 12 13 18 15 23 25 24 21 21 20 21 21 25 24 27 31 21 19 19 17
33 29 27 24 19 18 17 16 15 14 13 12 12 12 12 12 12 12 12 12 12 12 12 13 15 15 17 20 25 25 21 21 21 19 20 22 26 27 26 25 18 19 24
29 25 21 18 17 17 16 15 13 13 12 13 12 13 13 12 12 12 12 11 12 13 14 15 16 17 18 23 24 25 26 25 20 20 22 21 26 25 24 22 25 26 23
23 21 19 16 16 17 15 13 12 12 12 11 12 13 14 13 13 12 12 12 14 15 15 16 18 18 18 18 24 26 26 25 23 22 23 26 24 22 20 22 24 23 17
20 19 17 15 13 13 12 12 12 11 11 12 12 14 17 14 13 14 13 15 15 16 17 18 18 18 18 18 19 20 21 24 24 24 22 21 20 20 20 17 16 16 16
20 18 16 13 11 11 11 11 11 11 11 12 13 15 15 14 13 14 14 16 18 19 19 19 19 18 17 18 22 22 20 22 22 21 17 14 14 15 14 14 15 16 16
17 15 13 11 11 11 11 11 12 12 12 12 14 18 15 14 14 14 15 19 20 22 22 21 19 17 21 23 24 24 25 24 24 18 14 14 15 15 14 15 15 16 18

GFSMW_sfc_dewp_039.txt.gz
Dewpoint
41 42 42 42 43 45 49 50 57 60 57 54 53 50 48 50 44 39 34 34 34 30 29 27 26 26 24 22 20 25 24 25 27 23 24 27 27 32 31 21 26 25 24
40 42 41 42 44 45 49 53 57 56 55 54 51 48 49 47 46 35 32 32 30 27 25 26 25 24 24 22 22 23 23 23 28 21 25 20 19 25 22 27 25 23 22
36 40 41 42 48 49 50 53 53 53 51 45 44 41 42 39 36 30 31 32 26 25 25 25 24 25 25 23 23 24 26 22 26 24 20 16 14 21 21 21 24 19 18
34 38 41 42 48 50 53 53 51 49 46 44 44 43 45 40 35 31 29 25 23 23 23 23 23 23 24 22 22 21 22 24 20 23 20 25 22 15 12 20 19 19 14
33 38 41 43 47 52 54 52 49 46 44 44 45 45 41 37 28 23 21 20 21 22 22 22 23 22 22 21 21 20 21 20 21 21 21 21 20 23 21 12 14 15 16
36 39 42 44 49 53 52 49 47 44 43 42 40 38 32 27 22 21 20 21 19 20 20 20 21 21 21 21 20 20 21 19 21 21 20 19 17 16 16 15 16 17 14
39 41 44 48 50 52 50 47 45 42 41 39 37 33 28 23 21 20 20 18 16 17 18 18 18 19 21 21 21 23 24 23 21 19 18 20 20 20 19 19 17 16 17
39 40 44 48 50 51 48 46 44 41 39 37 32 27 27 25 23 21 19 17 16 16 17 17 17 18 18 18 20 22 22 23 21 18 18 19 20 21 21 20 19 18 15
36 42 46 48 50 50 48 45 42 39 37 33 28 26 24 23 21 19 17 16 16 15 16 18 17 18 18 18 20 20 18 18 19 18 19 19 20 22 22 22 22 20 17
36 43 46 48 49 48 45 42 39 35 32 28 25 23 20 18 17 15 15 15 14 15 16 17 17 17 17 17 17 17 18 17 19 19 19 20 21 21 22 23 23 22 21
39 44 46 46 45 42 40 36 32 29 26 23 20 18 15 14 13 13 13 14 14 15 16 16 16 16 16 15 14 14 16 17 19 20 20 21 21 21 21 22 23 22 22
43 44 41 39 39 36 34 32 28 24 21 19 17 15 14 13 12 12 13 14 14 15 15 15 15 14 15 14 13 14 17 19 20 20 21 21 20 21 21 21 21 22 22
39 37 37 37 35 32 29 26 22 19 17 16 14 14 14 13 13 13 14 14 15 15 15 15 14 14 15 14 13 16 19 21 21 21 21 21 20 19 20 21 22 23 22
37 37 35 33 30 27 24 21 18 17 15 15 15 15 14 14 14 14 14 15 15 15 15 14 14 14 13 13 15 20 22 23 22 22 22 21 21 21 22 23 23 24 23
37 35 32 29 25 22 20 18 17 16 16 16 18 16 16 16 15 16 15 15 15 15 15 14 13 13 14 10 21 23 24 23 23 23 21 21 24 27 27 24 23 23 24
36 33 30 26 23 21 19 18 17 17 18 17 17 18 16 16 16 15 15 15 15 14 14 13 13 12 11 22 25 26 23 23 22 21 21 21 25 25 28 28 28 27 25
35 31 28 25 22 20 19 18 17 18 17 17 17 16 15 15 15 15 14 14 14 13 13 12 12 12 13 23 26 26 23 22 22 21 21 20 20 25 23 27 29 29 34
35 31 29 24 21 20 19 18 18 18 17 16 16 15 15 14 14 14 13 13 13 12 12 12 12 13 13 25 25 26 23 22 22 22 21 21 22 23 25 24 31 30 24
36 32 29 24 21 19 19 19 18 17 16 15 15 13 12 13 13 13 12 13 12 12 12 12 13 14 17 24 25 25 22 21 21 21 22 22 21 25 27 28 28 21 19
35 31 26 23 20 19 19 18 17 16 15 14 13 12 13 13 13 13 13 13 12 12 12 12 15 18 16 23 25 24 21 21 20 22 20 24 24 26 29 24 21 21 17
32 28 25 22 20 19 18 17 16 14 13 13 12 13 13 13 13 13 12 12 12 13 13 14 16 17 18 20 25 25 21 21 22 20 20 22 26 29 26 25 19 19 24
29 26 22 20 19 19 18 16 13 13 13 13 14 14 13 12 12 12 12 12 13 14 14 16 17 18 18 22 23 25 26 25 20 20 22 22 27 25 24 22 24 26 24
25 22 20 18 18 18 16 13 12 12 12 13 14 13 13 13 12 12 12 13 14 15 15 17 17 17 18 18 24 25 26 25 23 24 24 26 25 23 20 22 24 23 16
21 20 18 16 14 15 14 12 12 12 12 13 15 15 14 14 13 14 13 15 15 16 17 18 17 18 17 17 18 20 21 24 25 24 23 22 20 20 20 17 16 15 16
20 19 16 14 12 12 11 11 11 12 12 13 14 15 14 13 13 14 14 17 18 19 18 18 18 17 17 17 23 23 21 23 22 22 18 13 13 14 14 14 15 16 16
17 15 13 12 11 10 10 11 13 13 13 14 16 15 14 14 14 14 14 19 20 21 21 20 19 17 21 23 24 24 26 24 24 18 13 14 14 14 14 14 15 16 19

GFSMW_sfc_dewp_045.txt.gz
Dewpoint
34 35 37 40 40 40 42 44 44 46 49 54 58 60 61 64 64 65 63 60 56 49 45 41 38 37 34 31 29 29 29 29 27 30 31 32 31 34 34 34 28 28 27
28 30 33 37 39 41 44 45 45 47 51 55 58 59 62 59 59 59 57 53 49 44 39 38 36 32 30 28 27 29 29 28 28 25 31 31 29 30 32 31 26 24 26
25 24 25 32 41 42 43 45 45 49 53 56 58 59 55 50 48 48 46 45 43 40 40 40 33 33 33 32 31 31 33 30 29 26 26 26 26 23 26 25 24 23 25
25 26 26 27 33 41 46 47 48 50 54 58 58 57 53 50 46 47 46 43 39 37 35 33 31 30 31 29 28 25 25 30 26 28 20 28 22 19 18 25 22 22 17
24 25 28 32 30 37 46 50 49 51 56 57 58 56 53 53 45 43 39 38 38 32 29 31 32 30 29 26 27 25 24 21 25 24 24 22 22 21 21 20 21 20 21
23 24 28 32 34 39 46 52 51 53 56 57 54 53 55 45 39 37 38 39 36 32 30 27 29 28 28 27 25 25 25 23 25 23 21 21 20 19 21 19 20 20 19
23 25 27 30 33 38 41 51 51 52 54 53 54 54 54 44 40 38 38 33 31 29 28 27 24 26 27 25 26 29 31 29 27 23 20 20 20 21 20 20 20 19 19
26 31 32 33 35 41 42 48 51 51 51 53 53 55 47 44 40 36 30 27 28 26 26 24 22 22 22 22 25 28 27 28 26 23 23 22 20 21 22 22 21 20 19
29 34 35 34 35 40 42 49 51 50 51 52 54 48 45 39 35 28 27 25 25 23 22 23 21 20 20 20 24 23 18 19 20 21 23 23 23 24 24 23 23 22 19
32 35 34 34 32 40 43 50 50 49 50 51 48 43 35 28 24 24 23 23 23 24 21 20 20 19 18 18 17 17 17 16 18 20 20 21 22 22 24 24 23 22 21
33 37 35 33 35 42 46 48 49 48 48 46 39 34 28 22 21 21 22 20 21 20 19 18 17 16 16 14 13 13 14 15 18 20 21 21 21 22 21 22 21 21 21
36 39 39 38 41 46 49 48 47 46 43 38 33 28 23 22 21 21 20 20 19 17 16 15 14 14 13 12 10 11 13 16 18 19 21 21 18 22 21 20 20 21 21
35 40 41 43 45 48 48 46 43 41 36 33 27 23 22 22 21 20 23 20 19 15 15 15 14 13 14 12 10 12 14 17 19 20 21 21 21 20 20 20 21 22 21
39 40 40 42 44 45 43 41 38 34 31 27 24 22 21 19 18 18 19 18 16 16 16 15 14 13 12 12 12 17 19 21 20 22 22 21 21 20 20 21 23 22 22
41 40 41 41 42 41 38 33 31 28 24 25 23 21 21 19 20 19 18 17 17 16 16 15 14 13 15 9 19 21 22 21 20 21 20 20 24 25 25 23 24 24 24
41 40 40 40 35 30 27 25 22 22 22 23 23 21 21 20 20 19 18 18 17 17 16 15 13 13 10 21 24 26 23 21 20 20 19 19 23 22 25 27 27 26 24
39 37 37 32 28 23 21 20 20 22 23 24 21 21 20 20 19 18 18 18 17 16 15 14 13 12 13 19 25 26 23 21 20 19 19 18 17 23 21 24 26 27 29
36 34 31 29 23 22 22 23 25 22 23 22 21 19 19 17 17 18 17 17 16 15 13 13 13 14 12 20 24 26 22 19 19 19 20 20 20 21 22 22 27 28 28
33 30 26 25 25 25 26 26 26 23 21 20 18 17 16 16 16 16 15 15 14 14 13 14 13 13 12 18 22 25 20 19 19 19 19 20 21 23 26 25 28 27 21
30 29 29 31 34 34 33 32 29 27 26 20 16 14 15 15 16 16 15 15 15 15 15 14 12 13 13 16 21 23 20 19 19 20 20 23 21 26 27 24 23 22 19
32 31 29 32 30 29 25 23 21 18 16 14 14 15 15 15 16 16 15 15 15 16 13 13 12 12 13 16 20 23 21 21 21 21 19 20 25 27 28 27 22 21 22
29 27 25 24 23 23 22 20 16 14 14 15 16 15 15 14 14 15 14 14 13 14 11 11 13 13 12 16 18 22 24 25 21 19 20 23 26 27 26 24 24 25 25
28 26 23 23 23 22 19 15 13 14 15 15 15 15 15 14 15 14 15 14 13 11 10 13 13 13 14 12 18 21 23 24 21 21 25 26 26 24 21 21 23 22 18
32 28 26 21 17 15 14 13 14 14 14 14 15 15 14 13 14 17 15 12 11 11 13 12 13 14 13 14 16 19 21 23 23 25 24 23 22 19 18 17 17 17 18
25 24 21 16 14 13 13 13 14 14 14 14 15 16 16 14 14 14 12 11 14 17 15 15 14 14 15 16 23 23 21 23 24 23 20 16 13 15 15 15 17 18 18
23 19 16 14 13 12 13 14 16 17 16 15 16 16 15 13 14 13 10 19 18 18 20 19 18 17 21 23 24 25 25 25 25 19 15 14 16 16 15 16 17 19 21

GFSMW_sfc_dewp_048.txt.gz
Dewpoint
33 34 35 37 36 37 41 44 46 46 47 50 59 62 62 63 65 65 62 62 59 51 45 44 39 38 36 34 30 30 30 29 28 28 28 30 29 32 30 31 29 27 26
29 30 33 36 38 40 40 41 44 46 47 49 55 60 60 58 58 62 62 58 52 48 43 40 36 33 30 28 28 30 29 29 27 24 28 27 27 28 29 32 25 22 22
27 27 27 31 37 38 40 42 45 45 49 53 58 55 55 52 50 49 47 47 46 45 47 46 40 32 34 33 31 31 30 30 27 24 26 24 24 22 25 23 26 20 23
27 28 27 27 29 37 40 43 45 45 49 55 57 57 57 54 50 49 48 45 44 44 43 44 38 33 33 30 28 28 26 29 26 27 24 25 22 20 18 23 21 20 18
25 26 28 29 30 33 40 41 45 45 49 54 57 57 53 50 48 45 43 42 44 43 40 35 35 31 31 27 26 25 23 24 27 25 24 22 23 21 20 20 21 21 21
23 25 27 31 32 34 36 44 47 48 52 56 58 54 50 46 43 40 41 41 40 36 33 30 30 29 29 28 27 26 25 25 25 24 23 23 21 21 20 20 19 19 20
20 24 28 30 32 32 38 38 49 49 55 57 56 53 47 44 41 40 39 35 34 33 33 33 30 29 29 28 29 30 29 27 27 22 22 22 22 22 21 21 21 20 20
23 26 33 35 36 36 37 38 49 50 55 55 53 52 43 41 40 40 37 36 34 33 32 31 28 25 26 27 29 30 29 28 28 22 22 23 22 23 23 22 22 20 20
24 31 35 35 35 36 39 39 49 51 54 53 53 46 43 40 39 36 34 33 31 28 29 26 22 23 22 24 26 27 21 20 20 20 21 22 24 24 24 24 23 22 19
28 32 37 37 35 36 41 41 50 51 52 53 47 44 41 38 33 30 30 29 24 24 24 25 21 21 20 20 21 19 17 16 19 21 19 21 23 22 23 24 24 23 22
29 34 38 39 37 36 42 46 50 50 51 49 40 32 28 27 27 26 24 23 24 22 22 23 19 19 17 16 16 14 15 16 18 19 21 22 21 23 22 23 22 22 22
29 38 39 40 40 40 45 49 50 50 43 34 30 25 24 22 21 21 21 22 21 20 18 17 17 16 15 12 11 12 14 16 18 19 21 21 20 21 22 21 20 21 21
29 39 39 40 44 49 50 49 47 38 33 29 25 23 23 23 21 21 22 22 22 19 20 16 16 15 16 14 12 14 15 17 19 21 21 21 22 21 21 21 21 23 22
34 40 40 41 47 48 46 42 36 32 28 24 23 23 22 21 20 20 21 20 17 18 17 16 16 16 14 14 15 19 20 21 21 23 23 21 21 21 20 21 22 23 23
41 41 41 42 45 45 40 35 31 28 24 23 24 23 21 20 20 19 18 20 20 18 17 16 16 15 17 16 22 24 24 23 21 21 21 21 24 26 25 21 23 24 24
41 40 41 41 36 33 32 30 27 25 23 25 27 23 20 19 20 19 20 19 18 18 18 16 15 17 10 22 24 26 25 23 21 21 20 20 24 23 26 27 27 26 23
40 41 39 31 27 27 26 27 24 26 27 24 23 22 20 20 21 19 18 18 18 17 16 15 14 14 19 22 23 25 24 23 22 20 20 19 18 24 22 26 26 26 28
40 38 30 26 24 23 23 23 24 25 26 25 22 21 20 19 19 19 18 18 17 15 14 14 14 15 17 21 22 25 23 21 20 20 19 20 20 22 23 22 25 26 27
32 29 25 23 22 23 25 26 26 26 24 25 24 20 19 19 18 16 16 15 15 15 14 15 14 13 15 21 20 23 22 21 19 20 20 21 21 25 26 25 25 25 25
26 26 27 27 29 30 28 28 26 26 26 24 22 22 24 19 18 16 16 17 17 16 16 13 12 16 13 17 20 22 22 21 21 21 22 26 22 26 27 24 24 22 20
34 33 34 35 36 37 36 34 34 33 33 33 31 26 18 17 16 16 16 16 16 15 13 11 12 12 13 15 19 21 21 21 22 22 21 21 26 27 28 27 21 21 22
36 36 36 37 39 39 36 33 30 28 23 18 16 16 17 18 16 15 14 14 14 13 11 12 13 14 12 19 20 20 22 24 21 20 21 22 27 27 26 24 24 25 24
26 26 25 23 21 19 15 14 15 16 16 15 15 16 15 15 16 15 15 14 13 11 11 13 13 14 15 14 21 24 25 25 22 21 24 27 26 25 22 21 23 22 18
32 31 27 25 24 22 20 18 16 15 15 15 15 15 15 15 15 16 15 13 13 14 14 13 15 15 15 16 18 21 22 24 23 25 24 24 23 21 19 18 18 18 18
31 23 19 16 14 14 14 14 15 15 15 15 16 17 16 15 14 14 13 12 18 18 17 18 17 16 17 18 23 23 21 22 23 23 20 17 15 16 16 16 17 18 18
19 17 15 14 13 13 14 16 18 17 16 16 17 17 16 15 14 11 13 19 17 16 18 18 17 18 20 23 24 25 25 25 24 18 15 15 16 16 16 16 17 18 20

GFSMW_sfc_dewp_051.txt.gz
Dewpoint
34 35 34 34 34 37 39 44 46 50 57 64 64 64 63 64 63 64 61 61 57 53 48 46 41 38 35 32 30 30 28 27 27 27 27 30 30 30 30 31 28 27 26
30 31 32 34 36 36 37 41 45 45 50 59 64 64 63 60 62 63 62 61 55 49 45 42 39 36 33 30 28 29 30 29 27 24 29 25 26 28 29 32 27 24 24
27 29 29 30 33 36 38 40 42 46 46 49 57 57 56 55 55 53 53 52 50 48 45 43 40 33 32 31 31 30 31 29 27 25 27 23 23 22 24 25 26 20 23
27 27 27 27 28 32 37 40 42 45 47 52 57 58 59 58 54 52 50 47 46 48 46 45 39 39 36 31 30 28 28 30 26 26 25 25 22 16 12 21 23 21 19
28 28 29 29 29 30 33 39 41 45 47 51 56 58 58 52 50 48 46 47 45 44 44 40 37 39 40 34 29 24 25 26 28 27 25 22 23 21 20 17 21 21 21
23 26 27 30 31 32 32 39 41 44 46 51 57 57 53 50 49 46 45 45 45 43 38 35 37 37 37 36 31 28 23 24 25 25 24 23 21 21 20 19 19 19 20
20 22 32 34 34 34 34 35 38 44 47 53 57 54 52 51 48 46 44 44 38 37 33 33 35 36 35 33 31 29 29 28 25 22 23 23 22 23 22 21 20 20 21
22 22 34 34 34 35 36 36 37 43 51 56 55 50 48 49 47 46 43 43 38 37 34 33 33 31 32 33 30 31 30 29 27 22 22 23 22 23 23 22 21 20 20
23 28 35 36 36 36 36 37 37 46 55 55 49 46 46 46 45 43 41 40 37 33 30 31 31 33 33 30 29 28 23 23 23 21 21 23 24 24 24 24 24 21 19
27 31 37 37 38 38 38 38 39 50 54 53 46 43 44 44 42 39 35 32 28 27 28 28 27 29 29 24 25 22 19 18 21 22 19 20 23 22 23 23 24 24 22
27 29 38 39 40 40 40 41 47 52 52 46 43 43 41 40 37 35 31 27 26 26 26 24 24 24 21 19 18 18 17 16 18 19 20 21 21 22 22 23 22 22 21
29 31 38 39 39 41 43 43 50 49 41 37 38 36 35 32 33 30 26 24 23 24 22 22 22 19 17 16 17 17 14 16 18 19 20 21 20 21 22 22 21 21 21
32 38 39 39 43 47 48 48 39 34 32 32 30 28 26 27 26 28 24 23 21 23 20 18 16 16 17 14 13 15 16 18 19 21 21 21 22 21 22 21 21 22 21
41 40 40 41 45 45 41 37 32 30 27 27 26 26 25 25 24 23 23 24 23 23 20 17 17 17 16 16 19 21 22 23 22 23 23 22 21 21 20 20 21 22 23
41 43 41 41 44 39 38 34 33 30 28 28 29 27 29 26 23 24 23 21 22 20 19 19 20 21 18 18 22 25 25 24 23 22 21 21 24 26 24 22 23 23 23
42 42 40 40 35 34 30 30 34 33 30 26 26 27 23 23 24 21 22 20 18 18 19 19 19 15 18 27 27 26 25 24 22 22 22 20 24 23 26 26 26 25 23
42 40 30 28 26 26 27 28 30 29 27 25 22 21 21 23 25 24 22 18 17 16 17 17 15 16 22 26 25 26 24 23 22 20 20 19 18 24 22 25 27 27 28
36 29 26 25 24 25 25 26 27 25 24 22 24 26 28 28 25 20 20 21 21 21 17 15 15 17 21 24 24 26 22 22 21 20 20 20 21 22 23 23 25 26 26
25 25 24 24 25 26 26 27 28 26 26 25 25 29 28 23 22 21 19 16 15 16 15 16 14 14 21 22 21 23 22 21 21 21 22 23 23 26 27 25 24 24 25
26 26 26 27 28 28 29 30 29 31 32 32 31 26 26 27 28 27 27 25 19 16 16 13 13 18 12 18 19 20 21 20 21 22 22 27 23 26 28 25 24 22 20
33 34 34 33 33 33 33 32 33 33 34 33 33 33 33 32 29 25 20 17 16 15 12 11 13 12 14 15 19 21 19 20 21 22 21 21 26 28 28 27 22 21 22
35 35 35 34 36 36 35 34 33 33 34 33 33 31 26 21 18 17 15 14 14 12 12 13 14 15 14 22 22 24 25 25 22 21 21 22 28 27 26 23 24 24 24
35 35 34 35 36 36 35 33 32 32 28 22 20 20 19 16 15 14 14 13 13 13 12 14 14 14 15 15 23 25 26 26 23 22 25 27 26 23 21 22 23 22 17
26 27 25 23 19 18 17 17 17 17 19 20 20 16 15 15 15 17 14 14 14 14 14 15 15 15 16 17 19 22 22 25 24 25 24 22 20 20 20 19 18 17 17
28 27 26 24 20 20 19 20 19 17 15 15 16 17 17 14 13 13 13 17 18 15 14 18 17 16 17 18 23 23 21 23 23 22 18 15 15 16 16 16 17 17 18
21 19 17 15 15 15 15 17 17 17 16 16 16 17 16 14 12 11 11 20 19 19 18 18 17 16 19 22 23 24 24 24 23 16 14 15 16 16 16 16 16 17 20

GFSMW_sfc_dewp_054.txt.gz
Dewpoint
34 35 34 34 35 36 36 41 48 59 63 64 64 64 64 64 64 63 60 59 58 55 53 49 43 39 37 34 29 29 25 25 26 26 27 31 30 29 30 30 28 28 26
29 32 34 34 35 34 35 37 44 50 60 63 63 64 64 63 63 63 62 60 57 55 54 46 41 37 34 31 30 30 29 27 26 24 29 27 25 28 28 32 29 26 24
27 28 30 31 32 34 36 37 39 46 56 62 62 58 58 57 57 59 60 60 56 54 52 46 42 38 35 32 30 31 30 27 26 25 27 25 22 22 23 26 24 21 22
27 27 28 29 29 30 33 37 40 43 46 58 61 61 60 59 59 59 54 53 53 53 50 46 43 43 40 32 32 32 34 32 25 26 24 25 23 15 11 20 23 22 19
28 28 29 29 29 29 30 33 38 42 46 54 60 60 60 59 52 52 52 50 51 52 49 45 42 43 41 36 35 35 34 30 29 27 26 23 24 21 18 14 20 22 21
26 28 29 29 30 32 32 33 38 41 44 49 56 59 57 51 50 49 50 48 48 50 48 43 43 43 40 39 38 30 29 27 27 26 24 24 22 22 21 20 20 19 20
22 27 32 33 34 34 35 35 35 35 42 46 53 57 57 54 52 50 49 47 45 45 45 43 42 40 37 32 32 33 33 28 26 23 24 23 23 24 22 21 19 19 21
24 23 33 34 34 36 36 36 36 36 37 46 54 56 55 54 52 50 48 47 45 42 41 39 38 36 32 33 34 34 33 29 26 21 22 24 23 24 23 22 21 19 20
27 26 32 35 36 35 36 37 38 38 38 48 54 51 52 50 48 46 47 43 42 39 39 39 35 33 32 32 33 32 28 26 24 23 23 23 24 25 24 24 24 21 18
33 30 33 37 37 37 38 39 40 39 40 52 49 49 49 48 46 45 44 42 38 37 38 35 31 31 30 29 28 25 22 21 22 23 20 21 23 23 24 24 24 24 22
34 32 35 34 38 38 38 39 42 44 50 47 45 45 45 45 44 44 43 38 34 33 31 27 28 27 25 24 22 22 19 18 19 21 21 21 21 23 22 23 23 22 22
37 37 33 36 39 39 43 46 47 49 45 44 43 43 43 43 42 42 38 34 32 29 28 25 25 24 24 17 18 20 22 23 21 19 20 21 20 21 21 22 21 21 21
37 39 39 39 41 47 46 46 43 40 40 41 41 40 40 40 39 34 32 30 28 24 23 22 20 19 18 16 16 16 18 19 21 23 21 21 21 21 22 21 21 21 21
39 40 40 42 46 42 39 35 33 34 34 38 36 36 36 34 30 28 26 25 25 24 24 23 20 18 18 22 25 26 27 27 24 23 22 21 22 21 20 20 21 21 22
42 42 43 45 43 36 32 32 33 35 36 35 33 31 30 30 27 26 25 25 23 21 22 23 26 29 30 29 29 30 28 25 22 22 21 22 24 27 25 22 23 23 23
39 42 41 39 33 29 31 34 35 35 37 35 32 30 28 28 28 26 26 24 26 27 28 30 30 28 27 32 31 27 24 23 22 21 21 20 23 23 27 27 27 26 24
40 34 26 25 27 28 30 31 32 34 32 30 29 29 27 25 26 26 27 28 28 28 28 24 22 26 29 29 27 29 23 21 21 20 20 20 20 25 22 26 27 27 29
27 27 25 25 28 30 32 33 33 33 32 31 31 30 30 31 31 30 29 30 31 29 29 28 27 27 25 27 26 27 22 21 20 21 21 21 22 23 24 24 25 25 26
27 25 26 26 27 27 28 29 30 31 32 31 31 32 32 31 30 30 29 25 22 24 24 20 17 21 23 24 23 24 21 20 20 21 22 24 24 26 27 25 25 25 25
27 27 27 28 29 30 29 29 30 30 31 32 33 33 33 32 31 30 31 32 32 29 25 20 15 18 12 22 19 21 21 20 20 21 22 26 24 27 28 25 24 22 20
34 33 32 32 32 32 32 34 33 32 33 34 33 33 34 33 33 33 32 30 27 21 14 13 13 14 16 16 21 23 20 20 22 22 21 21 27 28 28 26 21 20 22
35 35 34 34 36 35 35 33 32 33 33 34 34 34 33 34 33 31 27 20 15 12 13 14 15 15 14 23 23 25 25 26 23 22 22 22 27 26 25 23 24 25 24
34 36 35 35 35 36 34 32 33 34 33 33 31 30 26 20 16 14 13 12 13 13 12 14 14 14 16 17 24 25 25 25 23 23 25 26 25 22 21 23 23 23 17
35 36 34 32 30 31 33 33 32 28 24 23 21 17 15 15 15 16 14 14 13 12 13 14 14 15 17 18 20 22 22 25 24 25 21 20 20 20 20 19 18 17 17
26 24 21 20 19 20 21 20 20 24 24 17 17 18 17 13 13 14 15 16 15 13 13 16 16 16 16 18 23 23 21 22 22 20 15 15 15 16 16 16 17 17 17
27 24 20 19 19 19 19 18 18 19 16 16 16 17 15 12 13 13 13 22 20 19 18 20 18 16 19 22 23 24 23 24 23 16 14 15 16 16 16 16 16 17 19

GFSMW_sfc_dewp_057.txt.gz
Dewpoint
32 34 35 36 36 36 37 41 56 61 64 64 65 65 64 65 64 64 61 59 58 57 56 54 51 46 42 38 32 29 26 25 26 27 28 30 30 28 30 30 29 29 27
29 30 33 34 35 35 35 37 46 59 61 64 64 64 65 64 64 64 61 59 58 58 56 53 49 44 39 33 30 30 29 26 26 24 28 26 26 29 28 32 29 27 25
28 28 29 31 33 34 35 35 37 46 59 62 63 60 60 60 60 60 62 59 58 58 56 53 48 42 40 37 37 33 30 27 25 26 28 25 23 24 22 26 24 23 22
28 29 28 29 30 31 32 34 37 40 52 60 62 62 60 60 61 62 62 59 57 57 55 53 48 46 48 43 44 41 38 32 27 27 24 24 24 17 12 20 22 21 19
27 29 29 29 29 29 30 31 34 38 44 53 61 62 60 60 58 55 58 53 53 56 53 51 47 45 46 46 44 44 41 33 32 31 27 23 24 21 17 12 18 22 22
23 26 30 30 30 31 30 31 34 36 40 48 58 61 61 55 54 53 55 52 51 52 51 49 49 48 46 43 44 43 39 33 33 29 27 25 24 21 21 18 19 19 19
28 27 27 33 34 33 34 34 34 34 38 44 51 57 58 55 55 55 55 51 50 49 48 46 47 47 46 43 38 37 33 33 31 26 25 25 24 25 23 20 19 17 20
30 30 28 33 34 35 34 35 35 35 36 37 45 53 56 56 54 53 54 53 51 49 47 46 46 45 40 38 36 36 33 31 29 23 24 25 24 24 22 22 20 18 20
36 33 32 34 36 36 35 35 36 37 38 39 43 51 53 52 52 50 50 49 46 46 45 45 43 39 36 34 33 32 28 26 26 24 24 25 25 26 25 24 23 21 16
37 37 34 33 35 37 37 36 38 39 40 41 48 50 51 51 48 48 46 44 44 43 43 40 36 33 33 31 29 27 25 24 25 24 22 23 24 24 25 25 24 23 21
38 38 37 37 35 35 38 38 39 42 44 48 46 46 46 45 45 45 44 42 41 40 38 36 34 30 28 25 23 22 22 23 25 24 23 24 23 24 23 24 23 23 23
38 38 38 39 40 40 45 46 46 47 47 44 43 43 43 43 43 42 41 39 41 38 34 32 28 26 24 21 20 20 22 24 26 25 22 21 21 22 22 22 22 22 21
39 38 40 40 41 43 41 38 35 38 41 42 41 41 41 42 43 41 38 38 33 30 29 27 26 23 23 21 22 22 21 21 24 26 27 25 22 22 23 22 22 22 21
42 41 42 42 45 38 35 33 33 35 37 39 40 41 41 41 39 39 37 32 27 26 25 23 21 21 21 23 26 28 29 29 28 27 25 23 23 22 21 20 21 21 21
37 37 42 44 37 34 34 35 35 36 35 34 35 37 37 35 33 31 29 26 24 22 23 25 28 31 32 32 33 33 32 30 24 22 21 22 24 26 26 24 23 23 23
30 38 32 31 29 31 32 33 33 33 32 31 30 31 29 28 27 27 26 27 28 30 31 32 33 34 35 37 35 30 24 22 21 20 20 20 22 25 27 28 28 26 24
28 26 26 27 29 31 31 32 31 30 30 29 29 27 28 29 29 29 30 31 32 33 33 32 32 33 34 35 34 29 25 24 22 19 20 20 20 25 23 26 28 28 29
28 27 27 29 32 33 32 32 33 33 33 32 32 33 33 32 32 32 32 32 33 32 32 32 32 33 34 33 32 27 22 20 20 20 21 21 22 24 25 25 25 25 25
26 27 27 28 30 31 32 33 33 34 34 33 33 34 33 33 33 32 32 32 32 32 32 32 30 28 28 27 28 24 21 20 19 20 21 23 23 26 27 25 26 26 25
27 28 30 30 30 30 30 30 31 32 33 33 34 33 33 33 32 32 32 32 33 32 31 28 26 26 19 25 21 22 21 20 20 22 22 25 24 27 28 26 23 21 20
32 33 33 33 34 34 33 33 33 31 33 34 34 34 34 33 33 32 32 32 32 30 25 16 16 17 20 20 24 26 22 22 23 22 22 22 27 28 27 26 20 21 22
34 35 35 35 35 35 33 33 31 33 33 33 33 33 33 35 34 32 31 29 21 16 15 15 15 15 15 23 23 25 25 25 23 22 22 23 27 26 24 22 24 25 25
33 35 35 35 36 35 34 32 33 35 34 33 33 33 32 28 20 16 14 13 13 13 13 14 13 14 16 18 25 25 25 25 23 24 24 25 23 22 21 23 24 23 18
33 35 34 33 33 34 34 34 34 32 30 29 23 16 15 15 14 15 14 13 12 12 12 12 13 15 16 18 20 22 22 24 23 23 18 19 19 20 20 19 18 17 17
33 28 27 24 28 32 31 28 26 25 19 16 17 17 15 13 14 15 13 13 13 12 13 15 15 15 15 17 23 23 22 22 22 20 15 15 15 16 16 16 17 17 18
25 23 23 22 22 22 20 21 23 20 17 16 16 15 14 15 16 17 17 23 22 20 21 22 19 17 20 22 23 24 23 22 23 16 14 15 16 16 16 16 17 17 19

GFSMW_sfc_dewp_060.txt.gz
Dewpoint
35 34 34 36 36 37 37 40 53 63 65 65 65 65 64 65 65 64 63 61 59 58 57 57 56 53 49 45 37 32 28 26 26 28 28 30 31 28 31 33 29 31 28
31 30 31 33 34 35 36 37 40 54 63 65 65 65 65 64 65 64 63 61 59 59 57 56 55 52 47 39 34 31 29 26 28 26 28 25 27 29 29 31 28 28 26
28 29 29 30 32 33 34 35 38 43 59 63 64 61 62 61 62 63 63 61 60 59 58 56 55 51 47 43 40 38 33 31 27 26 30 26 25 26 23 27 27 25 23
24 28 29 29 29 30 33 34 36 39 47 61 63 62 62 61 62 63 63 62 59 59 58 56 55 51 48 46 45 43 44 42 36 33 27 25 27 23 16 21 22 21 20
26 27 30 30 30 30 30 31 33 38 41 52 61 62 62 62 58 60 61 61 57 58 58 56 53 48 48 49 46 45 44 45 40 37 36 32 25 21 18 15 20 22 22
32 32 30 34 34 33 33 32 31 33 38 45 55 61 61 58 55 56 60 57 55 56 55 54 51 49 48 47 47 45 43 39 37 36 33 31 27 23 21 17 19 19 19
34 33 34 33 35 35 35 35 35 33 36 41 48 58 60 57 56 57 58 56 54 53 54 52 49 48 48 47 46 45 43 39 35 31 30 29 25 27 24 21 20 16 19
37 36 34 35 35 36 36 36 35 35 35 36 42 49 54 56 57 55 56 56 55 55 53 52 51 49 48 47 43 42 38 33 31 25 26 26 26 25 24 23 21 18 19
37 38 37 35 36 36 37 37 36 36 37 38 39 42 49 53 54 52 52 51 50 49 49 49 48 46 45 43 41 37 33 28 27 26 26 27 27 28 26 26 24 21 14
37 39 39 37 37 37 37 38 37 37 39 42 42 44 47 50 51 48 48 47 46 47 47 46 44 44 41 37 33 28 25 24 27 27 25 25 26 26 27 27 27 25 21
38 39 39 38 39 40 43 44 44 45 46 46 45 45 45 46 45 45 44 44 45 44 43 42 40 37 33 30 27 24 24 24 25 26 25 27 29 31 29 28 25 25 24
40 40 39 39 40 43 41 38 36 39 42 42 42 44 45 45 44 43 42 41 41 40 38 35 32 29 24 22 21 22 25 25 27 27 27 27 28 28 26 26 25 23 22
41 41 40 42 42 39 35 34 34 36 39 40 41 43 43 44 43 41 40 39 37 35 32 28 25 24 23 22 24 27 27 27 29 30 31 30 29 27 26 24 25 25 21
36 34 37 41 38 34 34 35 34 35 37 40 41 42 42 41 41 38 36 33 31 30 28 25 23 24 25 26 28 30 31 31 31 31 29 28 27 26 24 21 21 22 21
30 29 32 32 32 33 33 34 34 34 34 35 36 36 36 36 35 33 32 32 32 30 27 27 29 30 31 32 34 34 33 32 31 31 31 30 29 27 25 25 25 23 23
29 27 27 30 31 32 32 31 31 31 30 30 30 30 30 31 33 32 32 34 32 30 32 33 35 36 37 38 36 33 31 31 29 27 23 21 23 27 27 26 27 27 25
29 27 28 30 31 31 31 32 31 31 31 29 29 30 31 32 33 33 33 33 33 33 34 35 35 36 37 37 36 33 30 29 26 22 21 20 21 25 24 26 28 28 29
27 27 28 31 33 33 33 34 35 34 33 32 32 32 33 33 33 33 33 34 34 33 33 34 34 34 36 37 34 31 26 21 21 21 21 21 23 24 25 25 26 26 26
27 28 29 29 31 32 33 33 33 34 34 34 34 34 33 33 33 33 33 34 33 33 32 32 33 33 34 35 33 28 21 21 20 21 22 24 23 26 28 26 26 26 24
28 30 30 30 30 31 32 32 33 34 33 34 34 34 34 33 33 33 32 32 32 32 31 31 32 33 29 31 28 25 21 20 21 23 22 25 25 27 28 25 23 20 19
32 34 34 34 34 34 33 33 33 32 34 34 35 34 34 33 33 32 32 32 32 30 26 22 20 21 22 24 28 27 23 23 23 22 22 22 27 27 26 25 20 20 22
34 35 35 35 35 34 34 33 32 33 34 34 33 33 33 34 33 32 31 28 22 18 16 15 14 15 16 24 25 26 25 25 23 22 23 24 25 24 24 22 24 26 24
33 35 36 35 35 34 34 32 33 35 34 34 33 34 33 28 21 18 14 13 14 14 13 13 12 14 17 19 25 25 25 25 23 23 24 24 22 22 21 23 24 23 18
33 34 35 34 33 34 35 35 35 34 33 30 22 16 15 14 14 15 13 12 12 12 12 11 13 15 16 18 20 22 22 24 22 22 18 18 19 21 21 19 18 17 18
34 33 31 32 33 33 32 32 30 24 18 17 17 16 15 14 14 12 10 11 10 12 12 14 14 15 16 18 23 23 21 22 21 19 15 15 16 16 17 17 17 18 18
26 26 26 28 30 27 24 25 23 19 17 15 14 15 16 17 18 18 19 24 23 24 23 23 19 17 20 22 23 23 22 22 22 15 14 15 16 16 16 17 17 17 18

GFSMW_sfc_dewp_063.txt.gz
Dewpoint
36 37 37 37 39 39 39 40 47 62 66 66 64 64 64 65 65 66 65 63 61 60 61 60 60 59 59 56 52 44 38 34 32 32 32 33 34 32 38 40 37 37 34
29 30 33 35 36 37 39 40 41 49 64 65 64 64 65 65 65 65 65 64 62 61 60 60 59 58 57 54 48 42 37 34 32 33 33 31 30 32 32 35 33 33 30
25 25 28 32 36 36 36 38 40 43 56 64 65 64 65 64 64 64 64 64 63 61 60 59 59 57 57 54 49 44 43 36 32 31 35 32 33 30 29 32 32 30 29
30 29 32 31 33 34 36 37 39 40 46 61 64 63 61 61 62 63 64 64 63 62 61 60 59 58 57 54 51 46 46 45 39 33 29 31 32 30 25 25 28 27 26
34 33 33 36 34 37 36 36 36 38 40 50 61 63 62 63 63 63 63 63 62 62 61 60 59 58 55 54 50 48 45 46 43 42 34 30 27 22 25 25 24 25 24
36 36 36 37 37 40 40 41 36 34 37 42 53 62 62 62 62 62 62 63 61 61 60 60 59 58 55 53 51 51 48 46 44 40 37 35 32 26 25 21 23 26 23
38 38 37 38 39 40 41 40 38 37 37 39 42 51 61 62 61 61 61 61 58 58 58 58 57 56 54 53 51 50 49 47 45 39 35 33 30 29 30 29 23 21 20
38 40 40 38 39 41 41 39 38 38 38 39 39 43 50 58 60 60 60 60 60 59 58 57 56 54 52 51 50 50 48 46 44 40 30 30 27 27 27 26 24 20 20
38 40 40 40 39 40 40 42 42 41 40 40 42 42 43 48 55 58 58 59 58 56 56 55 53 52 51 50 49 48 44 40 35 33 31 31 28 28 27 27 25 26 21
39 40 41 40 39 40 43 44 43 44 46 47 47 47 48 48 50 53 54 54 52 52 52 51 49 49 48 47 45 41 34 29 28 28 26 27 27 28 30 31 31 32 30
41 41 40 41 41 43 40 37 37 41 43 44 45 46 47 47 48 49 49 49 48 48 49 47 46 44 42 39 35 30 27 25 25 26 26 28 31 31 30 31 31 30 28
41 38 38 41 43 39 36 35 36 39 41 43 44 45 46 46 47 46 45 45 46 45 44 43 39 36 33 29 26 24 24 24 27 29 29 30 31 32 32 32 31 29 28
34 35 39 41 37 35 35 35 35 36 39 42 43 44 45 44 44 42 42 42 40 39 37 34 30 27 25 23 24 26 27 28 29 31 31 32 33 33 33 31 29 28 25
32 31 32 33 34 34 34 34 33 34 36 39 40 40 40 39 38 37 35 34 32 30 28 26 26 26 28 29 30 30 31 32 32 33 33 32 32 32 31 30 29 28 26
31 29 29 32 32 33 31 31 31 31 32 31 32 34 34 33 32 32 32 32 31 30 31 31 32 32 33 34 34 34 34 34 33 33 33 32 32 33 32 29 29 27 25
30 29 28 30 31 31 31 31 32 31 30 31 31 32 32 33 34 34 34 34 35 36 35 36 36 36 36 38 38 34 33 33 31 29 28 29 30 31 30 28 27 27 26
29 28 29 32 32 32 33 33 33 32 32 32 31 32 33 33 34 34 35 35 35 36 36 36 36 36 37 39 38 35 31 30 29 26 23 23 25 27 24 26 26 27 28
27 27 29 32 32 33 34 34 34 34 34 34 33 33 33 33 34 34 33 33 34 34 33 32 33 36 36 36 34 32 28 23 24 27 26 23 23 24 25 25 28 28 27
28 29 30 30 31 32 33 34 34 34 34 34 34 34 34 34 34 33 33 34 33 32 32 33 34 34 34 34 32 26 23 22 22 23 23 24 23 26 27 27 29 24 22
29 30 30 31 32 33 33 34 34 34 33 34 34 35 35 34 33 33 32 32 32 32 33 32 33 34 33 33 33 24 21 22 22 23 22 25 25 26 27 24 22 20 19
33 34 34 34 33 33 34 33 33 33 34 35 35 34 34 34 34 33 33 32 31 30 27 26 23 23 25 29 28 27 24 23 23 22 22 23 26 26 25 24 20 20 24
34 35 34 35 34 34 34 33 32 34 34 34 34 33 34 35 34 32 28 24 21 18 15 14 14 15 20 26 26 26 26 25 23 22 23 23 24 22 23 22 25 25 24
34 35 34 34 34 34 34 34 34 36 35 34 34 32 28 23 19 14 14 14 14 14 12 10 12 15 18 20 26 26 25 25 22 22 23 22 21 22 21 23 24 22 18
32 34 34 34 33 35 35 35 35 34 32 28 18 15 14 14 14 14 12 12 12 11 9 10 13 15 17 19 21 22 22 23 21 21 18 18 20 21 21 19 18 18 18
33 34 34 34 32 34 34 34 32 26 18 16 16 16 14 11 11 11 10 10 10 12 11 14 14 15 17 19 23 23 21 21 21 19 14 15 16 17 17 17 18 18 18
32 30 33 33 33 32 31 29 22 19 17 14 14 16 17 18 20 20 20 25 25 24 24 23 19 18 21 22 23 22 22 21 21 14 14 15 16 17 16 17 17 18 19

GFSMW_sfc_dewp_066.txt.gz
Dewpoint
33 35 36 37 39 39 40 40 41 49 58 65 65 65 64 65 65 66 65 64 62 61 61 60 59 59 60 61 60 56 52 48 47 40 39 37 36 34 37 40 39 39 38
30 30 29 31 33 36 38 41 40 42 48 58 64 64 64 65 65 66 65 65 64 63 62 61 60 59 59 60 60 57 52 50 44 45 45 42 36 33 33 37 37 36 36
28 29 30 30 34 36 36 38 40 41 43 51 57 62 63 66 65 65 65 65 64 65 63 63 63 62 59 59 60 57 53 49 43 44 47 43 43 36 34 34 36 34 35
32 33 35 34 35 35 37 37 38 39 40 45 53 58 59 60 61 63 64 65 64 64 64 64 63 63 62 60 60 57 54 53 45 40 35 38 38 36 33 31 33 33 31
36 36 38 38 39 42 41 39 36 37 39 40 48 56 58 58 60 62 62 63 64 64 63 63 63 62 61 60 59 57 54 54 51 45 40 37 34 30 35 35 29 30 30
38 38 39 41 42 44 43 43 39 36 36 40 43 51 55 57 60 61 61 62 63 63 63 62 62 62 61 60 59 58 55 53 53 48 44 39 37 32 31 29 29 29 27
40 40 40 40 42 44 45 42 40 38 38 39 39 42 50 56 58 59 60 61 61 62 61 61 61 61 60 60 59 57 56 54 53 50 45 41 35 34 33 34 31 30 24
41 42 42 42 41 43 44 45 45 42 39 40 39 40 44 47 55 59 59 59 60 61 60 60 60 60 59 58 57 57 56 55 54 50 44 34 32 32 30 31 29 25 26
41 42 42 42 41 42 44 45 43 44 45 46 45 43 43 44 47 52 57 58 59 60 60 59 59 58 56 55 54 54 53 52 50 43 37 34 33 33 32 33 32 32 26
41 41 40 42 43 44 43 41 41 42 45 46 46 46 48 49 50 50 51 52 54 56 55 57 56 54 53 52 52 50 50 45 41 37 35 34 31 31 32 34 35 35 32
40 39 40 41 44 41 40 39 39 41 43 44 46 47 48 48 49 50 50 50 51 51 52 52 51 50 49 48 46 41 38 36 35 36 34 32 33 32 31 32 32 33 33
37 40 42 43 40 38 38 37 38 39 41 43 46 47 47 48 48 48 48 48 48 48 48 48 47 45 43 39 34 31 28 28 28 30 30 31 32 33 34 34 33 33 33
36 38 38 37 37 37 36 36 35 37 39 42 44 44 44 44 43 43 43 42 43 41 41 39 36 33 30 30 27 27 29 29 30 32 32 32 33 34 34 33 33 33 33
35 35 35 36 35 35 34 33 32 34 36 37 39 39 38 38 37 36 33 31 30 29 29 28 27 28 28 29 29 31 33 35 35 34 34 34 34 34 33 34 32 30 28
34 33 33 34 34 33 32 32 32 33 34 34 36 36 35 34 33 33 33 33 32 32 32 32 32 33 33 34 35 36 37 36 34 34 34 33 34 35 33 31 29 28 27
32 31 31 32 32 33 32 33 33 32 33 34 34 34 34 35 35 35 36 36 37 36 36 37 37 37 38 39 39 36 34 33 32 30 30 32 32 32 31 30 30 28 27
31 30 31 32 33 33 33 33 32 33 33 32 33 33 34 34 35 35 35 35 35 35 35 36 37 37 38 39 38 36 33 31 31 29 29 29 28 28 24 25 27 27 28
30 30 31 32 33 34 34 34 34 34 34 33 33 34 34 34 34 35 34 33 34 33 33 32 32 32 34 37 36 33 29 27 28 28 27 25 23 23 25 25 27 28 27
29 30 31 32 33 33 34 34 34 34 34 34 34 34 34 35 35 34 34 34 34 33 33 33 33 34 34 33 31 28 28 29 27 24 22 23 22 24 28 27 30 25 22
30 30 30 31 32 33 34 34 34 34 34 35 35 36 35 35 34 34 34 33 34 33 34 33 34 33 32 33 30 25 22 20 20 22 21 24 25 26 26 24 22 21 17
32 33 33 32 33 34 34 34 34 34 36 36 36 36 36 35 34 33 33 33 33 32 30 28 26 27 29 28 29 26 23 22 21 21 20 21 25 25 24 24 20 19 24
33 33 34 34 34 35 35 35 34 35 35 35 34 35 35 35 34 31 29 25 23 20 18 17 16 19 23 26 27 27 26 25 21 20 21 21 23 22 22 23 24 26 25
33 33 32 33 33 34 36 34 35 36 36 35 34 33 31 22 15 14 14 14 13 12 10 9 11 14 18 21 25 25 25 24 21 21 22 21 20 21 20 22 24 23 20
33 33 33 33 33 35 36 36 36 35 33 29 25 18 14 13 13 14 13 12 10 7 7 8 12 15 17 20 22 22 21 21 19 22 18 17 19 20 21 19 19 19 19
33 33 34 33 34 36 36 35 34 32 26 18 15 15 14 9 9 10 8 7 11 12 10 15 14 15 17 20 23 22 20 21 20 21 13 14 16 18 17 18 19 19 19
34 34 34 33 33 34 34 33 29 26 17 14 14 14 14 15 18 19 20 26 25 25 24 22 19 18 21 22 23 22 22 20 21 12 12 15 17 18 18 18 19 20 21

GFSMW_sfc_dewp_069.txt.gz
Dewpoint
29 31 33 35 37 38 39 40 41 44 54 59 65 66 66 67 66 65 63 63 61 61 61 61 60 60 59 61 60 59 56 55 54 50 45 46 43 41 41 43 42 43 44
27 31 32 33 34 36 38 40 40 41 43 52 62 64 64 64 65 67 66 65 64 63 61 61 61 60 60 59 60 59 58 54 53 49 47 46 43 40 38 40 40 40 41
29 29 29 31 34 35 36 38 40 41 42 45 51 63 63 64 65 65 65 64 65 65 64 63 62 62 61 60 60 60 59 54 52 50 51 49 47 41 40 37 39 39 39
31 32 34 34 36 37 38 39 39 40 41 43 44 50 58 59 61 62 63 63 64 65 65 65 63 63 63 61 60 60 60 55 52 48 48 50 45 44 38 39 36 38 36
34 36 38 39 40 43 43 41 38 38 38 40 43 47 52 57 58 58 59 61 64 65 64 64 64 64 64 63 62 61 60 56 54 49 49 45 43 40 41 37 35 36 36
36 37 40 41 43 45 44 44 40 36 37 39 41 44 50 54 57 57 58 59 61 64 63 63 63 63 63 62 62 61 61 58 57 52 51 47 47 42 41 41 37 34 32
39 39 40 40 42 44 46 44 42 39 39 39 39 40 45 51 55 56 57 57 60 62 63 63 63 62 62 62 61 61 59 58 57 56 52 48 48 42 41 40 36 33 27
40 41 42 43 42 43 45 45 44 44 43 42 41 40 42 43 46 52 55 57 57 59 62 62 62 61 61 61 60 60 59 58 57 56 53 50 42 39 36 38 34 30 29
41 42 42 43 43 44 44 43 42 43 45 45 45 44 42 43 44 47 51 54 56 58 59 61 60 60 60 60 59 57 56 56 55 54 47 41 40 40 39 39 40 40 36
41 40 40 41 43 43 42 42 41 42 44 45 46 46 47 48 49 49 49 50 51 52 54 54 57 57 55 55 55 54 53 52 46 44 42 40 40 38 39 38 37 37 36
40 40 41 42 42 41 40 39 40 41 42 44 46 47 47 47 48 49 49 49 49 50 50 50 51 52 52 51 49 45 43 40 39 39 37 36 37 37 36 36 36 36 36
39 41 43 41 40 39 39 38 38 39 41 43 45 45 45 46 46 45 46 46 47 47 47 48 48 47 46 43 41 40 37 37 36 35 35 35 34 35 36 35 34 34 34
38 39 39 38 37 37 36 36 35 37 39 41 42 41 41 40 39 38 37 38 38 37 36 35 36 34 35 31 31 31 31 32 33 33 34 35 35 35 34 34 34 33 33
37 37 37 37 36 35 35 34 34 35 36 39 39 38 37 37 36 35 34 33 32 31 30 30 30 30 30 31 32 33 34 35 35 36 36 37 36 35 34 33 33 32 31
36 35 36 36 35 34 34 34 34 35 35 36 37 37 37 36 35 35 35 34 34 33 33 33 34 34 35 35 36 36 36 35 34 35 35 35 36 36 34 32 31 30 29
34 33 34 34 34 34 34 34 34 34 34 35 35 36 36 36 36 36 36 36 37 37 37 38 38 37 38 39 38 35 33 33 32 31 34 34 34 34 34 33 33 32 29
34 33 33 34 34 34 34 34 34 34 34 33 34 35 35 35 35 35 35 35 35 36 35 35 34 34 37 39 38 36 32 31 31 32 31 29 29 30 27 26 26 26 27
32 32 33 34 34 35 35 34 34 34 34 33 34 35 35 35 36 35 34 34 34 34 34 33 33 33 35 37 36 35 32 32 32 31 30 26 23 23 26 26 28 29 28
31 32 33 33 34 34 35 35 34 35 35 34 34 35 35 35 35 34 34 35 34 33 33 34 33 32 32 33 33 31 31 30 29 29 27 24 22 26 28 28 30 26 24
32 32 32 32 33 34 34 34 34 34 35 35 35 35 35 33 34 34 33 33 34 34 33 35 33 32 31 30 27 24 22 22 21 22 22 25 26 26 27 25 23 22 19
32 32 32 32 33 34 35 35 35 34 36 36 36 35 36 34 34 34 34 35 34 33 31 28 28 27 27 28 28 27 24 22 22 21 20 21 25 25 24 24 23 20 23
33 33 33 34 34 34 35 35 34 36 36 36 35 35 35 34 34 34 31 27 25 21 18 17 18 21 23 27 27 27 26 25 21 19 21 22 24 23 23 23 23 26 26
33 34 33 33 33 33 35 34 35 36 36 35 35 34 32 25 18 16 16 14 13 11 9 11 13 15 19 21 24 25 24 24 21 21 23 22 20 21 22 22 24 24 21
33 33 32 32 32 33 35 36 36 35 34 32 30 21 14 14 14 16 13 11 9 8 10 11 14 16 18 20 22 22 22 21 20 23 22 16 20 21 22 21 20 20 20
33 33 32 32 32 33 35 35 35 33 30 22 16 15 15 12 10 11 11 8 16 19 13 17 15 16 18 21 23 23 21 22 21 22 15 14 16 18 18 19 20 20 20
33 33 34 33 33 36 35 34 34 31 21 15 16 15 14 14 19 20 21 27 26 25 24 23 21 19 21 22 23 23 23 22 21 16 11 14 18 19 19 19 20 22 23

GFSMW_sfc_dewp_072.txt.gz
Dewpoint
30 31 31 32 35 39 41 42 43 48 60 65 65 65 66 65 66 65 63 62 61 59 59 60 60 59 59 60 59 58 56 55 53 50 45 44 43 41 41 43 43 44 44
28 29 32 34 34 36 38 40 41 43 45 53 65 65 65 65 65 64 66 66 64 62 60 60 60 60 59 59 60 59 58 55 54 50 45 42 43 41 40 40 41 41 43
30 30 30 32 35 34 36 39 40 41 42 44 52 64 64 63 63 64 65 65 65 65 63 61 61 61 60 60 60 60 59 56 53 49 48 47 46 40 41 38 41 40 41
32 33 35 36 38 41 41 40 39 40 40 43 44 52 62 61 63 64 64 63 64 64 64 64 63 62 61 60 60 60 60 58 54 53 49 49 45 41 36 38 37 39 38
34 37 38 40 42 44 43 42 39 38 38 39 41 44 45 53 60 60 62 62 63 63 63 64 62 63 63 62 62 60 60 60 57 52 51 50 46 43 41 35 36 37 37
36 39 40 43 45 46 45 43 40 38 37 38 40 41 43 46 53 57 56 57 59 63 63 63 63 63 62 62 62 62 60 59 58 54 52 50 49 47 44 43 38 37 36
38 39 40 41 43 45 46 45 45 42 41 40 39 39 41 45 49 53 56 57 58 59 61 62 62 62 62 62 62 61 60 60 58 57 53 52 52 49 47 46 41 37 33
41 42 43 42 42 44 45 43 43 44 45 46 45 43 41 44 45 46 50 55 56 57 60 60 61 61 61 61 61 60 59 59 58 57 55 53 48 46 46 45 39 37 34
41 41 41 43 43 44 43 42 42 44 45 45 46 46 47 47 48 48 47 50 54 55 56 56 58 59 59 59 59 58 57 57 56 55 51 44 42 42 42 42 43 42 37
41 40 41 42 43 42 41 40 41 42 43 45 46 47 47 48 48 49 49 49 49 50 51 52 53 54 54 55 55 54 53 50 47 45 43 42 41 40 41 41 41 42 40
39 40 42 43 41 40 39 39 39 41 42 44 46 46 47 47 48 47 47 47 48 48 48 49 49 50 50 50 47 45 44 42 41 40 40 39 38 39 39 39 39 38 37
39 42 42 40 39 38 37 36 38 39 41 43 43 42 42 41 39 38 39 41 40 38 38 40 40 39 38 40 41 39 39 38 37 37 37 37 37 37 37 37 37 35 35
39 41 39 38 37 36 35 35 35 36 38 40 39 39 38 37 35 34 34 32 32 31 30 30 30 31 30 31 32 33 34 35 35 35 35 36 36 35 35 35 34 34 33
38 37 37 37 36 35 35 34 34 35 37 38 38 37 36 35 35 35 34 34 33 33 33 33 33 33 34 35 35 36 36 36 36 36 36 36 35 35 34 34 33 32 31
36 37 36 36 35 34 34 34 35 35 36 37 37 36 36 36 36 36 36 36 35 35 36 36 36 36 36 36 36 35 35 34 34 35 35 36 36 36 35 34 32 31 29
36 34 35 34 34 34 34 34 34 34 35 35 36 36 36 36 36 36 35 35 36 37 36 37 38 37 37 38 37 34 32 32 32 32 33 33 34 35 36 34 33 32 30
35 33 34 34 34 34 34 34 34 34 34 34 35 35 35 35 35 35 34 35 33 34 34 34 35 36 36 38 37 35 32 31 32 32 32 32 32 31 30 28 26 27 28
34 33 34 34 34 35 35 34 35 34 35 34 35 35 35 35 35 35 34 34 34 33 32 32 33 34 36 37 36 34 32 32 32 32 32 31 27 27 29 28 27 28 28
32 33 34 34 35 35 35 34 35 35 34 34 35 35 35 35 34 34 34 34 33 32 33 32 32 31 31 32 32 31 29 28 27 28 28 25 24 26 28 28 29 26 22
32 33 33 34 34 35 35 35 35 35 35 35 35 34 34 35 34 34 32 33 34 33 32 32 30 31 27 28 27 27 27 23 23 22 24 26 26 27 27 24 22 21 18
32 32 32 33 34 35 36 35 35 34 36 36 34 34 34 34 34 33 33 31 29 27 25 28 27 27 28 27 29 29 25 23 22 20 20 21 25 24 24 24 22 20 23
33 33 34 35 35 36 36 35 33 35 36 36 35 35 35 34 33 31 28 28 26 22 19 19 20 22 25 28 27 27 26 26 20 19 21 23 24 22 22 22 24 26 26
33 34 34 34 34 34 36 34 35 36 36 35 35 34 33 33 32 23 20 17 14 12 10 12 14 17 19 23 24 24 24 23 21 22 23 22 19 21 22 22 24 24 21
33 33 33 33 32 33 34 36 36 36 35 34 33 30 17 15 15 16 13 12 10 9 10 12 14 16 18 21 23 23 22 24 22 24 23 17 18 20 21 21 20 20 20
33 33 32 33 32 34 35 36 36 35 33 29 19 16 17 14 14 23 16 17 22 21 15 16 16 17 18 22 24 23 22 22 22 22 16 13 15 18 19 19 19 20 20
33 33 32 32 32 34 35 35 35 33 23 16 17 16 13 12 20 22 24 27 26 25 25 24 21 20 21 23 23 23 23 23 21 18 12 15 18 20 20 20 21 22 22

GFSMW_sfc_dewp_075.txt.gz
Dewpoint
29 29 31 33 34 35 41 46 56 65 65 65 63 63 64 64 65 65 64 61 59 58 58 59 60 59 60 60 59 56 55 55 53 49 46 44 44 42 44 44 44 47 50
30 30 32 33 34 34 37 39 40 44 60 65 65 64 64 64 64 64 65 66 65 61 59 59 59 60 59 60 59 58 56 56 53 50 44 42 42 43 41 41 42 43 45
30 30 33 35 36 38 38 38 39 40 41 46 64 63 64 62 62 63 64 64 65 64 63 61 60 60 60 59 60 59 58 56 55 50 47 45 44 42 41 40 40 41 43
31 35 37 38 40 42 42 40 39 38 38 39 45 62 62 62 62 62 63 63 63 63 63 63 62 60 60 59 59 60 60 57 55 54 50 50 48 42 40 42 43 43 41
35 37 38 41 43 43 43 42 38 37 37 37 39 42 47 53 60 62 62 63 62 63 63 63 62 62 61 60 59 59 59 59 57 55 52 52 51 46 43 42 43 43 43
38 39 41 44 45 46 45 45 39 40 40 38 37 39 40 42 45 53 58 60 61 61 62 62 63 62 61 62 62 62 60 60 60 57 55 52 51 50 47 43 42 42 40
38 39 41 43 44 45 44 44 45 45 45 45 44 41 39 41 45 48 53 56 57 57 60 61 61 61 60 62 61 61 60 60 60 58 56 54 52 52 50 47 43 41 39
40 42 42 42 43 44 43 42 44 44 45 45 46 47 47 45 46 46 48 53 55 57 58 58 59 60 61 61 60 60 59 59 59 57 56 54 53 51 50 48 44 38 37
42 42 42 43 43 42 41 41 42 43 44 46 46 47 47 48 48 49 50 50 51 53 53 55 57 57 58 57 57 57 57 57 55 53 52 47 45 46 46 46 46 46 38
40 40 42 42 41 40 40 40 41 42 43 46 47 47 47 48 48 47 47 48 48 49 50 50 50 50 50 52 53 52 51 50 47 46 44 42 42 42 42 43 44 44 42
40 41 42 41 40 39 38 38 40 41 42 44 43 42 40 39 39 40 42 42 40 41 44 46 46 46 45 46 45 44 43 42 41 41 40 39 40 40 40 40 40 40 39
40 42 40 39 38 37 36 36 37 39 41 41 39 38 37 35 34 33 32 32 32 32 33 35 35 33 35 36 39 39 39 39 38 38 38 37 38 38 38 38 37 36 36
41 41 39 37 36 35 35 35 35 38 39 38 36 36 35 35 34 33 33 32 32 31 31 31 31 32 32 33 34 35 36 36 36 36 36 36 36 35 35 35 34 34 35
39 39 37 36 35 35 35 34 35 37 38 37 36 36 35 35 35 35 34 33 33 33 34 34 35 35 36 36 36 36 35 36 36 36 36 36 35 35 34 34 34 33 32
37 37 37 36 35 34 34 34 35 36 37 37 36 36 36 36 36 36 36 37 37 37 37 36 36 36 36 35 34 35 35 34 35 35 36 36 37 37 36 34 33 33 32
37 36 36 35 34 34 34 34 34 35 36 36 36 36 36 36 36 35 36 35 35 36 36 37 36 36 36 38 37 34 33 33 33 32 33 34 34 35 36 37 36 32 31
35 35 34 34 34 34 34 33 34 34 35 35 35 35 35 35 35 35 34 34 34 34 34 35 35 36 37 37 37 35 30 29 30 31 31 31 31 31 31 30 29 28 28
35 34 34 34 35 35 34 34 35 35 35 35 35 35 36 35 35 34 34 34 33 33 33 33 34 35 37 37 35 34 31 30 31 30 28 27 27 27 29 28 27 27 27
33 34 34 34 35 35 35 35 34 34 35 35 35 36 36 35 35 34 33 33 33 32 32 31 29 28 30 32 32 30 26 26 26 27 26 25 24 27 29 25 24 23 21
34 34 34 34 34 35 35 35 34 34 35 35 35 35 36 35 34 33 33 33 33 32 29 26 27 30 26 29 30 28 26 23 24 24 23 25 25 26 25 23 22 20 18
33 33 33 34 35 36 36 35 35 35 36 35 34 35 35 34 34 33 33 31 25 25 24 27 26 27 27 28 29 28 24 22 21 20 20 21 25 24 23 23 21 20 22
33 33 34 35 36 37 36 35 34 36 35 35 34 34 35 35 33 31 28 28 26 22 20 21 22 24 26 28 26 26 26 24 19 20 22 23 23 21 22 22 24 26 26
33 34 34 34 35 36 37 34 35 36 35 35 34 34 34 32 31 28 26 23 19 15 13 15 16 17 22 23 24 25 23 24 21 22 23 23 19 21 22 23 24 23 20
33 34 34 32 32 33 35 36 36 36 35 34 34 32 31 30 28 20 17 13 11 10 11 14 15 16 18 22 23 22 22 24 22 23 21 20 18 19 21 21 20 20 20
33 33 33 32 32 32 35 36 36 35 34 33 32 26 19 16 20 20 11 17 21 14 13 15 16 16 19 22 24 23 22 23 22 21 18 13 15 18 19 19 20 21 22
33 32 32 32 32 33 34 36 36 35 33 28 18 17 16 13 22 24 24 26 26 26 25 24 20 21 22 24 23 22 23 23 21 18 13 14 19 20 20 20 21 21 22

GFSMW_sfc_dewp_078.txt.gz
Dewpoint
31 31 32 36 39 46 60 63 64 65 64 64 63 63 63 64 64 63 61 59 58 58 58 58 59 60 60 58 59 56 55 55 54 50 48 46 45 43 45 45 46 54 55
29 31 33 34 35 37 40 45 49 60 64 64 64 64 63 63 64 64 64 63 61 59 58 58 59 59 59 59 59 58 56 55 53 51 46 47 46 44 43 43 44 44 51
30 32 33 35 37 37 37 38 39 40 46 60 64 63 63 62 62 62 63 64 64 63 61 59 59 60 60 59 59 59 57 57 55 52 51 45 45 44 43 42 41 42 44
31 34 36 38 40 41 41 39 38 38 38 40 55 62 63 62 61 61 62 62 63 63 63 63 61 60 60 59 59 59 59 56 55 54 55 50 47 45 44 42 47 46 44
34 36 38 41 42 43 42 42 37 37 37 37 40 53 57 59 59 60 61 61 61 62 62 62 62 61 60 59 59 60 59 59 59 55 52 51 51 47 46 47 44 46 46
37 39 42 44 45 45 45 42 44 45 44 40 38 39 40 41 43 47 55 60 61 61 61 61 61 61 61 61 60 59 60 60 60 59 57 55 53 52 48 45 44 44 42
38 41 43 44 45 44 43 44 45 45 45 46 46 43 40 41 43 46 51 54 56 57 61 60 60 59 59 60 61 61 60 59 59 59 58 56 55 54 53 52 46 44 43
38 40 42 43 44 43 42 44 44 44 45 46 46 47 48 48 48 47 50 53 55 57 57 58 58 59 61 61 60 59 59 58 58 58 58 57 54 52 52 50 48 41 40
41 42 42 43 42 41 41 42 43 43 45 46 47 47 47 48 47 47 48 49 50 52 53 54 54 54 55 56 56 54 53 54 52 50 49 48 46 46 46 47 47 47 41
41 42 43 41 40 40 40 41 42 43 44 45 45 45 45 45 45 45 45 45 45 48 49 49 48 48 48 49 49 46 48 47 45 45 44 43 42 42 43 44 44 44 43
40 41 42 40 39 38 38 40 40 42 43 41 39 37 36 35 35 36 36 36 36 39 42 42 41 41 43 45 45 44 44 43 42 41 40 40 40 40 40 41 40 40 40
40 42 40 39 37 36 36 37 39 40 40 38 37 36 35 34 33 32 32 32 32 32 32 32 32 33 35 37 39 39 39 39 38 38 38 38 38 38 38 37 36 36 36
42 40 39 37 36 35 35 36 37 39 38 36 35 35 34 34 33 33 33 33 33 33 34 34 34 34 35 35 36 36 36 36 37 37 37 37 36 36 36 35 35 34 34
41 39 38 36 35 35 35 35 36 38 37 36 36 35 35 35 35 35 35 35 35 35 35 35 35 35 35 35 35 35 34 35 35 35 35 36 35 35 34 34 34 33 32
40 38 37 36 34 35 34 35 36 37 37 36 36 36 36 36 36 36 36 36 36 36 36 36 36 35 35 34 34 34 34 34 34 36 36 36 37 37 35 33 33 34 33
38 38 37 36 34 34 34 34 35 36 37 36 36 36 36 36 36 36 35 35 36 36 36 35 35 35 35 38 37 34 33 33 33 32 33 33 33 34 37 37 35 33 32
37 37 36 35 34 34 34 33 34 35 36 35 35 35 35 35 35 34 34 34 34 35 35 36 37 36 36 37 37 35 28 27 31 30 25 29 30 30 29 29 29 29 29
36 36 35 34 34 35 34 34 34 35 35 35 35 36 35 35 34 34 34 33 33 34 34 34 34 35 37 37 36 34 27 26 25 24 24 25 25 26 28 27 27 26 26
36 35 35 35 35 34 34 34 34 35 35 35 36 36 36 35 34 33 33 33 33 33 33 32 30 28 29 32 31 28 25 25 25 26 25 25 25 29 29 24 24 22 21
34 35 35 35 35 35 35 34 34 34 34 35 36 36 36 35 34 33 33 33 30 27 27 26 26 29 26 31 30 27 25 23 24 24 22 26 25 25 25 23 22 20 19
34 35 35 35 35 36 36 35 35 35 36 35 35 36 35 35 34 33 33 31 24 25 23 26 25 26 27 27 28 27 22 21 20 20 20 21 25 23 23 24 21 21 21
34 34 34 35 36 37 36 35 35 36 35 35 35 35 34 34 33 33 27 27 26 24 23 23 24 25 25 27 25 25 26 23 19 20 22 22 24 21 22 22 24 25 25
33 34 34 34 36 37 36 35 35 35 35 34 34 34 34 32 31 28 26 25 21 19 18 19 20 20 23 22 26 25 24 24 21 21 23 24 19 20 21 23 24 24 20
33 34 34 33 33 35 36 36 36 35 35 33 33 33 32 31 28 27 24 19 16 13 12 14 15 16 18 21 23 22 22 23 22 23 21 19 18 20 21 21 20 20 20
34 34 33 32 32 33 34 36 36 36 35 34 33 32 30 29 25 19 15 12 12 13 12 14 15 16 18 22 25 24 22 23 23 21 17 13 15 18 19 20 21 22 22
34 34 33 32 32 33 34 36 36 35 34 33 31 29 22 17 20 17 22 25 27 25 23 23 20 20 22 25 25 23 23 23 22 18 13 14 18 19 19 20 21 21 22

GFSMW_sfc_dewp_081.txt.gz
Dewpoint
34 32 32 37 50 57 61 63 63 64 64 63 62 62 62 63 63 61 60 59 60 60 58 58 58 59 57 56 57 55 55 55 54 52 51 49 48 47 45 46 46 53 55
31 31 32 33 38 38 53 60 62 63 64 63 63 63 63 63 64 64 62 61 59 59 58 58 58 58 59 59 58 57 56 55 54 53 50 50 51 47 46 44 45 45 53
30 32 33 34 36 36 38 43 47 51 62 63 63 62 62 62 62 62 63 64 63 61 60 59 59 59 59 59 59 58 57 57 54 52 55 48 48 46 46 43 43 44 44
30 32 35 37 39 40 40 39 38 38 39 48 61 62 63 61 61 61 62 62 63 63 63 61 59 59 59 59 58 59 59 58 58 54 54 53 50 48 47 44 45 44 43
31 33 36 40 41 42 42 39 37 38 37 37 42 57 60 60 60 60 60 61 61 62 63 63 61 61 59 58 58 58 59 59 59 57 55 54 51 48 48 50 49 46 45
34 36 41 43 44 44 42 44 45 45 44 40 38 41 52 53 52 50 54 57 59 60 61 61 61 61 60 60 59 58 58 59 59 58 57 56 53 52 50 48 49 46 44
36 40 43 44 44 43 44 45 45 45 46 46 46 44 40 40 41 43 46 50 54 56 58 59 59 59 59 59 59 60 59 58 59 59 58 57 56 55 52 52 50 46 43
39 42 43 44 43 42 44 44 44 45 45 46 46 47 48 48 48 48 50 52 54 56 55 57 58 58 58 58 58 59 58 58 57 56 56 56 54 53 53 51 49 43 41
40 42 43 44 42 41 42 42 43 44 46 46 46 46 46 47 47 47 48 49 50 52 53 54 54 54 54 55 56 54 53 51 50 48 48 48 46 46 47 48 48 47 43
41 42 43 41 41 40 41 42 43 44 44 43 43 42 42 43 43 43 43 43 45 48 48 48 48 48 48 48 48 48 49 46 45 45 44 42 43 43 43 44 44 44 43
41 42 41 40 39 39 40 40 42 43 40 39 37 36 35 34 34 34 34 35 36 39 39 39 40 41 44 45 44 44 44 43 42 42 41 40 41 39 40 40 40 40 40
41 42 40 38 37 37 37 38 40 40 38 37 36 35 34 33 33 32 32 32 32 33 33 33 34 35 37 38 40 39 40 40 39 39 39 38 38 38 38 37 37 36 37
41 40 39 37 36 35 36 37 39 38 37 36 35 34 34 33 33 33 33 34 34 34 35 35 35 35 36 36 36 36 36 37 37 37 37 37 36 35 35 35 31 31 35
41 40 38 37 35 35 35 36 38 37 36 36 35 35 35 35 35 36 36 36 35 35 35 35 35 35 35 35 35 35 35 34 34 34 34 33 33 32 31 31 31 31 31
41 39 38 36 35 35 34 35 37 37 37 36 36 36 36 36 36 35 36 36 36 35 35 35 35 35 35 34 35 35 35 34 35 35 36 36 36 36 34 32 31 31 30
41 39 38 36 34 34 34 35 37 37 37 36 36 36 36 36 36 36 36 36 36 36 35 35 35 36 35 38 37 35 33 34 34 33 33 33 31 34 36 35 34 33 29
38 39 38 36 35 34 34 34 36 36 36 36 35 36 36 35 35 35 35 34 35 36 36 36 35 36 35 37 37 35 29 31 31 26 24 28 29 28 27 29 30 31 31
38 38 37 36 35 34 34 34 35 36 35 35 35 35 35 35 35 34 34 34 34 34 35 34 34 35 36 37 36 33 25 25 24 23 23 24 24 27 27 27 26 26 23
38 37 36 35 35 34 34 34 35 35 35 35 35 36 36 35 34 33 33 33 33 33 33 32 29 28 29 31 31 27 24 25 24 25 25 25 25 28 29 24 24 21 20
36 35 35 35 34 34 34 34 34 35 35 35 36 36 36 35 34 33 33 33 32 31 28 27 26 30 26 31 30 26 24 23 23 22 21 27 25 25 25 22 21 19 19
35 35 35 35 35 35 34 34 34 35 36 36 36 36 36 35 34 33 33 30 27 25 22 25 24 25 27 28 29 26 22 21 21 20 20 21 26 24 23 24 21 20 21
35 35 35 36 36 36 35 35 35 36 36 36 36 35 35 34 34 32 30 27 26 24 23 23 24 25 24 26 26 27 26 23 19 19 21 22 25 21 22 23 23 25 24
34 34 35 35 35 36 36 35 36 35 35 35 34 34 34 33 33 30 27 25 24 23 21 22 22 22 23 22 27 25 24 25 21 21 23 25 23 20 21 23 24 25 20
33 34 34 33 33 34 36 36 36 35 34 34 34 34 32 32 31 29 27 23 20 18 17 16 16 16 18 20 22 22 21 23 22 22 22 20 19 21 21 21 20 20 20
33 33 33 32 32 33 35 36 36 35 34 33 33 33 32 32 29 26 23 19 17 16 13 14 15 16 17 20 24 23 22 22 24 21 15 13 15 18 19 20 21 21 22
34 34 33 33 33 33 34 35 36 35 35 34 33 32 31 29 26 20 16 23 21 25 23 21 18 17 20 23 27 26 24 24 24 19 14 13 18 19 19 19 20 21 21

GFSMW_sfc_dewp_084.txt.gz
Dewpoint
35 35 34 44 58 60 62 63 63 64 64 63 62 62 63 63 61 60 61 61 62 61 59 58 57 56 56 56 56 55 55 54 54 53 53 52 51 51 49 48 47 47 52
36 33 31 31 39 53 58 60 62 63 64 64 63 63 62 63 63 63 61 61 60 60 60 59 58 58 57 57 56 56 54 54 54 53 51 52 52 49 48 47 46 45 49
37 32 32 33 34 38 44 55 60 62 63 63 63 62 62 61 61 62 62 62 61 60 59 59 59 58 59 58 58 57 56 55 54 53 56 51 50 49 49 44 44 44 45
33 31 33 35 36 37 38 39 41 43 48 61 62 61 61 61 61 61 62 62 62 62 61 60 59 59 59 58 58 58 58 58 58 55 55 54 52 52 50 46 44 45 43
32 31 34 37 40 41 40 38 38 38 37 38 47 59 60 61 60 60 60 60 61 62 62 62 61 59 58 58 58 57 57 58 57 55 54 52 52 50 50 51 52 47 45
33 32 37 42 43 42 42 44 44 45 44 40 39 40 50 56 56 56 56 58 59 60 60 61 61 61 60 59 58 58 57 57 57 58 57 55 54 52 50 49 50 50 46
32 35 41 43 43 43 44 44 45 45 46 46 46 44 41 40 42 45 46 47 51 55 57 59 59 59 59 59 59 58 58 57 58 58 58 56 56 55 53 52 51 48 45
34 37 42 43 42 43 44 44 45 45 46 46 46 47 47 47 47 47 49 51 53 54 56 56 57 58 58 58 58 58 58 58 56 54 54 55 51 53 52 52 50 46 43
38 41 43 43 42 43 43 43 44 45 45 45 46 45 46 46 46 46 47 48 48 52 52 53 54 54 55 57 56 55 52 51 50 49 48 48 46 46 46 48 49 48 44
41 42 43 41 41 41 42 43 43 43 42 42 42 40 40 41 41 40 40 42 44 46 47 47 48 49 49 49 50 49 48 46 46 46 45 43 42 42 43 43 45 45 45
41 42 41 40 40 40 41 42 43 41 39 38 36 35 34 34 34 34 34 35 36 37 38 39 41 43 45 45 45 45 45 44 43 43 42 41 41 41 40 39 39 38 38
41 41 40 38 38 39 39 40 41 39 38 36 35 34 34 33 33 33 33 33 33 34 34 35 37 38 38 40 41 40 41 41 40 40 40 39 39 38 37 38 37 34 36
41 40 38 37 37 37 37 39 39 37 36 36 35 34 34 34 33 34 34 34 35 35 36 36 36 36 36 36 36 36 37 37 37 38 37 37 37 36 36 35 34 33 33
41 39 38 37 36 35 36 38 38 37 36 36 35 35 35 35 35 35 35 35 35 35 35 35 35 35 35 35 35 35 35 34 34 34 34 33 32 31 30 30 30 30 30
40 39 38 37 35 35 35 37 37 36 36 36 35 35 35 35 35 35 35 35 35 35 35 35 35 35 35 36 35 35 35 35 35 36 36 36 36 37 35 31 29 29 29
41 40 39 37 35 34 34 36 37 37 37 36 35 36 36 36 35 36 36 36 36 35 35 35 36 36 37 38 37 35 34 34 34 32 32 31 32 34 36 34 34 31 27
40 40 39 37 35 34 34 35 37 37 36 36 36 36 36 36 35 35 35 35 36 36 36 36 36 36 36 38 38 36 33 32 29 26 26 28 30 28 27 30 32 31 32
39 40 39 37 36 35 34 35 36 36 36 35 35 36 36 35 35 35 34 35 35 35 35 34 35 36 37 37 36 33 26 25 23 23 23 24 25 28 25 26 26 24 22
39 39 39 37 35 35 34 34 35 35 35 35 35 35 36 35 35 34 34 34 34 33 33 33 31 30 31 33 31 27 24 25 24 25 24 25 25 27 28 23 24 21 20
38 37 36 35 35 34 34 34 35 35 34 35 36 36 36 35 34 34 33 33 33 32 30 28 28 31 28 30 29 25 23 23 23 21 21 27 25 25 25 22 20 18 19
35 36 35 35 35 35 35 35 35 34 35 36 36 36 36 35 34 34 33 32 31 28 25 26 26 26 27 28 28 26 21 20 21 20 20 21 26 23 23 26 19 20 22
35 35 35 35 35 35 34 34 33 36 36 36 36 36 35 35 34 33 31 30 27 25 24 25 25 25 24 27 28 28 25 23 18 19 21 22 25 20 22 24 23 25 24
34 35 35 35 35 35 34 33 34 36 36 36 35 35 34 34 32 30 29 27 26 24 23 23 23 24 23 22 26 25 26 26 21 21 23 24 23 21 21 23 24 25 20
33 34 34 35 35 34 35 35 36 35 35 35 34 34 33 33 31 30 28 26 24 23 22 21 20 20 20 20 22 22 21 24 22 22 22 20 20 22 22 21 20 20 20
33 33 34 34 34 33 34 35 36 35 34 34 34 33 32 32 30 28 27 24 22 21 18 17 16 16 16 18 23 23 21 22 23 22 15 12 15 17 18 19 20 21 21
33 33 34 33 33 33 35 36 35 35 34 33 33 33 32 31 31 27 23 29 25 26 25 22 18 16 19 22 27 29 27 25 25 20 16 13 16 18 18 19 19 20 21

GFSMW_sfc_dewp_087.txt.gz
Dewpoint
46 39 37 46 60 62 63 65 65 65 64 64 64 64 64 65 64 63 64 64 64 64 62 61 60 59 59 58 58 58 57 57 57 56 57 56 56 56 56 55 53 52 51
44 39 38 34 37 57 61 63 64 65 65 65 64 64 64 65 66 65 63 63 63 64 63 62 61 60 58 58 57 57 57 57 57 56 55 54 55 54 53 53 52 52 50
42 41 36 36 37 39 52 60 62 63 65 65 64 63 63 63 64 64 64 63 62 62 62 62 61 61 60 61 59 59 58 58 58 57 58 53 52 52 53 49 48 47 48
41 35 34 35 37 38 41 45 56 62 63 64 64 63 64 63 63 64 64 64 63 62 61 61 61 61 61 60 61 61 60 59 58 57 56 57 55 54 53 52 49 47 46
38 37 36 37 38 42 42 41 41 42 43 55 62 63 63 63 63 63 63 63 64 64 64 62 61 60 61 61 60 60 60 60 60 59 56 56 55 54 52 52 54 51 47
35 35 36 41 42 43 41 44 44 44 41 41 42 51 58 60 60 61 60 61 61 62 63 64 64 63 61 61 60 60 60 60 60 60 59 57 56 53 53 51 52 53 50
37 36 37 41 43 43 45 45 45 46 46 45 45 43 41 42 47 49 51 50 52 56 58 59 62 63 63 63 62 61 61 60 60 60 60 59 58 57 55 54 53 52 48
36 35 38 42 43 44 45 45 45 46 46 47 47 48 48 47 48 48 50 52 54 55 56 57 59 60 61 61 61 61 61 60 59 58 56 55 52 53 54 54 52 49 47
34 36 40 42 43 44 44 45 45 46 46 46 46 46 47 47 47 48 49 50 50 52 53 54 55 55 58 59 59 57 54 53 52 52 51 50 47 48 48 50 51 50 47
37 41 43 42 43 43 43 45 45 44 45 44 43 42 41 42 41 41 42 44 45 46 47 48 49 49 50 51 52 51 50 49 48 48 47 46 45 44 45 46 46 47 48
41 42 41 41 41 42 43 44 43 42 40 39 38 37 36 36 36 36 37 38 38 39 40 42 44 45 46 47 48 48 47 46 45 45 44 42 42 42 41 42 42 42 43
42 42 40 40 40 40 41 42 41 40 38 37 36 35 35 35 35 35 35 35 36 36 37 39 40 40 41 42 44 43 43 43 42 42 41 40 39 39 39 40 38 38 39
41 40 39 39 39 39 40 41 40 38 37 36 35 35 35 35 35 35 35 36 36 36 37 37 38 38 38 38 39 39 39 39 39 39 39 38 38 37 37 37 37 36 36
41 39 38 38 38 38 39 39 38 37 37 36 35 35 35 35 35 36 36 36 36 36 36 36 36 36 37 37 37 37 36 36 35 36 36 35 35 35 35 34 34 34 34
40 40 39 37 36 36 37 38 38 37 36 36 36 36 36 36 36 36 36 36 36 35 35 35 36 36 37 36 36 36 36 36 37 37 37 36 36 36 35 33 33 33 32
41 40 39 38 36 35 35 38 37 37 37 36 36 36 36 36 36 36 36 35 36 36 36 36 37 37 37 39 39 37 36 35 35 33 33 33 33 36 36 35 34 31 30
41 41 40 39 37 35 35 37 37 37 36 36 36 36 36 36 36 36 36 36 36 37 36 36 36 36 37 38 38 37 35 34 33 32 32 31 30 29 30 33 32 32 33
40 41 41 39 38 36 35 36 37 37 37 36 36 36 36 36 35 35 35 36 37 36 37 35 36 38 37 38 37 35 31 28 27 27 28 29 28 27 27 27 27 25 28
40 41 42 40 37 36 35 36 36 36 36 36 36 36 36 36 35 35 35 35 35 34 34 35 35 36 36 35 33 28 26 26 25 25 27 27 26 30 26 25 26 22 21
38 39 40 38 37 35 35 35 35 35 35 36 36 36 36 36 35 35 34 34 34 33 31 31 30 31 30 30 29 25 24 24 24 25 26 28 25 25 28 21 18 19 19
36 37 37 37 36 35 35 35 35 36 37 36 37 37 36 36 35 34 34 33 32 30 29 28 28 29 29 29 29 27 21 21 21 20 20 23 26 24 25 25 18 20 23
36 36 36 36 36 36 35 35 35 36 37 37 37 36 36 36 35 34 33 31 29 27 26 26 26 26 26 29 28 26 24 24 19 18 20 22 24 22 24 25 25 29 25
35 35 36 35 35 36 35 35 35 36 36 36 36 35 35 35 34 32 30 29 26 25 24 25 24 24 24 25 29 29 28 25 19 20 23 26 25 23 21 24 25 27 21
34 35 35 35 35 35 35 34 35 36 35 35 35 35 34 33 32 31 30 28 26 24 23 23 22 23 22 22 25 26 26 27 24 25 24 21 21 21 21 23 23 20 20
33 34 34 34 35 35 35 35 36 35 35 35 35 34 33 33 31 30 29 28 26 25 23 23 21 20 18 19 23 24 21 21 22 22 16 12 13 16 18 19 20 21 22
34 33 34 34 34 34 34 35 36 35 34 34 34 33 33 32 31 29 29 32 30 30 28 25 21 17 19 22 26 28 27 26 27 22 17 14 13 15 16 18 19 21 23

GFSMW_sfc_dewp_090.txt.gz
Dewpoint
40 43 42 42 61 63 63 64 64 66 67 67 66 66 67 67 66 65 66 65 65 64 64 63 62 62 61 60 60 59 59 58 58 57 57 58 58 58 58 58 57 56 56
41 42 43 38 51 61 63 64 64 64 66 66 66 66 67 67 68 68 66 65 65 65 64 64 63 62 62 61 60 59 58 58 58 57 57 56 55 56 56 56 55 54 54
41 41 42 43 42 46 58 62 63 64 66 66 65 65 65 65 66 66 66 66 65 65 65 64 63 64 63 62 62 61 60 59 60 59 58 55 54 55 55 54 52 51 51
42 41 41 41 41 40 42 49 61 63 65 66 65 64 64 64 65 65 66 66 64 63 63 63 63 63 63 62 64 63 62 61 59 60 58 59 58 55 54 55 54 50 49
40 41 41 41 39 43 43 45 49 59 63 65 65 65 65 65 65 65 64 65 65 65 64 63 63 62 62 62 62 62 61 61 61 61 60 59 57 56 55 54 55 54 49
38 40 41 40 41 44 44 45 45 46 48 57 62 64 65 64 63 64 63 64 64 64 65 65 65 64 63 62 62 62 62 61 61 61 61 59 58 57 55 54 54 55 53
38 38 39 40 42 43 44 44 44 44 43 43 44 47 54 56 57 57 57 57 57 59 61 62 63 63 64 63 63 63 63 62 62 61 61 60 59 58 57 56 54 54 53
38 38 38 40 42 44 44 43 44 45 44 45 45 46 45 44 45 46 46 48 51 54 56 56 59 60 61 62 63 64 63 63 63 62 61 58 55 55 56 56 55 51 51
35 37 39 40 41 43 44 44 44 45 46 46 47 47 47 48 48 49 51 51 52 52 54 55 56 57 59 61 62 62 59 59 56 55 54 52 50 51 51 51 53 52 48
32 33 37 39 42 43 44 45 45 45 46 46 46 45 45 45 45 46 47 48 48 49 51 52 53 53 54 55 56 54 52 52 51 51 50 49 48 48 48 49 49 50 50
35 35 38 41 43 44 44 45 44 45 44 43 43 43 42 41 42 42 42 43 43 44 45 46 48 49 50 50 51 50 49 48 48 49 48 46 45 44 44 45 46 46 47
39 40 40 41 42 43 43 43 43 42 42 41 40 40 40 40 40 39 39 39 40 40 41 42 44 44 45 46 48 47 47 47 46 45 44 42 42 42 43 44 43 44 44
41 41 41 41 41 42 42 42 42 41 39 39 39 38 38 38 38 38 38 38 39 39 39 40 41 41 42 43 44 44 44 44 43 43 43 42 41 40 41 41 41 40 39
41 41 40 40 41 41 42 41 40 40 39 39 38 38 38 38 37 37 37 37 38 38 38 39 39 39 40 40 40 41 40 40 40 40 39 39 39 39 39 38 38 38 38
41 41 40 40 40 40 40 40 40 39 39 38 38 38 37 37 37 37 37 37 37 37 38 38 38 39 39 39 40 40 39 39 38 38 37 37 37 37 36 37 37 37 36
41 41 41 40 39 39 39 40 39 39 39 38 38 38 37 37 38 38 37 37 37 37 37 38 38 38 38 40 39 39 39 38 38 37 37 37 38 37 37 36 33 32 33
40 41 41 41 40 39 39 38 38 38 38 38 37 37 37 37 38 37 37 37 37 38 38 38 38 38 39 40 40 38 38 37 36 36 36 33 32 34 34 34 33 33 32
40 41 42 42 41 39 38 37 38 38 38 37 37 37 38 37 37 37 37 38 38 38 38 38 39 39 38 38 38 37 35 33 32 31 30 28 26 26 26 25 28 28 27
40 41 42 42 42 40 38 37 37 38 38 37 38 38 38 37 37 37 37 37 37 36 36 38 38 37 37 37 36 32 30 27 26 26 28 28 28 28 27 27 27 23 27
41 42 43 42 41 40 38 37 37 37 37 38 38 37 38 37 37 37 36 35 36 35 35 35 35 36 35 34 31 26 22 22 23 24 25 26 25 30 24 19 20 20 20
38 39 40 40 41 40 38 38 37 38 39 38 38 38 38 38 37 37 35 35 34 33 32 31 31 28 27 27 29 26 21 21 22 23 24 26 27 25 28 20 16 16 21
37 38 39 39 39 39 38 38 39 39 39 38 38 38 38 37 36 35 34 33 31 30 28 27 27 27 27 28 29 28 22 23 19 17 18 20 25 24 25 25 25 29 26
36 36 37 37 37 38 37 37 38 37 37 37 37 37 37 36 35 34 32 31 29 27 26 26 25 25 26 27 29 27 26 25 17 18 21 25 27 23 23 25 26 29 23
35 36 36 36 36 36 36 36 36 36 36 35 36 36 35 35 34 33 31 30 28 27 26 24 23 23 23 24 27 27 28 27 23 24 26 22 21 23 18 23 26 24 21
34 35 35 35 35 35 35 35 35 36 35 35 35 35 35 35 33 32 31 30 30 29 26 23 22 22 21 21 25 26 26 25 23 23 19 17 16 19 18 19 20 20 20
35 35 35 36 35 35 35 36 36 36 35 35 35 35 34 34 32 31 31 34 33 33 29 27 24 21 22 23 27 29 28 26 25 21 16 13 12 13 13 15 17 19 22

GFSMW_sfc_dewp_093.txt.gz
Dewpoint
40 41 44 56 59 61 61 62 64 66 67 68 68 67 66 67 67 67 66 65 63 63 63 62 62 62 61 60 60 60 59 60 60 59 59 59 59 59 59 60 58 58 58
38 41 43 47 59 60 62 62 61 63 66 67 67 67 67 68 68 68 66 66 66 66 64 64 63 62 62 61 61 61 60 60 61 59 59 57 58 59 58 59 57 57 57
37 39 42 44 57 60 61 62 61 61 64 66 67 66 67 67 67 67 67 67 67 67 66 65 64 64 64 63 63 62 61 60 61 60 59 57 55 57 57 56 56 54 54
38 40 42 44 45 47 57 61 62 63 65 65 65 65 64 63 65 66 67 66 67 66 66 66 65 64 65 64 64 63 62 62 60 62 59 60 59 57 55 57 56 53 51
40 41 43 45 45 46 47 50 59 62 64 65 65 65 64 65 65 66 65 65 66 66 65 65 65 64 64 64 63 64 63 62 61 61 62 60 60 58 57 55 56 56 52
40 41 43 44 44 48 48 49 49 55 61 64 64 64 63 63 64 64 64 65 65 66 66 66 65 64 63 63 63 63 63 62 62 62 62 60 58 57 57 55 55 55 54
38 40 42 42 42 46 47 46 45 46 49 55 59 62 64 64 63 63 63 63 63 63 63 64 64 65 65 64 64 63 63 63 62 61 61 61 60 59 58 56 55 55 54
35 37 39 43 42 44 46 45 46 45 44 46 48 47 47 47 51 49 49 50 51 54 56 57 58 60 62 62 63 64 63 63 62 62 62 60 58 58 57 56 55 52 52
35 36 38 39 41 44 45 44 45 46 46 46 46 46 46 47 48 50 50 50 51 52 53 54 55 56 57 59 61 62 62 62 60 58 57 55 53 53 53 53 54 53 49
32 33 37 39 40 42 44 45 44 45 46 46 46 46 46 46 47 48 49 49 50 50 52 53 53 54 55 56 58 56 54 53 52 52 51 50 49 50 50 50 50 50 51
32 32 33 37 40 42 44 44 44 45 45 45 44 44 43 43 44 44 44 44 45 46 48 48 49 50 51 52 52 52 51 50 50 50 49 48 48 47 47 47 48 48 49
35 35 35 39 42 43 43 43 44 44 43 43 42 42 42 42 41 41 41 41 41 42 43 44 46 46 47 49 50 48 49 48 48 47 46 45 44 44 45 46 46 46 46
39 38 39 40 41 42 42 43 43 42 41 41 41 41 41 40 40 39 39 39 40 40 40 41 42 43 43 45 46 47 47 47 46 45 44 43 44 43 44 44 43 43 42
39 39 39 40 41 42 42 42 41 41 40 40 40 40 39 39 39 38 38 38 38 39 39 39 40 40 41 41 42 43 43 43 42 43 42 42 42 42 42 41 41 40 40
39 39 39 40 40 41 41 41 41 40 40 40 40 39 39 38 38 38 38 38 38 38 38 38 39 40 40 40 41 42 41 41 40 40 39 39 39 39 38 39 39 39 39
39 40 40 40 40 40 41 41 40 40 40 39 39 39 38 38 39 38 38 38 38 38 38 38 39 39 38 39 40 41 40 40 39 39 38 38 38 37 37 36 35 35 37
39 40 40 40 40 40 40 40 40 39 39 39 38 38 38 38 38 38 38 38 38 39 38 39 38 38 39 40 40 40 39 38 37 36 37 35 35 36 34 35 34 33 33
38 40 41 41 41 41 40 40 39 38 39 38 38 38 38 38 39 39 39 39 39 39 39 39 40 40 39 39 39 39 37 37 36 36 34 32 30 29 29 27 30 29 27
38 39 41 42 42 41 40 39 39 39 39 38 38 38 38 38 38 38 39 38 38 37 37 38 38 38 38 38 38 35 33 31 30 29 28 28 26 29 28 29 29 27 29
40 41 42 43 43 42 40 39 38 38 39 39 39 38 39 39 39 38 38 37 38 36 36 36 37 37 36 37 35 32 28 25 25 27 28 26 29 27 25 26 24 23 24
38 39 42 43 43 42 41 40 40 40 41 40 39 39 39 39 39 39 38 36 36 35 34 33 34 34 34 33 32 25 23 22 23 24 25 26 28 29 26 20 19 20 24
38 40 40 41 41 41 40 41 41 42 41 40 39 39 39 38 38 37 36 35 34 33 31 30 30 28 26 28 30 28 23 22 23 21 23 26 27 26 27 23 26 26 25
37 38 39 39 39 40 40 40 41 40 39 38 38 38 38 37 36 35 34 33 32 30 28 28 27 26 27 27 29 29 26 26 19 20 21 23 26 24 25 26 27 30 25
36 37 37 37 37 37 38 38 38 37 37 36 37 37 36 35 35 34 33 32 30 29 29 28 27 25 25 26 29 28 27 25 22 23 27 26 26 26 22 23 26 27 25
36 36 36 36 36 36 36 36 36 36 36 36 36 36 36 35 35 34 32 32 31 31 30 29 26 24 23 24 27 29 28 27 25 25 24 21 20 21 20 21 24 24 21
37 36 36 36 37 36 36 36 36 36 36 35 36 36 35 35 34 33 33 37 35 36 36 34 28 24 25 26 28 29 29 29 27 23 18 16 16 17 18 17 18 20 22

GFSMW_sfc_dewp_096.txt.gz
Dewpoint
39 43 48 57 61 61 62 64 65 66 67 67 66 65 65 66 66 65 64 63 63 63 62 62 62 61 59 59 59 59 59 59 59 58 58 58 58 58 59 59 58 58 57
38 40 47 54 59 60 61 64 65 66 66 66 67 66 65 65 65 66 66 66 65 65 63 63 63 62 62 61 60 60 59 59 60 58 58 56 57 58 58 58 57 55 55
35 39 43 49 58 60 61 63 63 64 67 67 66 65 65 65 65 65 66 66 66 66 66 65 64 64 63 62 62 61 60 59 59 59 57 54 54 55 56 54 54 53 52
34 37 43 48 57 60 61 62 61 63 65 66 65 63 63 62 63 64 65 65 66 65 65 65 65 65 64 63 63 63 62 60 59 60 60 59 58 54 53 55 53 51 51
35 38 42 45 45 50 54 60 62 63 64 64 64 63 62 61 61 63 63 64 65 65 65 65 64 64 64 64 64 63 63 62 60 60 59 58 58 57 55 53 53 53 50
35 39 46 47 46 48 48 49 58 61 63 63 62 60 61 60 61 62 62 63 64 65 65 65 64 64 64 63 63 63 63 62 61 61 61 59 57 57 56 55 55 52 50
36 41 44 45 46 47 49 51 50 51 57 60 62 61 58 59 58 60 60 58 58 59 62 63 63 63 64 64 64 63 63 63 62 62 61 61 59 59 57 55 54 52 50
37 41 43 43 45 47 48 47 47 46 49 51 53 55 58 58 56 55 55 56 57 57 57 57 57 58 60 62 63 63 63 63 62 61 61 60 59 58 58 55 54 51 51
35 39 40 43 44 46 46 46 46 47 47 48 46 45 46 47 48 49 50 50 51 51 52 54 54 55 56 57 59 61 61 62 61 60 59 56 54 54 54 54 54 53 49
32 33 38 40 44 44 45 45 46 46 47 47 46 46 46 47 48 49 49 49 50 50 51 52 53 53 54 54 55 56 55 55 53 53 52 51 51 51 51 51 51 51 51
32 32 34 37 43 44 44 44 45 46 46 46 45 45 45 44 44 44 44 44 44 45 46 47 48 49 50 51 52 52 52 52 51 51 50 49 49 48 47 46 47 48 48
34 34 34 40 42 43 44 44 45 45 44 44 43 43 42 42 42 41 41 41 41 42 42 43 45 45 45 48 50 49 50 50 49 48 47 46 46 45 45 46 45 46 46
37 37 38 41 42 43 43 44 43 42 42 42 41 41 41 41 40 40 39 40 40 40 41 41 42 42 42 43 45 48 48 48 47 46 45 44 44 44 44 42 40 41 41
39 38 39 40 41 42 42 42 42 41 41 41 40 40 40 39 39 39 38 38 39 39 39 39 40 40 41 41 42 43 44 43 43 43 43 43 43 42 40 39 38 39 38
39 39 39 40 41 42 42 41 41 40 40 40 40 39 39 39 38 38 38 38 38 38 38 39 39 40 39 39 41 41 41 40 40 40 39 39 40 41 40 38 36 37 37
39 39 40 40 40 41 41 41 40 40 40 40 39 39 38 38 38 38 38 38 38 38 38 39 39 39 39 40 41 41 39 39 37 36 36 38 39 38 39 39 38 37 36
39 40 40 40 40 41 41 40 40 40 39 39 39 39 38 39 39 38 38 38 38 38 38 38 38 39 40 40 41 41 39 38 36 36 36 36 37 35 34 35 35 35 35
38 40 41 41 41 41 41 40 40 39 40 39 38 39 39 39 39 38 38 37 37 38 38 36 37 39 39 40 41 40 37 37 36 36 34 33 31 32 28 29 28 27 29
36 40 41 41 42 40 40 40 39 39 40 39 38 39 39 39 38 37 37 38 38 36 35 37 37 37 38 40 39 36 33 33 31 29 29 28 27 30 30 29 28 27 28
39 41 42 43 42 41 40 39 39 38 39 39 39 39 39 39 38 37 38 36 37 35 36 36 37 37 36 38 38 34 29 27 26 27 27 31 28 30 30 28 25 26 27
39 40 42 43 43 42 40 39 39 39 40 40 39 39 39 38 37 36 37 36 35 35 35 35 35 36 35 35 36 31 24 24 24 25 25 26 32 28 25 22 22 22 25
39 41 41 40 41 41 40 40 39 40 40 39 39 39 38 38 38 37 36 35 35 34 33 32 31 31 30 35 34 29 24 25 24 23 25 27 29 29 28 22 24 26 27
37 38 39 39 39 40 40 39 39 40 39 38 38 37 38 37 36 36 35 34 33 32 31 30 30 28 27 27 31 30 28 24 21 21 24 29 29 27 27 26 28 28 24
36 37 37 37 37 38 38 39 39 39 38 37 37 37 36 36 35 35 34 33 32 31 30 29 29 27 26 26 28 28 27 27 21 22 24 25 27 26 25 26 25 28 25
36 36 36 36 36 36 36 36 37 37 36 36 36 37 36 36 35 35 33 33 32 32 31 31 30 28 25 26 30 29 27 25 24 25 26 23 21 23 22 20 25 26 25
37 37 36 36 37 36 36 35 36 36 36 35 36 36 35 35 35 34 33 36 35 35 35 34 32 27 29 29 30 31 32 31 30 24 21 21 21 21 20 20 21 23 24

GFSMW_sfc_dewp_099.txt.gz
Dewpoint
43 46 55 59 63 64 65 65 65 66 66 66 65 65 65 66 66 65 64 63 62 61 61 62 61 58 58 58 58 59 58 58 58 57 57 58 58 57 58 59 58 58 58
39 44 53 59 61 62 64 64 65 66 66 66 66 65 64 64 65 66 65 65 64 63 62 62 62 61 59 59 59 59 59 59 59 57 57 55 56 58 58 58 58 55 55
36 44 51 57 59 60 62 64 65 65 65 66 65 64 64 64 64 64 65 65 66 66 65 64 64 63 62 61 61 60 59 58 59 58 57 53 53 54 56 54 53 52 51
35 44 49 54 58 60 61 63 64 65 66 65 65 63 62 62 63 64 65 65 65 65 66 65 65 65 64 64 63 63 62 60 59 60 60 58 57 55 54 55 52 51 50
34 41 45 52 58 60 59 61 62 64 65 65 63 62 61 60 62 62 63 63 64 64 65 65 64 64 64 64 63 63 63 62 61 60 59 58 58 58 56 54 53 51 49
34 40 44 49 50 52 51 56 60 62 63 62 61 60 58 59 60 60 61 62 63 64 64 64 63 63 63 63 63 63 63 63 62 61 60 58 57 56 56 55 54 54 50
34 40 45 45 46 47 48 52 56 58 60 59 58 58 58 58 58 59 60 58 58 59 62 63 63 62 63 63 63 62 62 62 61 61 61 61 59 58 57 56 54 52 48
33 43 45 45 45 46 47 48 51 52 56 58 58 58 58 58 57 56 55 55 56 57 60 60 60 61 62 62 62 62 62 61 61 61 61 60 60 59 58 56 54 52 50
34 42 44 44 45 46 47 45 47 47 50 51 47 48 50 51 49 49 51 52 52 52 53 54 54 55 56 56 57 58 59 59 60 60 59 58 57 57 56 56 55 53 49
35 41 43 43 45 46 46 45 45 46 47 47 47 47 47 48 49 50 49 50 50 50 51 52 53 53 53 53 53 54 54 56 55 55 56 54 52 53 53 52 53 52 52
32 33 38 43 44 44 44 44 45 45 46 46 46 46 46 46 47 46 46 45 45 46 47 47 48 49 49 50 51 51 52 53 52 52 52 51 50 50 48 49 49 49 50
33 33 41 43 43 44 44 45 45 46 45 45 44 44 45 45 43 42 42 43 42 42 43 44 45 45 45 46 49 49 49 51 51 50 49 48 48 47 47 47 46 45 47
36 37 41 42 43 43 44 45 44 44 43 43 42 42 42 41 40 40 40 40 40 41 41 41 41 42 42 42 44 47 49 48 49 48 47 46 46 45 45 45 44 44 43
38 38 41 42 43 43 43 43 42 42 41 41 41 41 40 39 39 39 39 39 39 39 39 40 40 40 41 41 41 43 45 45 45 45 45 45 45 44 43 42 41 39 39
38 38 39 40 42 42 42 41 41 41 41 40 40 39 39 38 38 38 38 38 38 38 39 39 39 39 39 40 40 41 41 41 41 40 40 41 42 43 42 40 38 37 37
39 39 39 40 41 42 41 41 40 40 40 40 39 39 38 38 38 38 38 38 38 38 38 39 39 38 39 40 41 41 38 38 37 36 37 38 40 40 41 40 39 38 36
39 39 40 40 41 41 41 40 40 40 40 39 39 38 38 38 38 38 38 38 37 37 36 36 37 37 38 40 41 42 40 39 37 36 36 36 37 37 36 38 37 38 38
39 40 40 40 41 41 41 40 40 40 40 39 39 38 39 38 38 38 37 36 36 36 36 36 35 36 38 40 41 40 38 37 37 37 36 36 33 32 31 27 27 29 29
39 40 41 41 41 41 41 40 39 39 39 38 38 39 39 38 38 37 36 36 38 37 37 37 34 34 37 41 39 38 36 35 35 34 33 31 30 33 33 28 27 27 29
39 40 42 42 41 40 40 39 39 39 39 39 38 39 39 38 37 36 36 36 37 36 36 35 35 37 37 39 38 35 32 30 28 28 28 32 28 32 32 28 27 26 27
40 41 42 42 41 40 40 39 39 38 39 40 39 39 39 38 37 35 35 37 36 35 35 35 36 36 36 36 38 36 28 27 26 27 26 28 31 31 31 30 26 26 27
39 40 40 40 40 41 40 39 39 39 40 39 39 38 37 38 37 35 36 36 35 35 34 34 33 34 34 37 37 36 28 27 25 25 25 26 33 29 27 23 26 27 29
37 38 38 38 39 39 40 38 38 39 39 38 37 37 37 37 36 36 35 35 35 34 33 32 32 31 29 29 35 35 30 26 24 24 27 29 30 29 29 25 26 29 25
36 37 37 37 36 37 38 39 39 39 38 37 36 36 36 36 36 36 35 34 33 33 32 31 31 30 28 27 28 30 30 29 25 25 26 28 30 28 27 28 26 27 24
37 36 36 36 36 36 36 38 38 38 37 37 37 37 37 37 35 35 34 34 33 33 32 31 31 30 29 27 30 29 27 26 24 24 26 25 25 25 23 22 25 27 27
38 38 37 36 36 36 35 35 36 36 36 36 36 37 36 36 35 34 34 36 36 36 36 36 34 33 34 32 34 32 32 30 29 25 24 24 23 22 24 21 20 25 27

GFSMW_sfc_dewp_102.txt.gz
Dewpoint
48 51 57 62 63 64 65 65 66 66 66 66 65 65 64 65 65 64 62 61 60 60 60 60 60 57 57 58 58 58 58 58 58 57 57 57 58 57 57 59 58 58 58
43 47 55 60 63 64 64 64 65 66 66 66 65 65 64 64 65 66 65 64 63 62 61 61 61 60 57 57 58 58 59 58 59 57 56 54 55 57 58 58 58 57 55
41 44 53 58 61 62 63 64 65 65 66 66 65 64 64 64 64 64 65 66 65 65 64 63 63 62 60 60 60 60 60 59 59 58 56 53 53 54 56 54 54 53 52
36 43 49 56 59 61 62 63 64 65 65 65 65 64 64 62 63 64 64 65 65 65 65 64 65 64 64 63 62 63 62 61 59 60 60 59 58 56 54 55 52 51 50
34 42 47 56 59 59 61 62 63 63 64 64 64 63 61 62 62 63 63 63 64 64 64 65 64 64 64 64 63 63 62 62 61 60 59 59 58 58 56 54 52 49 49
34 39 47 53 57 57 57 59 61 62 63 63 61 61 60 59 60 60 60 62 63 63 64 64 63 63 63 62 62 62 62 62 62 61 61 59 57 57 56 54 54 53 49
34 39 44 51 53 54 55 58 60 60 60 60 60 59 59 59 59 60 60 59 59 59 62 63 62 61 62 62 62 62 62 61 61 61 60 61 59 58 57 56 54 53 48
34 40 45 48 50 52 52 55 57 59 58 57 57 56 57 57 57 58 58 58 56 56 58 60 59 59 58 60 59 60 61 61 61 60 61 60 60 59 57 56 54 52 49
34 42 45 46 46 47 49 54 55 55 56 56 56 55 55 55 54 52 53 53 53 54 55 56 56 56 56 56 57 57 57 57 58 59 59 58 57 57 57 57 56 55 49
33 41 44 45 45 45 46 46 50 52 53 53 53 53 52 51 50 50 50 50 50 51 52 52 52 53 54 53 53 53 53 52 53 55 56 56 55 55 54 55 54 53 53
34 40 44 44 45 45 45 45 45 46 48 48 48 48 48 48 49 49 48 48 48 48 48 49 49 49 49 49 50 51 51 51 52 52 53 54 52 52 51 50 50 51 51
32 37 42 43 44 44 44 44 45 45 46 45 46 45 46 45 45 45 44 44 43 43 43 45 45 45 45 45 47 48 48 49 52 52 50 51 49 49 48 48 48 48 48
37 41 42 43 43 43 44 45 45 45 45 44 43 43 42 42 41 40 41 41 41 41 41 42 42 42 42 42 43 44 47 48 49 50 48 48 47 47 46 46 46 46 45
37 40 42 43 43 43 44 44 43 43 43 42 42 41 41 40 39 39 39 39 40 39 39 40 40 40 40 41 41 42 44 45 46 46 46 46 46 45 45 44 43 42 42
38 40 41 42 43 43 43 42 42 42 41 41 41 40 39 39 38 38 38 38 38 38 39 39 39 38 38 40 40 40 41 40 40 41 41 42 43 45 44 42 41 40 40
38 38 40 41 42 42 42 41 41 41 41 40 39 39 38 38 38 38 38 38 38 38 38 38 38 37 39 40 41 41 38 38 37 37 38 39 42 42 43 42 41 40 36
39 39 39 40 42 42 41 41 40 40 40 39 39 38 38 38 38 38 38 37 36 36 36 36 36 36 37 41 41 42 40 39 38 36 37 37 38 38 39 39 39 40 41
39 40 40 41 42 42 41 40 40 40 40 39 38 38 38 38 38 37 36 35 35 35 35 37 36 35 37 40 41 40 38 38 38 38 37 37 34 34 32 29 29 29 26
39 40 41 41 41 41 41 40 40 40 39 39 38 38 38 38 37 36 35 35 35 34 37 37 36 33 35 40 41 39 37 36 35 36 35 34 33 35 33 28 28 29 30
39 41 42 41 41 41 40 40 39 39 39 38 38 38 39 38 37 36 35 33 35 37 36 35 34 36 34 39 40 36 34 33 32 29 30 36 31 35 33 27 26 28 29
40 41 42 41 41 41 40 40 39 39 39 39 39 39 38 38 37 35 36 34 35 36 35 35 35 36 37 36 39 38 31 30 28 28 27 28 33 33 33 31 27 25 29
38 40 40 40 40 40 40 40 39 39 40 40 39 38 38 38 36 35 35 34 36 35 35 35 34 35 35 37 37 39 35 30 27 27 27 27 33 31 31 29 29 30 30
37 38 38 38 39 39 40 39 39 39 39 38 38 37 36 36 36 36 34 35 35 35 34 34 33 33 33 31 37 37 37 31 26 25 27 28 32 32 29 27 26 28 26
36 36 36 36 36 37 38 39 39 39 38 37 36 35 35 35 36 36 36 35 34 34 33 33 32 33 32 29 28 33 33 34 28 27 28 30 30 30 28 27 26 27 24
37 36 36 36 36 36 36 38 38 38 37 36 36 37 37 38 36 36 35 35 34 34 33 33 33 32 31 30 30 30 29 28 27 24 24 25 26 26 25 25 26 28 26
36 36 36 36 36 35 35 35 36 36 36 36 36 37 37 37 36 35 35 37 37 37 37 37 35 33 35 36 34 35 35 33 31 25 25 25 25 25 25 23 22 25 28

GFSMW_sfc_dewp_105.txt.gz
Dewpoint
46 49 61 63 64 64 66 66 66 66 66 66 65 64 63 62 62 61 60 58 57 58 59 59 58 58 58 58 57 57 57 57 57 57 57 57 58 57 57 58 58 58 58
44 44 54 61 64 64 64 65 65 66 66 66 66 65 64 64 64 64 63 61 61 60 59 60 60 57 57 57 57 58 58 58 58 56 56 54 55 57 56 57 58 56 54
45 42 50 58 61 62 63 65 65 66 66 66 65 64 64 63 64 64 64 64 63 63 63 62 62 61 59 58 59 59 59 58 59 58 57 53 53 54 55 54 55 55 54
45 41 46 55 59 61 63 64 64 65 65 65 64 63 63 62 63 64 64 64 65 65 64 63 63 63 63 62 61 62 61 60 59 60 60 59 58 55 54 55 52 50 50
45 41 42 54 58 60 61 62 63 63 63 64 64 63 61 62 62 63 63 63 64 64 65 64 63 64 64 64 64 63 62 61 60 60 59 59 59 58 56 54 53 51 50
44 38 42 51 56 57 58 60 61 62 63 63 62 62 61 60 60 61 61 61 63 63 64 63 63 63 63 63 63 63 62 62 62 61 60 58 57 57 56 56 54 52 49
35 35 45 52 55 56 57 58 59 60 62 61 61 60 60 60 60 60 59 59 60 60 62 62 62 61 61 61 60 59 58 60 60 60 60 60 59 58 58 56 54 53 49
34 36 43 50 54 55 55 57 58 60 61 60 59 58 59 59 59 59 59 59 58 57 58 59 58 58 58 59 58 57 58 58 59 59 59 59 59 59 58 56 55 52 49
34 35 42 48 52 53 53 56 57 59 58 57 57 57 56 57 56 55 55 55 54 55 56 57 56 56 56 56 57 57 56 57 58 59 59 59 59 59 59 57 55 54 50
34 35 42 46 50 52 51 53 54 55 55 55 55 55 55 54 53 52 52 52 51 52 53 52 52 52 53 52 52 52 52 52 52 52 53 54 55 56 56 56 56 54 54
32 35 42 45 46 46 48 49 51 52 53 53 51 51 51 50 49 50 49 49 49 49 49 50 50 49 49 49 49 49 49 49 49 52 52 52 53 53 53 52 52 52 52
33 37 43 44 45 45 45 45 46 49 49 49 49 48 48 47 46 46 45 45 44 45 45 46 45 45 44 44 44 45 47 47 48 51 51 51 50 50 50 50 50 50 49
39 41 42 43 44 44 44 44 45 45 45 45 46 45 44 43 42 42 42 42 41 42 42 42 42 41 41 41 41 42 44 45 47 47 49 49 48 48 47 47 47 46 46
38 41 41 41 42 43 44 44 44 44 44 44 43 42 42 41 40 40 40 40 40 40 40 40 40 40 39 40 40 40 41 42 43 43 43 44 45 46 46 45 45 44 44
38 40 41 41 42 43 43 43 43 43 43 42 41 41 40 39 39 38 39 39 39 39 39 39 38 38 38 40 39 39 39 39 39 39 39 40 42 44 45 44 43 42 42
38 39 41 41 41 42 42 42 42 41 41 41 40 39 39 38 38 38 38 38 37 37 37 37 37 37 39 41 41 41 38 37 37 36 37 38 40 41 43 43 42 42 40
39 39 40 41 42 42 42 41 41 41 40 40 39 38 38 38 38 37 37 36 36 36 35 35 35 35 36 41 42 42 38 37 39 38 37 38 38 38 39 39 39 40 41
38 39 40 40 42 42 42 41 40 40 40 39 38 38 38 38 37 37 36 35 35 34 34 37 37 34 36 40 40 41 35 35 37 38 38 37 36 35 34 31 31 30 29
38 39 41 41 42 42 41 40 40 40 39 39 38 38 38 38 37 36 34 34 34 34 34 37 37 35 33 38 41 39 34 34 35 36 36 36 35 36 35 31 31 29 31
40 41 42 41 42 41 41 40 39 39 39 39 39 38 38 37 36 35 34 34 34 34 36 36 36 36 34 38 40 39 34 33 34 32 31 36 34 36 35 28 28 29 29
39 41 41 41 41 41 41 40 39 39 39 39 39 38 38 37 36 34 36 35 33 33 36 35 35 33 35 37 39 39 34 32 31 29 29 29 36 36 35 32 26 26 29
38 39 39 40 40 41 41 40 39 40 40 39 39 38 38 38 36 35 35 33 35 36 36 35 34 34 35 37 38 39 39 33 29 28 28 28 32 34 34 34 31 30 31
36 37 38 38 38 39 40 39 39 39 39 38 37 37 36 36 35 34 35 36 36 35 35 34 34 33 33 33 36 38 39 38 30 26 27 30 31 34 30 30 27 29 27
36 36 36 36 36 37 39 39 39 39 38 37 36 36 35 35 35 36 36 36 35 35 34 33 33 34 32 33 31 30 35 35 35 30 29 29 30 30 31 30 26 27 26
37 37 36 36 35 35 36 37 38 38 37 37 36 36 36 36 35 36 36 35 35 35 34 34 34 33 33 33 33 31 30 31 31 27 23 24 27 29 27 26 26 27 26
34 35 36 35 35 35 34 35 35 36 36 36 36 36 37 35 36 35 35 38 38 37 38 38 36 34 36 36 37 37 36 35 35 29 23 23 25 26 27 26 24 25 28

GFSMW_sfc_dewp_108.txt.gz
Dewpoint
50 53 62 63 63 65 66 67 67 67 66 66 64 64 63 61 60 59 59 58 58 59 61 61 61 61 61 61 59 58 57 57 57 57 57 57 57 57 57 57 57 58 58
49 48 59 63 63 63 65 66 66 66 66 66 65 64 64 63 63 62 60 59 58 59 59 59 59 59 59 58 58 58 57 57 58 56 56 54 55 56 55 56 57 55 55
47 47 55 60 62 63 64 65 65 66 66 65 65 64 63 63 62 62 62 62 62 60 60 60 60 58 58 58 58 58 58 58 59 59 57 54 53 55 55 53 55 55 54
45 43 46 56 60 62 63 64 65 66 66 66 65 63 63 62 63 63 63 64 64 62 62 62 62 61 61 61 60 61 61 60 59 60 60 59 58 56 54 54 52 51 52
46 44 43 50 57 61 62 63 63 64 65 65 64 62 63 64 64 63 63 64 64 64 64 63 63 63 63 63 63 62 62 61 61 60 59 59 59 59 57 54 54 52 51
45 44 39 42 55 58 61 62 63 63 64 64 64 63 62 62 62 62 63 63 63 63 64 64 64 64 64 63 63 63 62 62 61 60 60 58 57 57 57 56 55 53 51
46 42 37 48 54 57 58 60 61 61 62 63 62 62 61 62 61 61 62 61 61 62 62 62 61 61 61 61 61 61 60 60 60 60 60 60 59 58 57 56 54 54 50
45 38 36 44 51 55 56 58 59 60 61 61 60 61 60 60 60 60 60 60 59 59 60 60 59 59 59 59 57 57 57 58 58 57 58 57 58 58 57 56 54 52 51
35 35 36 43 51 54 56 57 57 59 60 60 58 58 57 58 58 57 57 56 56 56 58 57 57 56 56 56 56 56 56 57 58 58 58 58 58 58 58 58 57 55 52
34 35 37 43 50 53 53 55 56 58 57 55 56 55 55 55 55 55 54 53 53 53 53 53 53 52 52 51 51 50 50 50 50 51 52 52 52 53 54 55 56 56 55
32 34 36 44 47 49 50 52 53 54 54 53 52 53 52 51 51 51 50 49 49 50 50 50 49 49 48 48 48 48 49 50 50 50 52 52 52 51 51 52 52 52 53
38 39 36 43 45 47 48 49 49 51 50 50 50 49 49 49 48 47 46 47 46 46 46 46 45 44 43 43 43 44 44 45 46 47 49 50 50 48 49 50 49 50 50
39 41 42 43 44 45 45 45 46 47 47 48 47 47 46 45 44 44 43 43 43 43 43 43 42 41 41 40 40 41 41 42 44 44 44 46 46 45 46 47 47 47 47
39 41 41 42 44 44 44 44 43 44 44 45 44 44 43 43 42 41 41 41 41 40 40 40 40 39 39 39 39 39 39 40 40 40 40 40 41 42 45 45 45 45 45
38 40 41 41 42 43 44 44 43 43 43 43 42 41 40 40 39 39 39 39 39 39 39 38 38 38 38 40 39 39 38 37 37 38 38 38 40 43 44 44 43 43 43
38 39 41 41 41 41 43 43 43 42 43 41 40 39 39 38 38 38 38 38 37 38 38 37 37 37 39 42 42 40 37 37 36 36 36 36 39 40 42 43 43 43 41
38 39 39 41 41 42 42 42 41 42 41 40 39 39 38 38 38 37 37 36 36 36 35 35 35 35 35 41 42 42 36 36 35 35 35 37 38 38 38 38 38 39 40
37 38 40 40 41 42 41 41 41 40 40 39 38 38 38 37 37 37 36 35 35 35 36 37 37 34 35 39 40 40 34 34 34 34 35 36 37 36 37 33 33 31 31
38 40 41 41 41 41 41 40 39 39 39 38 38 38 38 37 36 36 35 35 35 34 33 36 37 36 33 38 40 39 35 33 32 35 35 36 35 36 38 32 32 30 30
39 40 41 42 41 41 41 40 39 39 38 38 38 38 38 37 37 36 35 34 34 35 34 36 36 36 34 37 39 40 35 34 33 31 31 33 37 37 37 29 29 29 29
38 40 40 40 40 41 41 40 39 38 39 39 39 38 38 37 37 35 36 36 33 33 35 36 36 35 33 34 39 39 37 34 32 30 29 29 32 37 37 34 26 26 29
37 38 38 38 39 40 41 39 39 40 40 39 39 38 37 38 36 35 36 33 33 33 35 35 34 33 34 37 38 39 39 38 31 29 28 28 32 33 35 34 34 31 30
36 36 37 36 37 40 40 39 38 39 39 39 38 38 37 37 36 35 35 34 34 35 36 35 34 34 34 34 36 38 39 39 34 29 28 30 30 32 34 31 32 29 29
36 36 35 35 35 38 39 39 39 39 39 38 37 36 36 35 34 35 35 35 36 35 34 34 33 34 34 34 33 33 33 36 36 34 31 30 29 31 31 32 28 26 28
36 36 36 35 35 35 35 36 38 38 38 37 37 36 36 37 35 35 35 35 36 34 33 33 34 33 32 33 34 33 31 31 32 32 25 23 25 27 28 27 27 26 27
33 34 34 34 35 33 33 34 35 35 36 36 36 36 36 36 36 34 36 38 38 38 38 38 36 34 36 37 37 38 38 37 35 32 25 23 23 25 27 27 25 26 27

GFSMW_sfc_dewp_111.txt.gz
Dewpoint
49 55 61 63 63 65 66 66 66 66 66 65 64 64 63 64 64 62 61 62 63 64 65 64 64 63 63 62 62 61 60 59 58 58 58 58 58 58 58 58 58 59 59
48 54 62 62 63 64 66 66 66 66 66 66 65 65 65 64 64 63 61 60 61 61 62 62 62 63 62 62 61 60 59 58 59 58 57 56 56 57 55 57 58 58 57
47 50 60 61 62 63 65 66 66 66 66 66 65 65 65 64 64 63 63 61 60 61 61 61 62 61 61 61 61 60 60 59 60 59 59 56 55 57 57 55 55 57 57
46 46 55 60 61 61 64 65 65 64 66 65 64 64 63 63 64 63 63 63 62 61 62 62 62 61 62 61 61 61 61 61 60 61 61 61 60 56 56 55 53 53 53
45 44 49 56 59 63 63 64 64 64 63 65 64 63 61 63 63 64 63 63 63 63 63 63 63 63 63 63 62 61 61 62 61 61 60 61 60 60 57 55 56 54 54
46 44 43 46 57 61 62 63 62 63 64 64 64 62 61 62 64 64 63 63 64 64 64 64 64 64 64 64 64 63 63 63 62 62 61 60 58 57 57 56 56 56 54
45 41 43 49 57 59 61 62 63 62 63 62 61 63 62 63 63 63 63 63 63 63 63 64 64 64 64 64 63 63 62 63 61 60 61 61 60 59 58 57 55 54 55
43 40 39 46 54 58 60 61 61 61 63 63 63 62 63 62 63 63 63 63 62 63 63 63 62 62 62 62 61 60 60 60 60 59 59 59 59 60 59 57 56 54 54
36 37 38 45 51 55 58 60 61 61 62 62 62 62 62 62 61 62 61 60 60 61 61 61 59 59 59 58 58 58 58 58 58 58 58 57 57 57 58 58 58 56 52
39 38 36 42 50 54 56 58 59 59 59 60 60 59 59 60 59 59 58 56 57 58 57 56 55 54 54 54 54 53 52 52 52 53 53 52 53 53 54 55 55 55 53
35 37 35 43 49 52 55 56 57 57 56 56 57 57 56 56 56 55 53 52 53 53 53 53 52 50 49 49 50 50 50 50 50 52 52 50 51 52 53 53 53 54 54
41 41 40 42 46 50 52 54 55 55 54 54 54 53 53 53 52 50 50 50 49 49 49 48 46 45 44 45 45 45 46 47 48 48 50 48 49 50 50 50 51 51 51
40 41 42 43 44 46 49 49 52 52 51 51 51 50 50 49 48 47 47 46 46 45 45 44 43 42 42 41 41 42 43 44 45 45 45 45 46 47 48 48 49 49 48
40 41 42 43 44 44 45 45 47 48 48 48 48 47 47 46 45 44 43 43 43 42 41 41 40 40 40 40 40 40 41 42 42 42 42 42 43 43 45 46 46 46 46
38 41 42 42 43 43 44 44 44 45 46 45 45 44 43 42 41 41 40 40 40 40 39 39 39 40 41 40 40 40 40 40 40 40 39 40 41 42 43 45 45 44 44
39 39 40 42 42 43 43 43 43 43 44 43 42 41 40 40 40 39 39 39 39 39 39 39 39 40 41 43 43 40 39 39 38 39 39 39 39 40 42 43 43 43 43
36 38 39 40 42 43 43 43 42 43 42 41 40 39 39 39 39 38 38 38 38 38 38 37 38 38 41 43 42 40 38 38 38 38 39 38 38 38 38 38 38 37 39
37 38 40 41 41 42 42 41 42 41 42 40 39 39 39 38 38 38 38 38 38 38 38 39 38 38 39 41 41 40 38 36 36 37 37 38 38 37 38 36 35 33 32
38 40 41 41 41 42 41 41 40 40 40 39 39 39 38 38 37 37 37 37 37 37 37 38 39 37 37 39 41 39 37 36 35 35 35 36 36 37 38 34 34 31 31
38 39 40 41 41 41 41 40 39 39 39 39 39 39 38 38 38 37 37 36 37 37 38 38 38 38 37 38 40 40 37 35 34 33 33 33 34 38 38 33 30 29 30
37 39 39 40 41 41 41 40 39 40 40 40 39 39 39 38 38 37 37 37 37 36 38 37 37 37 36 36 39 40 38 36 35 33 31 31 33 34 37 37 29 28 29
36 38 38 38 40 41 41 40 40 40 40 40 39 39 39 38 37 37 38 36 36 36 37 37 36 35 35 38 38 39 40 39 35 34 31 29 32 33 35 35 35 34 30
36 36 37 37 39 40 41 40 39 40 40 39 39 38 38 37 36 37 36 35 35 35 36 36 35 35 35 35 37 38 39 39 38 33 31 31 32 31 32 34 34 33 30
36 36 35 35 35 36 37 39 39 39 39 38 38 38 37 37 36 37 36 36 36 36 36 35 35 35 35 35 35 34 34 36 37 37 34 32 30 30 30 33 30 27 29
36 36 35 35 35 35 35 35 36 39 39 39 38 38 37 38 36 36 36 36 36 37 36 36 35 34 34 34 35 34 33 33 33 33 29 27 26 26 28 29 29 27 26
33 34 34 34 34 33 33 33 34 35 35 37 37 37 37 37 37 36 36 38 38 38 39 38 36 35 36 36 37 37 38 38 38 33 29 28 27 25 25 26 27 27 28

GFSMW_sfc_dewp_114.txt.gz
Dewpoint
43 46 52 57 62 62 64 65 66 66 66 65 65 65 63 63 63 64 64 63 62 62 62 62 62 63 62 62 62 62 62 61 60 58 57 58 59 59 59 59 58 58 59
42 44 50 60 60 63 64 65 66 66 66 66 65 65 64 63 62 63 63 63 63 64 63 63 63 63 63 63 62 62 61 61 60 57 58 56 57 58 57 58 59 59 59
42 45 48 60 61 62 63 64 65 66 66 66 66 65 65 65 63 64 63 62 62 63 64 63 64 64 64 63 63 63 62 60 61 60 59 56 55 58 59 57 57 58 59
44 46 48 59 61 62 64 64 66 66 66 66 66 65 64 63 62 64 64 63 61 62 63 63 62 63 64 63 63 63 63 61 60 61 61 62 60 57 55 57 56 55 55
45 46 49 59 61 62 61 64 64 65 65 66 65 64 64 65 65 65 64 64 63 62 62 62 62 63 63 63 62 61 61 62 61 61 61 61 61 60 58 56 57 56 56
47 46 53 60 60 61 61 62 63 63 64 64 64 63 63 63 63 64 64 64 64 63 63 63 63 63 64 63 63 62 62 62 62 62 62 60 59 58 58 56 56 56 56
47 43 48 58 61 60 60 61 62 61 62 62 63 62 62 62 62 63 63 63 63 64 64 64 64 64 63 64 62 62 63 63 63 62 61 61 59 59 58 57 56 56 56
45 41 47 55 60 61 61 61 61 60 61 61 62 62 62 62 62 62 63 62 63 63 64 64 64 64 64 63 63 63 62 63 63 61 61 59 58 59 59 57 56 53 52
45 40 46 52 59 60 61 61 60 61 61 61 61 61 62 59 61 62 63 62 63 63 63 63 63 63 63 62 62 61 60 60 60 59 59 58 58 57 58 58 58 55 50
39 37 44 49 54 59 60 61 62 61 61 61 61 60 60 59 60 61 62 61 61 62 62 61 61 60 59 59 59 58 58 58 57 56 55 53 53 53 54 54 54 53 53
43 39 39 47 53 56 59 59 59 60 60 61 61 60 60 60 60 60 60 59 60 60 59 58 57 55 55 55 55 54 52 52 52 53 52 51 50 51 52 53 53 52 53
44 42 41 43 51 55 57 57 58 58 59 59 59 59 59 58 58 57 57 57 57 56 54 53 52 51 50 51 50 49 49 49 49 49 49 48 48 49 51 51 50 51 52
43 42 42 43 45 51 53 54 56 56 56 57 56 55 56 56 54 53 53 53 52 51 50 49 48 46 46 45 45 44 45 45 46 47 47 47 47 48 49 48 48 49 48
41 43 43 43 44 47 48 51 52 53 54 55 54 53 53 53 53 51 50 49 49 48 47 45 44 43 42 42 41 42 43 43 43 44 44 44 44 45 46 46 46 46 47
39 40 42 43 44 44 45 48 49 50 51 52 52 51 50 49 49 48 47 45 45 44 43 41 41 41 41 41 41 42 42 42 42 42 41 42 42 41 43 44 44 44 43
37 39 40 42 43 43 44 45 47 48 49 49 48 47 45 45 45 44 44 43 42 41 41 41 41 41 40 43 42 42 41 40 40 40 40 40 40 41 41 43 43 43 43
36 38 40 41 43 43 44 43 44 44 45 44 44 43 43 42 42 41 41 41 41 41 41 40 41 42 43 44 42 41 41 40 40 40 40 39 39 40 39 39 38 38 38
37 39 40 41 41 43 43 43 43 43 43 42 41 41 41 41 40 40 41 41 41 41 41 41 41 42 42 43 42 40 39 39 38 38 39 38 38 38 39 39 38 38 35
39 40 41 42 42 43 42 42 42 42 42 41 41 41 40 40 40 40 41 41 41 41 41 40 40 40 40 42 42 40 38 38 37 36 37 37 37 37 38 38 37 35 34
39 40 41 41 42 42 42 42 41 41 42 41 41 40 40 40 40 40 40 42 41 40 40 40 40 40 39 40 41 40 38 37 36 35 34 34 35 37 38 38 35 34 32
39 40 40 41 42 42 42 42 41 42 41 41 41 41 40 41 40 41 40 40 40 40 39 39 39 38 38 38 40 41 38 37 36 36 35 33 34 35 37 39 35 33 30
37 39 40 40 41 43 42 42 42 42 41 41 41 41 41 39 39 40 39 39 39 39 38 38 37 37 37 38 39 40 40 39 37 36 35 33 32 34 35 36 37 35 32
36 37 38 38 38 39 40 41 40 41 40 40 40 40 39 39 38 38 38 37 37 37 37 37 37 37 36 36 39 40 40 40 39 38 37 34 32 32 33 35 35 36 33
37 37 36 36 35 35 35 36 38 40 39 39 39 39 39 38 37 38 38 37 37 37 38 37 37 37 36 37 37 37 38 39 39 39 37 35 33 31 30 30 33 31 30
36 36 36 35 35 35 35 35 35 38 39 40 39 39 38 38 37 37 37 37 37 38 38 38 38 37 36 36 37 36 35 35 35 35 33 31 30 29 28 28 29 29 29
34 35 35 35 34 33 33 34 35 35 35 36 37 38 38 38 38 38 38 39 39 39 39 39 38 37 38 37 37 38 38 38 37 34 32 31 30 29 29 27 26 27 28

GFSMW_sfc_dewp_117.txt.gz
Dewpoint
41 43 48 56 59 61 61 64 65 64 65 65 65 64 61 58 57 57 56 57 56 56 56 56 57 59 60 60 60 61 61 61 61 60 59 58 58 58 58 59 58 58 59
40 41 46 54 57 60 60 61 65 65 65 64 64 64 64 63 63 62 59 57 56 58 58 60 60 60 61 60 61 62 62 62 62 58 59 57 58 58 58 58 59 59 60
40 40 45 53 58 57 61 60 62 65 65 65 65 65 64 64 64 64 64 63 63 63 63 63 62 63 62 63 63 63 63 61 62 60 59 56 56 58 59 58 57 58 59
40 41 45 51 58 58 58 62 61 65 65 65 64 64 63 62 62 63 63 63 63 64 65 65 64 64 65 64 64 64 64 64 62 61 61 62 60 58 56 57 56 56 56
41 43 46 51 59 59 60 62 63 64 65 65 65 64 63 62 62 64 63 63 63 63 64 64 64 64 65 65 65 64 62 62 62 62 62 61 61 60 58 56 58 58 59
45 46 47 51 60 60 61 62 62 63 64 64 64 64 64 64 63 64 63 63 63 63 63 63 64 64 64 64 63 63 63 62 62 62 62 61 60 59 57 56 57 57 57
46 46 47 56 59 60 60 59 61 62 62 64 64 63 62 63 64 64 64 63 63 63 63 63 64 64 64 63 63 63 63 63 63 62 62 62 61 60 57 56 56 56 57
43 41 49 58 60 59 60 60 60 60 61 61 61 62 62 62 63 63 63 63 63 63 63 63 64 63 63 63 64 63 63 63 63 62 62 61 60 60 59 57 56 54 54
42 44 47 58 59 59 59 59 60 60 60 61 60 61 61 61 61 62 62 62 62 63 64 63 63 63 63 63 63 63 62 62 62 61 60 59 58 58 58 58 58 56 50
43 43 51 58 59 59 59 60 60 60 60 61 61 60 61 61 61 61 61 61 62 62 63 63 63 63 63 63 63 61 60 59 59 59 58 57 55 55 55 56 54 54 53
45 44 51 58 59 60 60 61 61 61 60 61 60 60 60 60 60 60 61 61 61 62 62 62 61 61 60 60 59 58 57 57 55 54 53 52 52 52 53 54 52 51 52
44 45 49 55 57 58 58 58 59 60 60 61 60 60 59 59 59 59 60 61 60 61 60 60 58 58 58 56 55 53 53 52 51 51 51 50 48 50 51 51 51 50 51
44 43 45 48 52 55 55 56 57 58 59 60 59 58 58 59 58 57 58 59 58 58 57 56 55 54 52 52 51 49 48 48 48 49 49 49 48 48 50 50 49 48 47
44 44 43 43 47 50 53 53 54 56 57 57 57 57 57 56 56 55 56 55 55 55 53 51 49 48 46 46 45 45 45 45 45 46 46 46 46 46 47 47 47 45 46
41 44 45 43 44 45 49 51 52 53 55 55 54 54 54 53 53 52 53 52 52 50 48 45 44 43 43 42 43 44 44 44 44 44 43 44 42 42 43 43 45 44 43
37 39 42 45 44 44 45 48 50 51 52 52 50 50 50 50 49 48 47 48 46 44 43 43 42 42 39 44 45 44 43 43 43 42 41 41 40 41 41 43 42 43 42
37 38 40 41 43 43 44 44 46 48 48 48 47 47 47 46 46 46 46 47 45 43 43 43 42 42 42 44 43 43 43 42 42 42 42 41 39 40 40 41 40 40 38
38 39 40 42 42 43 43 43 44 44 45 45 46 46 45 45 44 44 43 43 43 43 43 43 44 44 43 43 42 42 42 41 40 40 40 40 39 39 39 39 39 39 38
40 40 41 42 42 43 43 43 43 43 43 42 42 43 42 42 41 42 42 42 43 43 42 42 42 43 43 43 42 41 40 40 38 37 38 38 38 39 38 39 37 37 36
40 40 41 42 42 42 42 42 42 42 42 42 42 42 42 42 42 44 43 43 42 41 42 41 41 42 41 43 42 41 39 38 37 37 36 37 37 38 39 38 37 35 34
39 41 41 42 42 43 43 42 42 42 42 42 42 42 42 42 42 42 42 42 41 41 41 40 40 39 40 40 42 42 39 38 37 37 36 35 36 36 36 38 37 35 32
37 40 40 40 40 42 42 42 41 42 42 42 41 42 42 41 41 41 41 41 40 40 39 38 38 38 38 40 41 42 42 40 38 37 37 35 33 34 35 36 36 37 35
37 37 38 37 37 38 39 39 39 41 41 40 41 40 40 39 39 39 39 38 39 39 38 38 38 38 37 37 40 41 41 41 39 39 38 37 33 33 33 35 36 36 36
37 37 36 36 35 35 36 36 37 41 40 39 39 39 39 39 38 39 39 38 38 38 38 38 38 38 37 38 38 39 40 40 40 40 39 38 35 34 32 31 32 33 33
36 36 35 35 34 34 35 35 36 37 39 40 40 40 39 39 38 38 38 38 38 39 39 39 39 38 38 38 39 38 37 38 38 38 35 34 32 31 30 30 30 31 31
34 35 35 35 34 33 33 34 34 35 35 35 36 37 38 39 38 38 38 40 41 41 41 41 40 39 39 39 39 39 39 38 38 35 33 33 32 30 30 29 29 29 29

GFSMW_sfc_dewp_120.txt.gz
Dewpoint
28 42 46 53 59 60 60 59 62 62 63 62 60 57 55 57 57 58 60 60 59 58 57 57 55 57 59 59 59 60 60 61 60 59 58 58 58 58 58 59 59 59 59
32 43 46 54 58 59 60 59 59 63 63 62 60 57 55 56 58 59 59 59 58 58 55 56 56 59 60 60 60 61 61 61 61 58 57 55 57 58 57 59 58 58 59
39 42 43 52 57 59 59 59 59 64 64 63 62 61 60 57 57 57 58 58 57 58 58 60 60 60 61 61 61 62 61 60 61 59 58 54 53 57 58 57 57 57 57
40 40 42 50 57 57 59 60 60 62 64 64 63 62 60 58 58 58 57 58 59 60 63 63 62 62 63 63 63 63 62 62 60 61 61 60 59 55 54 56 55 56 56
40 40 43 49 58 57 58 60 60 61 62 63 63 63 62 62 62 62 62 61 62 63 64 64 64 64 64 63 63 62 61 61 61 60 60 59 58 59 56 53 54 55 56
43 42 45 49 58 58 58 60 60 59 61 63 64 62 62 61 62 62 62 62 63 63 63 63 63 64 63 63 62 62 62 61 61 61 60 59 57 57 56 55 54 54 55
46 46 46 49 58 58 59 60 59 60 61 61 64 62 63 62 62 62 61 61 61 62 62 63 63 63 63 62 62 61 61 61 61 61 61 61 60 60 58 56 54 54 56
42 42 45 50 58 58 58 58 57 58 59 61 62 62 62 62 62 62 62 61 61 62 62 62 62 63 63 62 62 61 61 61 61 61 61 61 59 59 58 56 53 51 51
43 45 47 56 58 58 58 57 58 58 60 60 61 61 61 61 61 61 62 62 62 62 62 62 62 61 62 62 61 61 61 61 60 61 60 59 58 57 57 56 56 53 48
45 48 52 58 58 58 57 56 57 58 59 59 60 60 61 61 61 61 61 61 62 62 62 62 62 61 61 61 62 61 61 60 59 59 58 57 54 54 54 54 53 52 51
45 48 55 58 58 58 58 58 59 59 59 60 60 60 60 61 61 60 60 60 61 61 61 62 62 62 62 62 61 60 59 59 56 56 55 53 52 51 51 51 51 51 51
47 48 56 57 57 58 58 59 60 59 60 60 60 59 60 60 60 59 60 61 61 61 61 60 60 60 60 59 58 57 57 55 53 52 51 50 49 49 49 50 48 49 50
46 47 49 51 53 54 55 56 58 58 60 60 59 59 58 59 58 59 60 60 60 60 60 59 58 58 58 58 57 55 53 52 51 50 49 48 47 48 47 47 46 46 47
45 47 46 47 50 52 52 53 54 56 57 58 57 57 57 56 56 57 57 57 58 57 57 57 56 55 54 53 51 50 47 47 46 46 46 45 45 45 46 46 45 44 43
42 44 45 45 47 49 51 51 52 54 55 55 55 54 55 54 55 54 54 54 53 53 52 50 49 48 48 45 45 45 45 44 44 44 44 43 42 43 43 43 42 42 41
40 41 43 44 44 46 48 49 51 51 50 50 50 51 51 50 50 51 51 49 48 49 47 46 46 44 41 46 46 45 44 43 43 41 40 40 40 41 42 44 43 42 40
39 40 41 42 44 44 45 46 47 47 47 47 47 48 47 47 47 47 47 46 46 48 47 47 44 43 43 46 46 45 43 42 41 41 41 40 40 40 40 42 41 40 40
39 40 41 42 42 43 43 44 44 45 46 47 47 48 46 45 45 45 45 46 46 45 46 45 44 43 43 45 45 44 41 41 40 40 40 39 39 40 39 38 38 38 38
40 41 42 42 42 42 43 43 43 43 43 43 43 44 45 45 43 43 43 43 43 41 41 43 44 42 41 43 44 41 40 39 38 38 38 38 38 40 39 38 35 36 36
41 41 42 42 42 43 42 42 42 42 42 42 42 43 44 44 44 43 43 43 43 42 42 41 41 42 41 43 42 41 39 38 37 36 37 39 37 41 39 37 37 35 31
40 41 41 40 40 43 42 42 42 41 42 42 42 42 42 43 44 43 42 42 41 40 39 39 40 40 41 42 42 42 39 38 36 36 35 35 38 37 38 39 36 35 33
39 40 38 38 38 40 41 40 39 41 42 42 42 41 40 41 41 39 39 40 39 39 38 38 38 39 39 41 43 43 42 40 37 36 36 35 37 36 36 36 38 38 36
37 38 37 36 36 36 37 37 38 41 40 40 40 40 40 39 40 39 38 38 39 38 38 37 37 38 38 38 42 43 43 42 38 37 37 37 36 35 35 36 36 36 33
36 36 36 35 35 35 35 36 37 40 40 40 38 38 39 39 38 38 38 38 38 38 38 37 37 38 38 37 38 40 41 41 39 40 39 39 37 35 34 32 32 32 32
35 35 34 34 34 34 34 34 35 36 37 38 38 38 38 39 39 38 38 39 39 40 39 39 38 38 38 38 39 39 39 39 39 38 36 35 34 32 31 30 30 31 31
35 35 35 34 33 33 33 34 34 35 35 35 36 36 36 37 38 38 38 41 41 41 42 41 41 40 41 41 41 41 40 41 40 35 33 33 32 31 29 29 29 30 30